<?xml version='1.0' encoding='UTF-8'?><gpx version="1.1" creator="JPX - https://github.com/jenetics/jpx" xmlns="http://www.topografix.com/GPX/1/1"><trk><trkseg><trkpt lat="45.77390797699062" lon="4.812813018101609"><ele>173.0</ele><time>2026-04-17T14:53:59.982Z</time></trkpt><trkpt lat="45.77392035633863" lon="4.813087200750423"><ele>173.0</ele><time>2026-04-17T14:54:03.528Z</time></trkpt><trkpt lat="45.773882134860166" lon="4.813161715869618"><ele>173.0</ele><time>2026-04-17T14:54:11.532Z</time></trkpt><trkpt lat="45.773896006909915" lon="4.812934985388828"><ele>173.0</ele><time>2026-04-17T14:54:12.988Z</time></trkpt><trkpt lat="45.7739268600633" lon="4.813014104879208"><ele>173.0</ele><time>2026-04-17T14:54:22.994Z</time></trkpt><trkpt lat="45.77399496948458" lon="4.81300471823628"><ele>173.0</ele><time>2026-04-17T14:54:28.996Z</time></trkpt><trkpt lat="45.77405370298385" lon="4.812956326391783"><ele>173.0</ele><time>2026-04-17T14:56:20.001Z</time></trkpt><trkpt lat="45.77409100326448" lon="4.8128792071991295"><ele>173.0</ele><time>2026-04-17T14:56:44Z</time></trkpt><trkpt lat="45.77406877924203" lon="4.81276391018842"><ele>173.0</ele><time>2026-04-17T14:56:49Z</time></trkpt><trkpt lat="45.77402641886679" lon="4.8126898775639635"><ele>173.0</ele><time>2026-04-17T14:56:51Z</time></trkpt><trkpt lat="45.77398622333312" lon="4.812596844156637"><ele>173.0</ele><time>2026-04-17T14:56:54Z</time></trkpt><trkpt lat="45.77391750954413" lon="4.812534108282658"><ele>172.66666666666666</ele><time>2026-04-17T14:56:57Z</time></trkpt><trkpt lat="45.77384990686347" lon="4.812461512925926"><ele>172.33333333333331</ele><time>2026-04-17T14:57:00Z</time></trkpt><trkpt lat="45.77376803131093" lon="4.81241313773951"><ele>172.0</ele><time>2026-04-17T14:57:03Z</time></trkpt><trkpt lat="45.77368696016043" lon="4.81240285106761"><ele>171.66666666666666</ele><time>2026-04-17T14:57:07Z</time></trkpt><trkpt lat="45.7736209114004" lon="4.8123270492226"><ele>171.33333333333334</ele><time>2026-04-17T14:57:11Z</time></trkpt><trkpt lat="45.77356569009575" lon="4.812282650409266"><ele>171.0</ele><time>2026-04-17T14:57:17Z</time></trkpt><trkpt lat="45.77362573164646" lon="4.8122373965821605"><ele>171.0</ele><time>2026-04-17T14:59:16Z</time></trkpt><trkpt lat="45.77368133877623" lon="4.81219444361938"><ele>171.0</ele><time>2026-04-17T14:59:19Z</time></trkpt><trkpt lat="45.77372986517108" lon="4.812092886403572"><ele>171.0</ele><time>2026-04-17T14:59:35Z</time></trkpt><trkpt lat="45.77371204168797" lon="4.811990122304872"><ele>171.0</ele><time>2026-04-17T14:59:37Z</time></trkpt><trkpt lat="45.773756903051684" lon="4.811878944366287"><ele>171.0</ele><time>2026-04-17T14:59:40Z</time></trkpt><trkpt lat="45.77379340884187" lon="4.81177690751604"><ele>171.0</ele><time>2026-04-17T14:59:42Z</time></trkpt><trkpt lat="45.77383868801957" lon="4.811681321312226"><ele>170.83333333333334</ele><time>2026-04-17T14:59:44Z</time></trkpt><trkpt lat="45.77387910912454" lon="4.8115958148256865"><ele>170.66666666666666</ele><time>2026-04-17T14:59:46Z</time></trkpt><trkpt lat="45.77391461202988" lon="4.811520834147246"><ele>170.5</ele><time>2026-04-17T14:59:48Z</time></trkpt><trkpt lat="45.77397626760973" lon="4.8114073410986835"><ele>170.33333333333331</ele><time>2026-04-17T14:59:50.999Z</time></trkpt><trkpt lat="45.77403865263508" lon="4.811343732841089"><ele>170.16666666666666</ele><time>2026-04-17T14:59:52.999Z</time></trkpt><trkpt lat="45.77410105191286" lon="4.8112818928435885"><ele>170.0</ele><time>2026-04-17T14:59:54.999Z</time></trkpt><trkpt lat="45.774176304887575" lon="4.811201230467942"><ele>170.0</ele><time>2026-04-17T14:59:56.999Z</time></trkpt><trkpt lat="45.774239691484844" lon="4.811117175203142"><ele>170.0</ele><time>2026-04-17T14:59:58.999Z</time></trkpt><trkpt lat="45.77431106495101" lon="4.811064553118684"><ele>170.0</ele><time>2026-04-17T15:00:00.999Z</time></trkpt><trkpt lat="45.77437475658256" lon="4.811020820247974"><ele>170.0</ele><time>2026-04-17T15:00:02.999Z</time></trkpt><trkpt lat="45.77442671484266" lon="4.8109681266898425"><ele>170.0</ele><time>2026-04-17T15:00:04.999Z</time></trkpt><trkpt lat="45.77449176269197" lon="4.8109136497833225"><ele>170.0</ele><time>2026-04-17T15:00:07.999Z</time></trkpt><trkpt lat="45.77455459997297" lon="4.810879746501495"><ele>170.0</ele><time>2026-04-17T15:00:12.999Z</time></trkpt><trkpt lat="45.774616141645154" lon="4.810836414401733"><ele>170.0</ele><time>2026-04-17T15:01:00Z</time></trkpt><trkpt lat="45.77466467273671" lon="4.810767105073478"><ele>170.0</ele><time>2026-04-17T15:01:04Z</time></trkpt><trkpt lat="45.77470747039182" lon="4.8106953796814045"><ele>170.0</ele><time>2026-04-17T15:01:06Z</time></trkpt><trkpt lat="45.774709218436776" lon="4.810575455715791"><ele>170.0</ele><time>2026-04-17T15:01:08Z</time></trkpt><trkpt lat="45.77471750250499" lon="4.810453544107181"><ele>170.0</ele><time>2026-04-17T15:01:10Z</time></trkpt><trkpt lat="45.77472618344813" lon="4.8103296802953395"><ele>170.0</ele><time>2026-04-17T15:01:12Z</time></trkpt><trkpt lat="45.77473517082861" lon="4.810200719756615"><ele>169.0</ele><time>2026-04-17T15:01:14Z</time></trkpt><trkpt lat="45.77474470566386" lon="4.810067672172759"><ele>168.0</ele><time>2026-04-17T15:01:16Z</time></trkpt><trkpt lat="45.77475813555186" lon="4.809930310441775"><ele>167.0</ele><time>2026-04-17T15:01:18Z</time></trkpt><trkpt lat="45.774773783867985" lon="4.809786543603229"><ele>166.0</ele><time>2026-04-17T15:01:20Z</time></trkpt><trkpt lat="45.774785655965125" lon="4.809648806358209"><ele>165.0</ele><time>2026-04-17T15:01:22Z</time></trkpt><trkpt lat="45.77479561795082" lon="4.809517307276381"><ele>165.0</ele><time>2026-04-17T15:01:24Z</time></trkpt><trkpt lat="45.77480327267425" lon="4.8093864141803735"><ele>165.0</ele><time>2026-04-17T15:01:26Z</time></trkpt><trkpt lat="45.7748151965008" lon="4.809259067625195"><ele>165.0</ele><time>2026-04-17T15:01:28Z</time></trkpt><trkpt lat="45.77482413125452" lon="4.809140898101653"><ele>165.0</ele><time>2026-04-17T15:01:30Z</time></trkpt><trkpt lat="45.77483289385024" lon="4.809032499135362"><ele>165.0</ele><time>2026-04-17T15:01:32Z</time></trkpt><trkpt lat="45.774844105947686" lon="4.808923166446719"><ele>165.0</ele><time>2026-04-17T15:01:35Z</time></trkpt><trkpt lat="45.774862058129" lon="4.808815325797674"><ele>165.16666666666666</ele><time>2026-04-17T15:01:58.999Z</time></trkpt><trkpt lat="45.77488915164433" lon="4.808717402282694"><ele>165.33333333333334</ele><time>2026-04-17T15:02:01.999Z</time></trkpt><trkpt lat="45.77494751241897" lon="4.808640372096115"><ele>165.5</ele><time>2026-04-17T15:02:58Z</time></trkpt><trkpt lat="45.77496904161745" lon="4.808524108497284"><ele>165.66666666666669</ele><time>2026-04-17T15:03:01Z</time></trkpt><trkpt lat="45.77496672193897" lon="4.808423332940432"><ele>165.83333333333334</ele><time>2026-04-17T15:03:03Z</time></trkpt><trkpt lat="45.77497207222194" lon="4.808292768008873"><ele>166.0</ele><time>2026-04-17T15:03:05Z</time></trkpt><trkpt lat="45.77498369072268" lon="4.808188813662074"><ele>166.83333333333334</ele><time>2026-04-17T15:03:07Z</time></trkpt><trkpt lat="45.7749894546077" lon="4.808050505239251"><ele>167.66666666666669</ele><time>2026-04-17T15:03:09Z</time></trkpt><trkpt lat="45.77499382421712" lon="4.807955603366701"><ele>168.5</ele><time>2026-04-17T15:03:10Z</time></trkpt><trkpt lat="45.77499953170865" lon="4.80777382775923"><ele>169.33333333333334</ele><time>2026-04-17T15:03:12Z</time></trkpt><trkpt lat="45.775011673393706" lon="4.807674917845915"><ele>170.16666666666666</ele><time>2026-04-17T15:03:13Z</time></trkpt><trkpt lat="45.77502630298385" lon="4.807573072826378"><ele>171.0</ele><time>2026-04-17T15:03:14Z</time></trkpt><trkpt lat="45.7750350454689" lon="4.807482436636745"><ele>171.66666666666666</ele><time>2026-04-17T15:03:15Z</time></trkpt><trkpt lat="45.775051901227855" lon="4.8073081907178254"><ele>172.33333333333334</ele><time>2026-04-17T15:03:17Z</time></trkpt><trkpt lat="45.775068242089276" lon="4.807218365880197"><ele>173.0</ele><time>2026-04-17T15:03:18Z</time></trkpt><trkpt lat="45.77507733446124" lon="4.8071238123788955"><ele>173.66666666666669</ele><time>2026-04-17T15:03:19Z</time></trkpt><trkpt lat="45.77510476204911" lon="4.806975653685786"><ele>174.33333333333334</ele><time>2026-04-17T15:03:21Z</time></trkpt><trkpt lat="45.77511579275563" lon="4.806881276792363"><ele>175.0</ele><time>2026-04-17T15:03:22Z</time></trkpt><trkpt lat="45.77512606113248" lon="4.806790258160235"><ele>175.0</ele><time>2026-04-17T15:03:23Z</time></trkpt><trkpt lat="45.77515305876295" lon="4.80661408306528"><ele>175.0</ele><time>2026-04-17T15:03:25Z</time></trkpt><trkpt lat="45.77515883421889" lon="4.806456449332607"><ele>175.0</ele><time>2026-04-17T15:03:27Z</time></trkpt><trkpt lat="45.775167080929954" lon="4.8063613992371135"><ele>175.0</ele><time>2026-04-17T15:03:28Z</time></trkpt><trkpt lat="45.77519819101078" lon="4.80619648172899"><ele>175.0</ele><time>2026-04-17T15:03:30Z</time></trkpt><trkpt lat="45.775224714709005" lon="4.8060489421056705"><ele>174.2</ele><time>2026-04-17T15:03:32Z</time></trkpt><trkpt lat="45.77524714127052" lon="4.805892569824522"><ele>173.4</ele><time>2026-04-17T15:03:34Z</time></trkpt><trkpt lat="45.775262242650776" lon="4.8057521988627"><ele>172.60000000000002</ele><time>2026-04-17T15:03:36Z</time></trkpt><trkpt lat="45.77529940180724" lon="4.805624080023027"><ele>171.8</ele><time>2026-04-17T15:03:38Z</time></trkpt><trkpt lat="45.77535011352241" lon="4.805519858216318"><ele>171.0</ele><time>2026-04-17T15:03:40Z</time></trkpt><trkpt lat="45.7753628547448" lon="4.805397534523088"><ele>171.0</ele><time>2026-04-17T15:03:42Z</time></trkpt><trkpt lat="45.77534194780488" lon="4.80527357029708"><ele>171.0</ele><time>2026-04-17T15:03:44Z</time></trkpt><trkpt lat="45.775327945652926" lon="4.805161249308463"><ele>171.0</ele><time>2026-04-17T15:03:46Z</time></trkpt><trkpt lat="45.77534802778158" lon="4.8050406310877"><ele>171.0</ele><time>2026-04-17T15:03:47.999Z</time></trkpt><trkpt lat="45.775368195877306" lon="4.804889485377272"><ele>171.0</ele><time>2026-04-17T15:03:49.999Z</time></trkpt><trkpt lat="45.77540135222949" lon="4.804721545303034"><ele>171.20000000000002</ele><time>2026-04-17T15:03:51.999Z</time></trkpt><trkpt lat="45.77542843803694" lon="4.8045424000624815"><ele>171.4</ele><time>2026-04-17T15:03:53.999Z</time></trkpt><trkpt lat="45.77543596618549" lon="4.804448805057144"><ele>171.6</ele><time>2026-04-17T15:03:54.999Z</time></trkpt><trkpt lat="45.775450759988345" lon="4.804355753852837"><ele>171.8</ele><time>2026-04-17T15:03:55.999Z</time></trkpt><trkpt lat="45.77547318249744" lon="4.804182255624827"><ele>172.0</ele><time>2026-04-17T15:03:57.999Z</time></trkpt><trkpt lat="45.775486907744636" lon="4.804018447765294"><ele>172.2</ele><time>2026-04-17T15:03:59.999Z</time></trkpt><trkpt lat="45.775520868909865" lon="4.803849433487364"><ele>172.39999999999998</ele><time>2026-04-17T15:04:01.999Z</time></trkpt><trkpt lat="45.775529861015706" lon="4.8037562558002564"><ele>172.60000000000002</ele><time>2026-04-17T15:04:02.999Z</time></trkpt><trkpt lat="45.77554326047255" lon="4.803667646314014"><ele>172.8</ele><time>2026-04-17T15:04:03.999Z</time></trkpt><trkpt lat="45.77556610286885" lon="4.803506759931311"><ele>173.0</ele><time>2026-04-17T15:04:05.999Z</time></trkpt><trkpt lat="45.775589586049456" lon="4.803349974260017"><ele>173.0</ele><time>2026-04-17T15:04:07.999Z</time></trkpt><trkpt lat="45.77560939886042" lon="4.803235645995656"><ele>173.0</ele><time>2026-04-17T15:04:09.999Z</time></trkpt><trkpt lat="45.77562397678737" lon="4.8031408175358115"><ele>173.0</ele><time>2026-04-17T15:04:11.999Z</time></trkpt><trkpt lat="45.77564575087687" lon="4.803036205648009"><ele>173.0</ele><time>2026-04-17T15:04:15.999Z</time></trkpt><trkpt lat="45.775653393810025" lon="4.802928658100799"><ele>173.0</ele><time>2026-04-17T15:04:17.999Z</time></trkpt><trkpt lat="45.77567469044195" lon="4.80280873309594"><ele>173.0</ele><time>2026-04-17T15:04:19.999Z</time></trkpt><trkpt lat="45.77572624634192" lon="4.80268035273764"><ele>173.0</ele><time>2026-04-17T15:04:21.999Z</time></trkpt><trkpt lat="45.77573652552173" lon="4.8025475890394"><ele>173.0</ele><time>2026-04-17T15:04:23.999Z</time></trkpt><trkpt lat="45.77573264065317" lon="4.8024348598374855"><ele>173.0</ele><time>2026-04-17T15:04:25.999Z</time></trkpt><trkpt lat="45.775741133806704" lon="4.8023233647327865"><ele>173.0</ele><time>2026-04-17T15:04:27.999Z</time></trkpt><trkpt lat="45.77574744328795" lon="4.802221849694765"><ele>173.0</ele><time>2026-04-17T15:04:29.999Z</time></trkpt><trkpt lat="45.77576026019455" lon="4.802119710974111"><ele>173.0</ele><time>2026-04-17T15:04:31.999Z</time></trkpt><trkpt lat="45.77577112180379" lon="4.80199550325098"><ele>173.0</ele><time>2026-04-17T15:04:34.999Z</time></trkpt><trkpt lat="45.77577680365138" lon="4.80190235068615"><ele>173.0</ele><time>2026-04-17T15:04:36.999Z</time></trkpt><trkpt lat="45.77581454259348" lon="4.801796172959545"><ele>173.0</ele><time>2026-04-17T15:04:38.999Z</time></trkpt><trkpt lat="45.77582568106231" lon="4.801633325996543"><ele>173.0</ele><time>2026-04-17T15:04:41Z</time></trkpt><trkpt lat="45.77584482864244" lon="4.8014750296662125"><ele>173.0</ele><time>2026-04-17T15:04:43Z</time></trkpt><trkpt lat="45.775866661053605" lon="4.801312024145392"><ele>173.0</ele><time>2026-04-17T15:04:45Z</time></trkpt><trkpt lat="45.77588796296184" lon="4.801159632274517"><ele>173.0</ele><time>2026-04-17T15:04:47Z</time></trkpt><trkpt lat="45.77591504196561" lon="4.800999973187438"><ele>173.0</ele><time>2026-04-17T15:04:49Z</time></trkpt><trkpt lat="45.775932728917944" lon="4.800839029732563"><ele>173.0</ele><time>2026-04-17T15:04:51Z</time></trkpt><trkpt lat="45.77594712621759" lon="4.8006806668743955"><ele>173.0</ele><time>2026-04-17T15:04:53Z</time></trkpt><trkpt lat="45.77596953925717" lon="4.800509968050848"><ele>173.0</ele><time>2026-04-17T15:04:55Z</time></trkpt><trkpt lat="45.7759908435661" lon="4.800331771770173"><ele>173.0</ele><time>2026-04-17T15:04:57Z</time></trkpt><trkpt lat="45.77600670074273" lon="4.800241192456274"><ele>173.0</ele><time>2026-04-17T15:04:58Z</time></trkpt><trkpt lat="45.77601728205624" lon="4.80015030980776"><ele>173.0</ele><time>2026-04-17T15:04:59Z</time></trkpt><trkpt lat="45.776031743534304" lon="4.800058305753477"><ele>173.0</ele><time>2026-04-17T15:05:00Z</time></trkpt><trkpt lat="45.776049494313256" lon="4.799881663999924"><ele>173.0</ele><time>2026-04-17T15:05:02Z</time></trkpt><trkpt lat="45.77606303319031" lon="4.799790427976932"><ele>173.0</ele><time>2026-04-17T15:05:03Z</time></trkpt><trkpt lat="45.77607859569345" lon="4.799698419206016"><ele>173.0</ele><time>2026-04-17T15:05:04Z</time></trkpt><trkpt lat="45.77608925046975" lon="4.799603849190835"><ele>173.0</ele><time>2026-04-17T15:05:05Z</time></trkpt><trkpt lat="45.77609838829221" lon="4.799511955653056"><ele>173.0</ele><time>2026-04-17T15:05:06Z</time></trkpt><trkpt lat="45.77611153034492" lon="4.79941713309307"><ele>173.0</ele><time>2026-04-17T15:05:07Z</time></trkpt><trkpt lat="45.77613360500575" lon="4.799246958621144"><ele>173.0</ele><time>2026-04-17T15:05:09Z</time></trkpt><trkpt lat="45.77614952621529" lon="4.799158935489974"><ele>173.0</ele><time>2026-04-17T15:05:10Z</time></trkpt><trkpt lat="45.77616178975641" lon="4.799066793422025"><ele>173.0</ele><time>2026-04-17T15:05:11Z</time></trkpt><trkpt lat="45.776174883863945" lon="4.798974996819709"><ele>173.0</ele><time>2026-04-17T15:05:12Z</time></trkpt><trkpt lat="45.77620265777919" lon="4.7988115740484805"><ele>173.0</ele><time>2026-04-17T15:05:14Z</time></trkpt><trkpt lat="45.7762180687329" lon="4.798720528102656"><ele>173.0</ele><time>2026-04-17T15:05:15Z</time></trkpt><trkpt lat="45.776239856096424" lon="4.798546617493436"><ele>173.0</ele><time>2026-04-17T15:05:17Z</time></trkpt><trkpt lat="45.77625907921139" lon="4.798377193397395"><ele>173.0</ele><time>2026-04-17T15:05:19Z</time></trkpt><trkpt lat="45.77628177739445" lon="4.798210612688277"><ele>173.0</ele><time>2026-04-17T15:05:21Z</time></trkpt><trkpt lat="45.77630417864307" lon="4.798044522859542"><ele>173.0</ele><time>2026-04-17T15:05:23Z</time></trkpt><trkpt lat="45.776329527464796" lon="4.797882212590004"><ele>173.0</ele><time>2026-04-17T15:05:25Z</time></trkpt><trkpt lat="45.776354231865525" lon="4.797726726827146"><ele>172.8</ele><time>2026-04-17T15:05:27Z</time></trkpt><trkpt lat="45.776373383965215" lon="4.797562911045373"><ele>172.60000000000002</ele><time>2026-04-17T15:05:29Z</time></trkpt><trkpt lat="45.77639076522962" lon="4.797403784457205"><ele>172.39999999999998</ele><time>2026-04-17T15:05:31Z</time></trkpt><trkpt lat="45.776406146141674" lon="4.797241711079133"><ele>172.2</ele><time>2026-04-17T15:05:33Z</time></trkpt><trkpt lat="45.77642695252155" lon="4.797100611547837"><ele>172.0</ele><time>2026-04-17T15:05:35Z</time></trkpt><trkpt lat="45.776426839208135" lon="4.797002265635007"><ele>172.0</ele><time>2026-04-17T15:05:37Z</time></trkpt><trkpt lat="45.77643936527694" lon="4.796899150782478"><ele>172.0</ele><time>2026-04-17T15:05:44Z</time></trkpt><trkpt lat="45.77645785623217" lon="4.796798410059226"><ele>172.0</ele><time>2026-04-17T15:05:47Z</time></trkpt><trkpt lat="45.776467177083724" lon="4.7966872169404375"><ele>172.0</ele><time>2026-04-17T15:05:49Z</time></trkpt><trkpt lat="45.77647252857168" lon="4.796574619219555"><ele>172.0</ele><time>2026-04-17T15:05:50.999Z</time></trkpt><trkpt lat="45.77646638314978" lon="4.79646663470974"><ele>172.0</ele><time>2026-04-17T15:05:52.999Z</time></trkpt><trkpt lat="45.776456029570184" lon="4.796340976960517"><ele>172.8</ele><time>2026-04-17T15:05:54.999Z</time></trkpt><trkpt lat="45.776439475442245" lon="4.796211362325595"><ele>173.6</ele><time>2026-04-17T15:05:56.999Z</time></trkpt><trkpt lat="45.77640714050806" lon="4.796075600081689"><ele>174.4</ele><time>2026-04-17T15:05:58.999Z</time></trkpt><trkpt lat="45.77636653935239" lon="4.795947973850173"><ele>175.20000000000002</ele><time>2026-04-17T15:06:00.999Z</time></trkpt><trkpt lat="45.7763181914685" lon="4.795835501866258"><ele>176.0</ele><time>2026-04-17T15:06:02.999Z</time></trkpt><trkpt lat="45.77626552789196" lon="4.795732083442746"><ele>176.0</ele><time>2026-04-17T15:06:04.999Z</time></trkpt><trkpt lat="45.77621131039608" lon="4.79563071227877"><ele>176.0</ele><time>2026-04-17T15:06:06.999Z</time></trkpt><trkpt lat="45.7761529003531" lon="4.795535529125652"><ele>176.0</ele><time>2026-04-17T15:06:08.999Z</time></trkpt><trkpt lat="45.77609089829079" lon="4.795445955102911"><ele>176.0</ele><time>2026-04-17T15:06:10.999Z</time></trkpt><trkpt lat="45.77603837836783" lon="4.795362815079013"><ele>176.0</ele><time>2026-04-17T15:06:12.999Z</time></trkpt><trkpt lat="45.77598472352881" lon="4.795281391610878"><ele>176.0</ele><time>2026-04-17T15:06:15.999Z</time></trkpt><trkpt lat="45.77593643840579" lon="4.795212302184484"><ele>176.0</ele><time>2026-04-17T15:06:20.999Z</time></trkpt><trkpt lat="45.77586553710265" lon="4.795175696012652"><ele>176.0</ele><time>2026-04-17T15:07:01Z</time></trkpt><trkpt lat="45.7758037834669" lon="4.7951184757342995"><ele>176.0</ele><time>2026-04-17T15:07:07Z</time></trkpt><trkpt lat="45.77575051858149" lon="4.795052032237825"><ele>176.0</ele><time>2026-04-17T15:07:09Z</time></trkpt><trkpt lat="45.775687091036964" lon="4.794975891724744"><ele>176.0</ele><time>2026-04-17T15:07:11Z</time></trkpt><trkpt lat="45.77560845926372" lon="4.7948857751113305"><ele>176.0</ele><time>2026-04-17T15:07:13Z</time></trkpt><trkpt lat="45.77552209934679" lon="4.794788794310723"><ele>176.0</ele><time>2026-04-17T15:07:15Z</time></trkpt><trkpt lat="45.775436858219905" lon="4.79469633170086"><ele>176.0</ele><time>2026-04-17T15:07:17Z</time></trkpt><trkpt lat="45.775359004462594" lon="4.794612619638917"><ele>176.0</ele><time>2026-04-17T15:07:19Z</time></trkpt><trkpt lat="45.77528563105885" lon="4.794534282944727"><ele>176.0</ele><time>2026-04-17T15:07:21Z</time></trkpt><trkpt lat="45.77522184573127" lon="4.794466307797881"><ele>176.0</ele><time>2026-04-17T15:07:23Z</time></trkpt><trkpt lat="45.775161893237616" lon="4.794399554169321"><ele>175.83333333333331</ele><time>2026-04-17T15:07:26Z</time></trkpt><trkpt lat="45.775111384532536" lon="4.7943418157128885"><ele>175.66666666666666</ele><time>2026-04-17T15:07:31Z</time></trkpt><trkpt lat="45.775001837079564" lon="4.79435551145756"><ele>175.5</ele><time>2026-04-17T15:07:42Z</time></trkpt><trkpt lat="45.77495334316707" lon="4.794297012634494"><ele>175.33333333333334</ele><time>2026-04-17T15:07:44Z</time></trkpt><trkpt lat="45.77488104994941" lon="4.794205026322049"><ele>175.16666666666669</ele><time>2026-04-17T15:07:47Z</time></trkpt><trkpt lat="45.77480324175141" lon="4.79409225263841"><ele>175.0</ele><time>2026-04-17T15:07:49Z</time></trkpt><trkpt lat="45.77472015937538" lon="4.793990572408555"><ele>176.0</ele><time>2026-04-17T15:07:51Z</time></trkpt><trkpt lat="45.77464198548731" lon="4.7939008883094925"><ele>177.0</ele><time>2026-04-17T15:07:53Z</time></trkpt><trkpt lat="45.774581763165806" lon="4.793806328725565"><ele>178.0</ele><time>2026-04-17T15:07:55Z</time></trkpt><trkpt lat="45.774496691937095" lon="4.79372249365535"><ele>179.0</ele><time>2026-04-17T15:07:57Z</time></trkpt><trkpt lat="45.77440896121696" lon="4.793621543514148"><ele>180.0</ele><time>2026-04-17T15:07:58.999Z</time></trkpt><trkpt lat="45.77440776218429" lon="4.793505849811408"><ele>180.0</ele><time>2026-04-17T15:07:59.999Z</time></trkpt><trkpt lat="45.77432390746798" lon="4.793408232892758"><ele>180.0</ele><time>2026-04-17T15:08:01.999Z</time></trkpt><trkpt lat="45.7742342363824" lon="4.7933042724242965"><ele>180.0</ele><time>2026-04-17T15:08:03.999Z</time></trkpt><trkpt lat="45.77415882657423" lon="4.793216845811487"><ele>180.0</ele><time>2026-04-17T15:08:05.999Z</time></trkpt><trkpt lat="45.77406117034481" lon="4.7931306409694425"><ele>180.0</ele><time>2026-04-17T15:08:07.999Z</time></trkpt><trkpt lat="45.77398886117806" lon="4.793055527967325"><ele>180.0</ele><time>2026-04-17T15:08:09.999Z</time></trkpt><trkpt lat="45.773917201992916" lon="4.7929829500880405"><ele>180.0</ele><time>2026-04-17T15:08:11.999Z</time></trkpt><trkpt lat="45.77386946428763" lon="4.792880328205476"><ele>180.0</ele><time>2026-04-17T15:08:13.999Z</time></trkpt><trkpt lat="45.773810246231356" lon="4.792811302306476"><ele>180.0</ele><time>2026-04-17T15:08:15.999Z</time></trkpt><trkpt lat="45.77375300178492" lon="4.792744576888521"><ele>180.0</ele><time>2026-04-17T15:08:17.999Z</time></trkpt><trkpt lat="45.773698431923236" lon="4.792680969027089"><ele>180.0</ele><time>2026-04-17T15:08:19.999Z</time></trkpt><trkpt lat="45.77364687357133" lon="4.792620871452056"><ele>180.66666666666666</ele><time>2026-04-17T15:08:21.999Z</time></trkpt><trkpt lat="45.77359075259382" lon="4.792554461267227"><ele>181.33333333333334</ele><time>2026-04-17T15:08:25.999Z</time></trkpt><trkpt lat="45.77353804358209" lon="4.792604062672572"><ele>182.0</ele><time>2026-04-17T15:08:30.999Z</time></trkpt><trkpt lat="45.7734824109603" lon="4.792542980769777"><ele>182.66666666666669</ele><time>2026-04-17T15:09:04Z</time></trkpt><trkpt lat="45.77340950155464" lon="4.792466838103435"><ele>183.33333333333334</ele><time>2026-04-17T15:09:07Z</time></trkpt><trkpt lat="45.77334744779178" lon="4.792396797548396"><ele>184.0</ele><time>2026-04-17T15:09:09Z</time></trkpt><trkpt lat="45.77324096061899" lon="4.792312566334267"><ele>184.0</ele><time>2026-04-17T15:09:11Z</time></trkpt><trkpt lat="45.773147599807814" lon="4.792204468778623"><ele>184.0</ele><time>2026-04-17T15:09:13Z</time></trkpt><trkpt lat="45.77305512734227" lon="4.792098845374481"><ele>184.0</ele><time>2026-04-17T15:09:15Z</time></trkpt><trkpt lat="45.77296570158835" lon="4.791998192702919"><ele>184.0</ele><time>2026-04-17T15:09:17Z</time></trkpt><trkpt lat="45.77291479226104" lon="4.791944246615026"><ele>184.0</ele><time>2026-04-17T15:09:18Z</time></trkpt><trkpt lat="45.77282467982944" lon="4.791833216658213"><ele>183.75</ele><time>2026-04-17T15:09:20Z</time></trkpt><trkpt lat="45.772729128608326" lon="4.791736508375811"><ele>183.5</ele><time>2026-04-17T15:09:22Z</time></trkpt><trkpt lat="45.77257748217232" lon="4.791777045583958"><ele>183.25</ele><time>2026-04-17T15:09:24Z</time></trkpt><trkpt lat="45.772596784390174" lon="4.791579061293104"><ele>183.0</ele><time>2026-04-17T15:09:25Z</time></trkpt><trkpt lat="45.77250875226375" lon="4.791482842128253"><ele>184.25</ele><time>2026-04-17T15:09:27Z</time></trkpt><trkpt lat="45.77239292766413" lon="4.7916196340323465"><ele>185.5</ele><time>2026-04-17T15:09:28Z</time></trkpt><trkpt lat="45.7723062388402" lon="4.791574773397543"><ele>186.75</ele><time>2026-04-17T15:09:30Z</time></trkpt><trkpt lat="45.772144519043664" lon="4.791481514161308"><ele>188.0</ele><time>2026-04-17T15:09:31Z</time></trkpt><trkpt lat="45.77221218249173" lon="4.79135999262432"><ele>188.0</ele><time>2026-04-17T15:09:32Z</time></trkpt><trkpt lat="45.7721303506889" lon="4.791250987653559"><ele>188.0</ele><time>2026-04-17T15:09:34Z</time></trkpt><trkpt lat="45.77205251496472" lon="4.791152007770528"><ele>188.0</ele><time>2026-04-17T15:09:36Z</time></trkpt><trkpt lat="45.77196804680329" lon="4.791054952941239"><ele>188.0</ele><time>2026-04-17T15:09:38Z</time></trkpt><trkpt lat="45.77188673653186" lon="4.790977262795926"><ele>188.0</ele><time>2026-04-17T15:09:40Z</time></trkpt><trkpt lat="45.77180606615152" lon="4.790931584540426"><ele>190.4</ele><time>2026-04-17T15:09:42Z</time></trkpt><trkpt lat="45.77164212770393" lon="4.79079251423579"><ele>192.8</ele><time>2026-04-17T15:09:44Z</time></trkpt><trkpt lat="45.771590777718615" lon="4.790711626110178"><ele>195.2</ele><time>2026-04-17T15:09:46Z</time></trkpt><trkpt lat="45.77151998336773" lon="4.790610626146565"><ele>197.6</ele><time>2026-04-17T15:09:48Z</time></trkpt><trkpt lat="45.77145348809515" lon="4.790634637122631"><ele>200.0</ele><time>2026-04-17T15:09:50Z</time></trkpt><trkpt lat="45.77150734960307" lon="4.790303042585843"><ele>200.0</ele><time>2026-04-17T15:09:51Z</time></trkpt><trkpt lat="45.771423075501474" lon="4.790202386365642"><ele>200.0</ele><time>2026-04-17T15:09:53Z</time></trkpt><trkpt lat="45.77134065176923" lon="4.790147000783341"><ele>200.0</ele><time>2026-04-17T15:09:54Z</time></trkpt><trkpt lat="45.771272924514854" lon="4.790069340104748"><ele>200.0</ele><time>2026-04-17T15:09:56Z</time></trkpt><trkpt lat="45.77126402649564" lon="4.789843827819368"><ele>200.0</ele><time>2026-04-17T15:09:58Z</time></trkpt><trkpt lat="45.771194821736024" lon="4.78976712545718"><ele>199.00000000000003</ele><time>2026-04-17T15:10:00Z</time></trkpt><trkpt lat="45.77112205982273" lon="4.789686782225414"><ele>198.0</ele><time>2026-04-17T15:10:02Z</time></trkpt><trkpt lat="45.77104747806606" lon="4.789601536701232"><ele>197.0</ele><time>2026-04-17T15:10:04Z</time></trkpt><trkpt lat="45.77098285623318" lon="4.789527675178208"><ele>196.0</ele><time>2026-04-17T15:10:06Z</time></trkpt><trkpt lat="45.77091205639837" lon="4.789446752316726"><ele>195.00000000000003</ele><time>2026-04-17T15:10:08Z</time></trkpt><trkpt lat="45.77084687097354" lon="4.7893722466182345"><ele>194.0</ele><time>2026-04-17T15:10:09.999Z</time></trkpt><trkpt lat="45.7707804526089" lon="4.789296331692097"><ele>193.83333333333334</ele><time>2026-04-17T15:10:11.999Z</time></trkpt><trkpt lat="45.77071485177199" lon="4.789221140599766"><ele>193.66666666666669</ele><time>2026-04-17T15:10:13.999Z</time></trkpt><trkpt lat="45.770642445533376" lon="4.78913808948152"><ele>193.5</ele><time>2026-04-17T15:10:15.999Z</time></trkpt><trkpt lat="45.77057138227264" lon="4.789053960363407"><ele>193.33333333333331</ele><time>2026-04-17T15:10:17.999Z</time></trkpt><trkpt lat="45.77050790496122" lon="4.788963136911946"><ele>193.16666666666666</ele><time>2026-04-17T15:10:19.999Z</time></trkpt><trkpt lat="45.77045305296215" lon="4.788867390666642"><ele>193.0</ele><time>2026-04-17T15:10:21.999Z</time></trkpt><trkpt lat="45.7704143817642" lon="4.788767044740106"><ele>193.0</ele><time>2026-04-17T15:10:23.999Z</time></trkpt><trkpt lat="45.770386342054344" lon="4.788660305085973"><ele>193.0</ele><time>2026-04-17T15:10:25.999Z</time></trkpt><trkpt lat="45.770347383375" lon="4.78855517654033"><ele>193.0</ele><time>2026-04-17T15:10:27.999Z</time></trkpt><trkpt lat="45.77031079130422" lon="4.788456467628218"><ele>193.0</ele><time>2026-04-17T15:10:29.999Z</time></trkpt><trkpt lat="45.769908229422576" lon="4.788452198393895"><ele>193.66666666666666</ele><time>2026-04-17T15:10:34.999Z</time></trkpt><trkpt lat="45.76984554566971" lon="4.788389010963779"><ele>194.33333333333331</ele><time>2026-04-17T15:10:36.999Z</time></trkpt><trkpt lat="45.76978606624659" lon="4.788320617314836"><ele>195.0</ele><time>2026-04-17T15:10:38.999Z</time></trkpt><trkpt lat="45.76973435817247" lon="4.7882506975120895"><ele>195.66666666666669</ele><time>2026-04-17T15:10:40.999Z</time></trkpt><trkpt lat="45.76967505675079" lon="4.788177791290369"><ele>196.33333333333334</ele><time>2026-04-17T15:10:42.999Z</time></trkpt><trkpt lat="45.76961539701329" lon="4.788106609962372"><ele>197.0</ele><time>2026-04-17T15:10:44.999Z</time></trkpt><trkpt lat="45.76955915112016" lon="4.788047089174607"><ele>197.0</ele><time>2026-04-17T15:10:46.999Z</time></trkpt><trkpt lat="45.769497299153024" lon="4.787985623086686"><ele>197.0</ele><time>2026-04-17T15:10:48.999Z</time></trkpt><trkpt lat="45.76944232245444" lon="4.787907884581389"><ele>197.0</ele><time>2026-04-17T15:10:50.999Z</time></trkpt><trkpt lat="45.76939297599851" lon="4.787842306217498"><ele>197.0</ele><time>2026-04-17T15:10:52.999Z</time></trkpt><trkpt lat="45.769342666509004" lon="4.787777782241491"><ele>197.0</ele><time>2026-04-17T15:10:54.999Z</time></trkpt><trkpt lat="45.76927409809229" lon="4.7876883399177"><ele>197.0</ele><time>2026-04-17T15:10:58Z</time></trkpt><trkpt lat="45.769223628919484" lon="4.787621327121777"><ele>197.0</ele><time>2026-04-17T15:11:01Z</time></trkpt><trkpt lat="45.76919400175078" lon="4.787538032930116"><ele>197.83333333333334</ele><time>2026-04-17T15:11:08Z</time></trkpt><trkpt lat="45.769224098115544" lon="4.787420447960172"><ele>198.66666666666669</ele><time>2026-04-17T15:11:12Z</time></trkpt><trkpt lat="45.76922397502379" lon="4.787310816523937"><ele>199.5</ele><time>2026-04-17T15:11:15Z</time></trkpt><trkpt lat="45.76921357758008" lon="4.787218572865328"><ele>200.33333333333331</ele><time>2026-04-17T15:11:18Z</time></trkpt><trkpt lat="45.769193531044216" lon="4.787129077305028"><ele>201.16666666666666</ele><time>2026-04-17T15:11:21Z</time></trkpt><trkpt lat="45.769159417401724" lon="4.787001710315878"><ele>202.0</ele><time>2026-04-17T15:11:24Z</time></trkpt><trkpt lat="45.76913094891587" lon="4.786908155965588"><ele>201.49999999999997</ele><time>2026-04-17T15:11:26Z</time></trkpt><trkpt lat="45.76910170826202" lon="4.786818987428771"><ele>201.0</ele><time>2026-04-17T15:11:28Z</time></trkpt><trkpt lat="45.7690777601741" lon="4.786725383901669"><ele>200.5</ele><time>2026-04-17T15:11:30Z</time></trkpt><trkpt lat="45.76903981678123" lon="4.78663775360469"><ele>200.0</ele><time>2026-04-17T15:11:32Z</time></trkpt><trkpt lat="45.769004592682926" lon="4.786531309479644"><ele>199.49999999999997</ele><time>2026-04-17T15:11:34Z</time></trkpt><trkpt lat="45.76897246507609" lon="4.786421262028532"><ele>199.0</ele><time>2026-04-17T15:11:36Z</time></trkpt><trkpt lat="45.768930014332135" lon="4.786305465912398"><ele>198.99999999999997</ele><time>2026-04-17T15:11:38Z</time></trkpt><trkpt lat="45.768888849324824" lon="4.786187013520172"><ele>199.0</ele><time>2026-04-17T15:11:40Z</time></trkpt><trkpt lat="45.768853174624425" lon="4.786082725546238"><ele>199.0</ele><time>2026-04-17T15:11:42Z</time></trkpt><trkpt lat="45.76882375940924" lon="4.7859930414586"><ele>199.0</ele><time>2026-04-17T15:11:44Z</time></trkpt><trkpt lat="45.76878954409932" lon="4.785902055887908"><ele>198.99999999999997</ele><time>2026-04-17T15:11:46Z</time></trkpt><trkpt lat="45.768754098583244" lon="4.785778502526103"><ele>199.0</ele><time>2026-04-17T15:11:49Z</time></trkpt><trkpt lat="45.76871546904934" lon="4.785691005715631"><ele>198.99999999999997</ele><time>2026-04-17T15:11:52Z</time></trkpt><trkpt lat="45.76867866865126" lon="4.785600605946413"><ele>199.0</ele><time>2026-04-17T15:11:55Z</time></trkpt><trkpt lat="45.76864615583833" lon="4.785492668631148"><ele>199.0</ele><time>2026-04-17T15:11:59Z</time></trkpt><trkpt lat="45.76860519338429" lon="4.785395576339803"><ele>199.0</ele><time>2026-04-17T15:12:02Z</time></trkpt><trkpt lat="45.768554818238194" lon="4.785285922713404"><ele>198.99999999999997</ele><time>2026-04-17T15:12:05Z</time></trkpt><trkpt lat="45.768551472852614" lon="4.785176454913767"><ele>199.0</ele><time>2026-04-17T15:12:09Z</time></trkpt><trkpt lat="45.76850086667441" lon="4.785055461647296"><ele>198.79999999999998</ele><time>2026-04-17T15:12:12Z</time></trkpt><trkpt lat="45.768446023643044" lon="4.784953093772065"><ele>198.6</ele><time>2026-04-17T15:12:14Z</time></trkpt><trkpt lat="45.768408719300716" lon="4.784817047482627"><ele>198.4</ele><time>2026-04-17T15:12:16Z</time></trkpt><trkpt lat="45.76836365187421" lon="4.784681518911174"><ele>198.2</ele><time>2026-04-17T15:12:18Z</time></trkpt><trkpt lat="45.76832501880028" lon="4.784555670517376"><ele>198.0</ele><time>2026-04-17T15:12:19.999Z</time></trkpt><trkpt lat="45.76829214287411" lon="4.784439507902045"><ele>197.5</ele><time>2026-04-17T15:12:21.999Z</time></trkpt><trkpt lat="45.768252727272326" lon="4.784316258870123"><ele>197.0</ele><time>2026-04-17T15:12:23.999Z</time></trkpt><trkpt lat="45.7682150389049" lon="4.784201672167702"><ele>196.5</ele><time>2026-04-17T15:12:25.999Z</time></trkpt><trkpt lat="45.768182498218344" lon="4.784091111618598"><ele>196.0</ele><time>2026-04-17T15:12:27.999Z</time></trkpt><trkpt lat="45.76815452960759" lon="4.783999931046656"><ele>195.5</ele><time>2026-04-17T15:12:29.999Z</time></trkpt><trkpt lat="45.76812389485504" lon="4.783901868281115"><ele>195.0</ele><time>2026-04-17T15:12:31.999Z</time></trkpt><trkpt lat="45.768079760904286" lon="4.783811274090205"><ele>195.0</ele><time>2026-04-17T15:12:33.999Z</time></trkpt><trkpt lat="45.76805511920888" lon="4.78371900727843"><ele>195.0</ele><time>2026-04-17T15:12:35.999Z</time></trkpt><trkpt lat="45.768023324117394" lon="4.7836327103325935"><ele>195.0</ele><time>2026-04-17T15:12:37.999Z</time></trkpt><trkpt lat="45.767985690016566" lon="4.783509477824242"><ele>195.0</ele><time>2026-04-17T15:12:40.999Z</time></trkpt><trkpt lat="45.76797600016926" lon="4.783413332491552"><ele>195.0</ele><time>2026-04-17T15:12:42.999Z</time></trkpt><trkpt lat="45.76796691731962" lon="4.78328440614049"><ele>195.0</ele><time>2026-04-17T15:12:45.999Z</time></trkpt><trkpt lat="45.76796472735102" lon="4.783192238621457"><ele>195.0</ele><time>2026-04-17T15:12:54.999Z</time></trkpt><trkpt lat="45.767960332943865" lon="4.783095404818102"><ele>195.0</ele><time>2026-04-17T15:14:55.999Z</time></trkpt><trkpt lat="45.7678413937418" lon="4.78295546572166"><ele>195.0</ele><time>2026-04-17T15:15:00.999Z</time></trkpt><trkpt lat="45.7678443003269" lon="4.78286521892995"><ele>195.0</ele><time>2026-04-17T15:15:03.999Z</time></trkpt><trkpt lat="45.767849235509516" lon="4.782760201164559"><ele>195.0</ele><time>2026-04-17T15:15:05.999Z</time></trkpt><trkpt lat="45.76784353584584" lon="4.782649439413207"><ele>195.0</ele><time>2026-04-17T15:15:07.999Z</time></trkpt><trkpt lat="45.76783925606023" lon="4.782527623433302"><ele>194.83333333333334</ele><time>2026-04-17T15:15:10Z</time></trkpt><trkpt lat="45.76783591724382" lon="4.7824125292007045"><ele>194.66666666666669</ele><time>2026-04-17T15:15:12Z</time></trkpt><trkpt lat="45.76783173663147" lon="4.782299808128373"><ele>194.5</ele><time>2026-04-17T15:15:14Z</time></trkpt><trkpt lat="45.767826625935676" lon="4.782206455729264"><ele>194.33333333333334</ele><time>2026-04-17T15:15:16Z</time></trkpt><trkpt lat="45.76782046266291" lon="4.78209739344227"><ele>194.16666666666669</ele><time>2026-04-17T15:15:18Z</time></trkpt><trkpt lat="45.76781181973171" lon="4.781984842142878"><ele>194.0</ele><time>2026-04-17T15:15:20Z</time></trkpt><trkpt lat="45.76780643346341" lon="4.781881699977114"><ele>194.33333333333334</ele><time>2026-04-17T15:15:22Z</time></trkpt><trkpt lat="45.7677997641662" lon="4.7817304134636665"><ele>194.66666666666669</ele><time>2026-04-17T15:15:25Z</time></trkpt><trkpt lat="45.767793480203885" lon="4.781616662365785"><ele>195.0</ele><time>2026-04-17T15:15:27Z</time></trkpt><trkpt lat="45.76778406021877" lon="4.781507163043914"><ele>195.33333333333331</ele><time>2026-04-17T15:15:29Z</time></trkpt><trkpt lat="45.767776229993565" lon="4.781388185209225"><ele>195.66666666666666</ele><time>2026-04-17T15:15:31Z</time></trkpt><trkpt lat="45.76776295923305" lon="4.781253308805125"><ele>196.0</ele><time>2026-04-17T15:15:33Z</time></trkpt><trkpt lat="45.76777526069127" lon="4.78110513613638"><ele>196.8</ele><time>2026-04-17T15:15:35Z</time></trkpt><trkpt lat="45.767767456519096" lon="4.780960097011497"><ele>197.60000000000002</ele><time>2026-04-17T15:15:37Z</time></trkpt><trkpt lat="45.76775869010039" lon="4.780825992533899"><ele>198.4</ele><time>2026-04-17T15:15:39Z</time></trkpt><trkpt lat="45.76774928794466" lon="4.780689253872743"><ele>199.2</ele><time>2026-04-17T15:15:41Z</time></trkpt><trkpt lat="45.76772324720808" lon="4.780546985742875"><ele>200.0</ele><time>2026-04-17T15:15:43Z</time></trkpt><trkpt lat="45.76771365715428" lon="4.780393929241397"><ele>200.0</ele><time>2026-04-17T15:15:45Z</time></trkpt><trkpt lat="45.76770341416553" lon="4.780242068137132"><ele>200.0</ele><time>2026-04-17T15:15:47Z</time></trkpt><trkpt lat="45.76769444782099" lon="4.780107085601824"><ele>200.0</ele><time>2026-04-17T15:15:49Z</time></trkpt><trkpt lat="45.76764027204212" lon="4.779961772712539"><ele>200.0</ele><time>2026-04-17T15:15:51Z</time></trkpt><trkpt lat="45.7675838561661" lon="4.779901074621261"><ele>200.0</ele><time>2026-04-17T15:15:52Z</time></trkpt><trkpt lat="45.76753772463642" lon="4.779827425981811"><ele>199.66666666666669</ele><time>2026-04-17T15:15:53Z</time></trkpt><trkpt lat="45.76750145035675" lon="4.779752083642255"><ele>199.33333333333334</ele><time>2026-04-17T15:15:54Z</time></trkpt><trkpt lat="45.767456367250816" lon="4.779687807434338"><ele>199.0</ele><time>2026-04-17T15:15:55Z</time></trkpt><trkpt lat="45.76738471535248" lon="4.7795768103347305"><ele>198.66666666666669</ele><time>2026-04-17T15:15:57Z</time></trkpt><trkpt lat="45.7673161994966" lon="4.779447107813278"><ele>198.33333333333334</ele><time>2026-04-17T15:15:59Z</time></trkpt><trkpt lat="45.76725320219342" lon="4.779347918410374"><ele>198.0</ele><time>2026-04-17T15:16:01Z</time></trkpt><trkpt lat="45.76719377443806" lon="4.779250606200654"><ele>198.0</ele><time>2026-04-17T15:16:03Z</time></trkpt><trkpt lat="45.76712501704384" lon="4.7791439161785165"><ele>198.0</ele><time>2026-04-17T15:16:05Z</time></trkpt><trkpt lat="45.76708268287505" lon="4.779074307339108"><ele>198.0</ele><time>2026-04-17T15:16:07Z</time></trkpt><trkpt lat="45.767087752140085" lon="4.778942666262785"><ele>198.0</ele><time>2026-04-17T15:16:10Z</time></trkpt><trkpt lat="45.76712385580914" lon="4.778842276444256"><ele>198.0</ele><time>2026-04-17T15:16:12Z</time></trkpt><trkpt lat="45.76715333594352" lon="4.778758711914535"><ele>198.0</ele><time>2026-04-17T15:16:14Z</time></trkpt><trkpt lat="45.76709962754737" lon="4.778664570833841"><ele>198.0</ele><time>2026-04-17T15:16:15Z</time></trkpt><trkpt lat="45.76703002892934" lon="4.778554920513991"><ele>198.0</ele><time>2026-04-17T15:16:17Z</time></trkpt><trkpt lat="45.766959418531236" lon="4.7784340503032015"><ele>198.0</ele><time>2026-04-17T15:16:19Z</time></trkpt><trkpt lat="45.76688931999148" lon="4.77831457893982"><ele>198.0</ele><time>2026-04-17T15:16:21Z</time></trkpt><trkpt lat="45.76682310364954" lon="4.778193488684254"><ele>198.0</ele><time>2026-04-17T15:16:23Z</time></trkpt><trkpt lat="45.76675984070697" lon="4.778092215419062"><ele>198.33333333333334</ele><time>2026-04-17T15:16:25Z</time></trkpt><trkpt lat="45.766709122782416" lon="4.777996604783115"><ele>198.66666666666669</ele><time>2026-04-17T15:16:27Z</time></trkpt><trkpt lat="45.766641592577166" lon="4.777891081002669"><ele>199.0</ele><time>2026-04-17T15:16:29Z</time></trkpt><trkpt lat="45.76660510445696" lon="4.777810632068182"><ele>199.33333333333334</ele><time>2026-04-17T15:16:31Z</time></trkpt><trkpt lat="45.7665571351432" lon="4.777745011969552"><ele>199.66666666666669</ele><time>2026-04-17T15:16:33Z</time></trkpt><trkpt lat="45.76650096114665" lon="4.777654656683052"><ele>200.0</ele><time>2026-04-17T15:16:36Z</time></trkpt><trkpt lat="45.76646275241878" lon="4.777571232923131"><ele>200.00000000000003</ele><time>2026-04-17T15:16:40Z</time></trkpt><trkpt lat="45.76641706455289" lon="4.777495018223439"><ele>200.0</ele><time>2026-04-17T15:16:42Z</time></trkpt><trkpt lat="45.766361745766055" lon="4.777422626736399"><ele>200.0</ele><time>2026-04-17T15:16:44Z</time></trkpt><trkpt lat="45.76631379244942" lon="4.77732744057289"><ele>200.0</ele><time>2026-04-17T15:16:46Z</time></trkpt><trkpt lat="45.766260522136044" lon="4.777245310445556"><ele>200.00000000000003</ele><time>2026-04-17T15:16:48Z</time></trkpt><trkpt lat="45.76621327737735" lon="4.77716082357899"><ele>200.0</ele><time>2026-04-17T15:16:50Z</time></trkpt><trkpt lat="45.76616600986513" lon="4.777055960279889"><ele>200.00000000000003</ele><time>2026-04-17T15:16:52Z</time></trkpt><trkpt lat="45.766131010832034" lon="4.776927633491453"><ele>200.0</ele><time>2026-04-17T15:16:53.999Z</time></trkpt><trkpt lat="45.76613383841431" lon="4.7767925200182235"><ele>200.0</ele><time>2026-04-17T15:16:55.999Z</time></trkpt><trkpt lat="45.76612706203916" lon="4.7766717502038905"><ele>200.0</ele><time>2026-04-17T15:16:57.999Z</time></trkpt><trkpt lat="45.766130255389854" lon="4.7765672699913315"><ele>200.00000000000003</ele><time>2026-04-17T15:16:59.999Z</time></trkpt><trkpt lat="45.76612386557419" lon="4.776465504333465"><ele>200.0</ele><time>2026-04-17T15:17:01.999Z</time></trkpt><trkpt lat="45.76613129430469" lon="4.776372944733075"><ele>200.57142857142858</ele><time>2026-04-17T15:17:03.999Z</time></trkpt><trkpt lat="45.766131637757134" lon="4.77628003673624"><ele>201.14285714285714</ele><time>2026-04-17T15:17:05.999Z</time></trkpt><trkpt lat="45.766127385134986" lon="4.776175712168663"><ele>201.71428571428572</ele><time>2026-04-17T15:17:08.999Z</time></trkpt><trkpt lat="45.766136133911886" lon="4.7760706748474515"><ele>202.28571428571428</ele><time>2026-04-17T15:17:20Z</time></trkpt><trkpt lat="45.76612596853973" lon="4.775979913470827"><ele>202.85714285714286</ele><time>2026-04-17T15:17:31Z</time></trkpt><trkpt lat="45.76612910795909" lon="4.775882611023173"><ele>203.42857142857144</ele><time>2026-04-17T15:17:37Z</time></trkpt><trkpt lat="45.7661488055061" lon="4.775786823110099"><ele>204.0</ele><time>2026-04-17T15:17:44Z</time></trkpt><trkpt lat="45.76614226369099" lon="4.775685727078438"><ele>204.85714285714286</ele><time>2026-04-17T15:17:49Z</time></trkpt><trkpt lat="45.76612022900828" lon="4.775584121497191"><ele>205.71428571428572</ele><time>2026-04-17T15:17:55Z</time></trkpt><trkpt lat="45.76613056916629" lon="4.775488648184176"><ele>206.57142857142856</ele><time>2026-04-17T15:18:01Z</time></trkpt><trkpt lat="45.76613123532302" lon="4.775397358268285"><ele>207.42857142857144</ele><time>2026-04-17T15:18:16Z</time></trkpt><trkpt lat="45.766092862199876" lon="4.77532345965297"><ele>208.28571428571428</ele><time>2026-04-17T15:18:18Z</time></trkpt><trkpt lat="45.766049506762585" lon="4.775219200358828"><ele>209.14285714285714</ele><time>2026-04-17T15:18:21Z</time></trkpt><trkpt lat="45.766013518643256" lon="4.775131801375016"><ele>210.0</ele><time>2026-04-17T15:18:23Z</time></trkpt><trkpt lat="45.76596171320559" lon="4.775048297649492"><ele>210.0</ele><time>2026-04-17T15:18:25Z</time></trkpt><trkpt lat="45.76592305346274" lon="4.774939548454721"><ele>210.0</ele><time>2026-04-17T15:18:27Z</time></trkpt><trkpt lat="45.76588166750287" lon="4.774829745790981"><ele>210.0</ele><time>2026-04-17T15:18:29Z</time></trkpt><trkpt lat="45.76583377098697" lon="4.7747231441717055"><ele>210.0</ele><time>2026-04-17T15:18:31Z</time></trkpt><trkpt lat="45.76579264229624" lon="4.774621732006455"><ele>210.0</ele><time>2026-04-17T15:18:33Z</time></trkpt><trkpt lat="45.765750337940524" lon="4.774498940953221"><ele>210.0</ele><time>2026-04-17T15:18:35Z</time></trkpt><trkpt lat="45.76570043443132" lon="4.774384413559887"><ele>211.0</ele><time>2026-04-17T15:18:37Z</time></trkpt><trkpt lat="45.7656610246848" lon="4.774273225742828"><ele>212.0</ele><time>2026-04-17T15:18:39Z</time></trkpt><trkpt lat="45.76561030771172" lon="4.774153871605124"><ele>213.0</ele><time>2026-04-17T15:18:41Z</time></trkpt><trkpt lat="45.76556959085361" lon="4.774045288232694"><ele>214.0</ele><time>2026-04-17T15:18:43Z</time></trkpt><trkpt lat="45.76553133847904" lon="4.773935803043588"><ele>215.0</ele><time>2026-04-17T15:18:45Z</time></trkpt><trkpt lat="45.76548104105995" lon="4.773834643738157"><ele>216.0</ele><time>2026-04-17T15:18:47Z</time></trkpt><trkpt lat="45.76542864035387" lon="4.773726586859089"><ele>216.0</ele><time>2026-04-17T15:18:49Z</time></trkpt><trkpt lat="45.76538121661142" lon="4.7736054365338285"><ele>216.0</ele><time>2026-04-17T15:18:51Z</time></trkpt><trkpt lat="45.76534688083916" lon="4.773497974568729"><ele>216.0</ele><time>2026-04-17T15:18:53Z</time></trkpt><trkpt lat="45.765299980033895" lon="4.7733825365680085"><ele>216.0</ele><time>2026-04-17T15:18:55Z</time></trkpt><trkpt lat="45.76525294434251" lon="4.773276154199435"><ele>216.0</ele><time>2026-04-17T15:18:57Z</time></trkpt><trkpt lat="45.765212738876365" lon="4.773170255837831"><ele>216.0</ele><time>2026-04-17T15:18:59Z</time></trkpt><trkpt lat="45.76520717638091" lon="4.773069857807605"><ele>215.28571428571428</ele><time>2026-04-17T15:19:01Z</time></trkpt><trkpt lat="45.76519509402443" lon="4.772968346495272"><ele>214.57142857142856</ele><time>2026-04-17T15:19:03Z</time></trkpt><trkpt lat="45.76517735242635" lon="4.772865208156654"><ele>213.85714285714286</ele><time>2026-04-17T15:19:05Z</time></trkpt><trkpt lat="45.765157977221556" lon="4.772770781484634"><ele>213.14285714285714</ele><time>2026-04-17T15:19:07Z</time></trkpt><trkpt lat="45.76515578356632" lon="4.7726777856530145"><ele>212.42857142857144</ele><time>2026-04-17T15:19:12Z</time></trkpt><trkpt lat="45.76521585781798" lon="4.772619431488045"><ele>211.71428571428572</ele><time>2026-04-17T15:19:55Z</time></trkpt><trkpt lat="45.76528475078268" lon="4.77259695356164"><ele>211.0</ele><time>2026-04-17T15:19:58Z</time></trkpt><trkpt lat="45.765357143630666" lon="4.772582584157088"><ele>212.71428571428572</ele><time>2026-04-17T15:20:00Z</time></trkpt><trkpt lat="45.76541728086688" lon="4.772541728958451"><ele>214.42857142857144</ele><time>2026-04-17T15:20:02Z</time></trkpt><trkpt lat="45.765462015952885" lon="4.772448263066976"><ele>216.14285714285714</ele><time>2026-04-17T15:20:04Z</time></trkpt><trkpt lat="45.765497264108106" lon="4.7723458955397975"><ele>217.85714285714286</ele><time>2026-04-17T15:20:06Z</time></trkpt><trkpt lat="45.76550946550618" lon="4.772238189128325"><ele>219.57142857142856</ele><time>2026-04-17T15:20:08Z</time></trkpt><trkpt lat="45.76552362541112" lon="4.772132132722673"><ele>221.28571428571428</ele><time>2026-04-17T15:20:10Z</time></trkpt><trkpt lat="45.76553083057321" lon="4.772031041180582"><ele>223.0</ele><time>2026-04-17T15:20:12Z</time></trkpt><trkpt lat="45.76554953879468" lon="4.771930851746334"><ele>223.14285714285714</ele><time>2026-04-17T15:20:14Z</time></trkpt><trkpt lat="45.765563571869535" lon="4.7718348093666165"><ele>223.28571428571428</ele><time>2026-04-17T15:20:16Z</time></trkpt><trkpt lat="45.765570252030166" lon="4.7717429282797275"><ele>223.42857142857144</ele><time>2026-04-17T15:20:18Z</time></trkpt><trkpt lat="45.765579040431255" lon="4.771651067102218"><ele>223.57142857142856</ele><time>2026-04-17T15:20:20Z</time></trkpt><trkpt lat="45.76558957399445" lon="4.771512280743335"><ele>223.71428571428572</ele><time>2026-04-17T15:20:23Z</time></trkpt><trkpt lat="45.765602819277106" lon="4.771419190117851"><ele>223.85714285714286</ele><time>2026-04-17T15:20:25Z</time></trkpt><trkpt lat="45.76562224015197" lon="4.771320374091588"><ele>224.0</ele><time>2026-04-17T15:20:27Z</time></trkpt><trkpt lat="45.76564708103482" lon="4.771222340493021"><ele>224.0</ele><time>2026-04-17T15:20:29Z</time></trkpt><trkpt lat="45.76567372750848" lon="4.7711299701841785"><ele>224.0</ele><time>2026-04-17T15:20:31Z</time></trkpt><trkpt lat="45.76570788497837" lon="4.771050601091008"><ele>224.0</ele><time>2026-04-17T15:20:33Z</time></trkpt><trkpt lat="45.76573706363" lon="4.7709646132936046"><ele>224.0</ele><time>2026-04-17T15:20:35Z</time></trkpt><trkpt lat="45.76576958620754" lon="4.770860372319257"><ele>224.0</ele><time>2026-04-17T15:20:37Z</time></trkpt><trkpt lat="45.76578352839502" lon="4.770744609876115"><ele>224.0</ele><time>2026-04-17T15:20:39Z</time></trkpt><trkpt lat="45.76581945290706" lon="4.770636228197091"><ele>224.0</ele><time>2026-04-17T15:20:41Z</time></trkpt><trkpt lat="45.7658760895356" lon="4.7705316798886575"><ele>223.6</ele><time>2026-04-17T15:20:43Z</time></trkpt><trkpt lat="45.765937919107785" lon="4.77041807034855"><ele>223.2</ele><time>2026-04-17T15:20:45Z</time></trkpt><trkpt lat="45.76599498257498" lon="4.770299963451333"><ele>222.79999999999998</ele><time>2026-04-17T15:20:47Z</time></trkpt><trkpt lat="45.76605003304702" lon="4.770178376503984"><ele>222.39999999999998</ele><time>2026-04-17T15:20:49Z</time></trkpt><trkpt lat="45.76610966993263" lon="4.770054820640675"><ele>222.0</ele><time>2026-04-17T15:20:51Z</time></trkpt><trkpt lat="45.76616200087925" lon="4.7699320050962815"><ele>223.83333333333334</ele><time>2026-04-17T15:20:53Z</time></trkpt><trkpt lat="45.76621699240771" lon="4.769808950770851"><ele>225.66666666666669</ele><time>2026-04-17T15:20:55Z</time></trkpt><trkpt lat="45.76626915021971" lon="4.769696879879759"><ele>227.5</ele><time>2026-04-17T15:20:57Z</time></trkpt><trkpt lat="45.76632670622436" lon="4.769611206393625"><ele>229.33333333333334</ele><time>2026-04-17T15:20:59Z</time></trkpt><trkpt lat="45.76639727069394" lon="4.769568895215492"><ele>231.16666666666669</ele><time>2026-04-17T15:21:01Z</time></trkpt><trkpt lat="45.76646236903364" lon="4.769494646024417"><ele>233.0</ele><time>2026-04-17T15:21:04Z</time></trkpt><trkpt lat="45.76648194731346" lon="4.769402051231284"><ele>229.8</ele><time>2026-04-17T15:21:06Z</time></trkpt><trkpt lat="45.76647801256664" lon="4.769290827539352"><ele>226.60000000000002</ele><time>2026-04-17T15:21:08Z</time></trkpt><trkpt lat="45.76641136586567" lon="4.769177116127924"><ele>223.39999999999998</ele><time>2026-04-17T15:21:10Z</time></trkpt><trkpt lat="45.766349332125266" lon="4.769109361702564"><ele>220.2</ele><time>2026-04-17T15:21:12Z</time></trkpt><trkpt lat="45.766261496549966" lon="4.769038798078028"><ele>217.0</ele><time>2026-04-17T15:21:14Z</time></trkpt><trkpt lat="45.76618178814347" lon="4.768944312229949"><ele>217.0</ele><time>2026-04-17T15:21:16Z</time></trkpt><trkpt lat="45.76611014382775" lon="4.768823621797661"><ele>217.0</ele><time>2026-04-17T15:21:18Z</time></trkpt><trkpt lat="45.766032799375935" lon="4.768717538177784"><ele>217.0</ele><time>2026-04-17T15:21:20Z</time></trkpt><trkpt lat="45.76596144282338" lon="4.768599125553857"><ele>217.0</ele><time>2026-04-17T15:21:22Z</time></trkpt><trkpt lat="45.76588497301772" lon="4.768494333267113"><ele>217.0</ele><time>2026-04-17T15:21:24Z</time></trkpt><trkpt lat="45.765818518055994" lon="4.7683787895810505"><ele>216.39999999999998</ele><time>2026-04-17T15:21:26Z</time></trkpt><trkpt lat="45.765746048189364" lon="4.768275934309182"><ele>215.79999999999998</ele><time>2026-04-17T15:21:28Z</time></trkpt><trkpt lat="45.765671730738276" lon="4.768159161426016"><ele>215.2</ele><time>2026-04-17T15:21:30Z</time></trkpt><trkpt lat="45.76560532433612" lon="4.768049653808155"><ele>214.6</ele><time>2026-04-17T15:21:32Z</time></trkpt><trkpt lat="45.76553746088465" lon="4.767944398817414"><ele>214.0</ele><time>2026-04-17T15:21:34Z</time></trkpt><trkpt lat="45.76547084068766" lon="4.767836340357483"><ele>214.0</ele><time>2026-04-17T15:21:36Z</time></trkpt><trkpt lat="45.7654152651759" lon="4.76771943313296"><ele>213.99999999999997</ele><time>2026-04-17T15:21:38Z</time></trkpt><trkpt lat="45.765391104926515" lon="4.767580239888881"><ele>213.99999999999997</ele><time>2026-04-17T15:21:40Z</time></trkpt><trkpt lat="45.76538300903704" lon="4.767425883792278"><ele>214.0</ele><time>2026-04-17T15:21:42Z</time></trkpt><trkpt lat="45.76542475021408" lon="4.7673470676116825"><ele>214.0</ele><time>2026-04-17T15:21:43Z</time></trkpt><trkpt lat="45.765462027887985" lon="4.767204303381651"><ele>214.6</ele><time>2026-04-17T15:21:45Z</time></trkpt><trkpt lat="45.76550006119614" lon="4.767064426822406"><ele>215.2</ele><time>2026-04-17T15:21:47Z</time></trkpt><trkpt lat="45.76554142074308" lon="4.76691992448954"><ele>215.79999999999998</ele><time>2026-04-17T15:21:49Z</time></trkpt><trkpt lat="45.76557866334541" lon="4.766783904920994"><ele>216.39999999999998</ele><time>2026-04-17T15:21:51Z</time></trkpt><trkpt lat="45.76562062521923" lon="4.766644668648232"><ele>217.0</ele><time>2026-04-17T15:21:53Z</time></trkpt><trkpt lat="45.76565785198384" lon="4.766509165995542"><ele>217.8</ele><time>2026-04-17T15:21:55Z</time></trkpt><trkpt lat="45.765697889410355" lon="4.7663675357346955"><ele>218.6</ele><time>2026-04-17T15:21:57Z</time></trkpt><trkpt lat="45.76573275609893" lon="4.76622962212714"><ele>219.40000000000003</ele><time>2026-04-17T15:21:59Z</time></trkpt><trkpt lat="45.76577396259152" lon="4.76609585970532"><ele>220.20000000000002</ele><time>2026-04-17T15:22:01Z</time></trkpt><trkpt lat="45.76580668400677" lon="4.765973912516076"><ele>221.0</ele><time>2026-04-17T15:22:03Z</time></trkpt><trkpt lat="45.765836767305984" lon="4.765859912167188"><ele>220.71428571428572</ele><time>2026-04-17T15:22:05Z</time></trkpt><trkpt lat="45.765869454551215" lon="4.76575713805817"><ele>220.42857142857144</ele><time>2026-04-17T15:22:07Z</time></trkpt><trkpt lat="45.765898292385074" lon="4.765655022177194"><ele>220.14285714285717</ele><time>2026-04-17T15:22:09Z</time></trkpt><trkpt lat="45.76592729763423" lon="4.765556916780184"><ele>219.85714285714286</ele><time>2026-04-17T15:22:11Z</time></trkpt><trkpt lat="45.76595253668124" lon="4.765465360186561"><ele>219.57142857142856</ele><time>2026-04-17T15:22:13Z</time></trkpt><trkpt lat="45.76598203108821" lon="4.765371988300797"><ele>219.2857142857143</ele><time>2026-04-17T15:22:15Z</time></trkpt><trkpt lat="45.76601040564682" lon="4.765281670608346"><ele>219.0</ele><time>2026-04-17T15:22:17Z</time></trkpt><trkpt lat="45.76603725791853" lon="4.765188274476822"><ele>219.0</ele><time>2026-04-17T15:22:19Z</time></trkpt><trkpt lat="45.76606115622672" lon="4.765096427342388"><ele>219.0</ele><time>2026-04-17T15:22:21Z</time></trkpt><trkpt lat="45.766083827201825" lon="4.765007722891021"><ele>219.0</ele><time>2026-04-17T15:22:23Z</time></trkpt><trkpt lat="45.76611237518395" lon="4.764918394144686"><ele>219.0</ele><time>2026-04-17T15:22:25Z</time></trkpt><trkpt lat="45.76613611317753" lon="4.764821590948947"><ele>219.0</ele><time>2026-04-17T15:22:27Z</time></trkpt><trkpt lat="45.766162883306734" lon="4.764734790603845"><ele>219.0</ele><time>2026-04-17T15:22:29Z</time></trkpt><trkpt lat="45.766186789655066" lon="4.764646159438388"><ele>219.0</ele><time>2026-04-17T15:22:31Z</time></trkpt><trkpt lat="45.766220469009944" lon="4.764532669773658"><ele>219.0</ele><time>2026-04-17T15:22:34Z</time></trkpt><trkpt lat="45.7662633363931" lon="4.764420442508713"><ele>219.0</ele><time>2026-04-17T15:22:37Z</time></trkpt><trkpt lat="45.766286587507764" lon="4.764313158729973"><ele>219.0</ele><time>2026-04-17T15:22:40Z</time></trkpt><trkpt lat="45.766324826933406" lon="4.764191225685873"><ele>219.0</ele><time>2026-04-17T15:22:43Z</time></trkpt><trkpt lat="45.76636144188625" lon="4.764074206657169"><ele>219.0</ele><time>2026-04-17T15:22:46Z</time></trkpt><trkpt lat="45.766396297643155" lon="4.763961130797479"><ele>219.0</ele><time>2026-04-17T15:22:49Z</time></trkpt><trkpt lat="45.76643784232247" lon="4.763845517929551"><ele>219.83333333333334</ele><time>2026-04-17T15:22:52Z</time></trkpt><trkpt lat="45.76647808675058" lon="4.763731828770354"><ele>220.66666666666669</ele><time>2026-04-17T15:22:55Z</time></trkpt><trkpt lat="45.766523298073785" lon="4.763619339153676"><ele>221.5</ele><time>2026-04-17T15:22:58Z</time></trkpt><trkpt lat="45.76656534140329" lon="4.7635118819850675"><ele>222.33333333333334</ele><time>2026-04-17T15:23:01Z</time></trkpt><trkpt lat="45.76660236845127" lon="4.763411204447613"><ele>223.16666666666669</ele><time>2026-04-17T15:23:05Z</time></trkpt><trkpt lat="45.76664056174305" lon="4.763314366878592"><ele>224.0</ele><time>2026-04-17T15:23:08Z</time></trkpt><trkpt lat="45.76668194166801" lon="4.763224146830161"><ele>225.16666666666669</ele><time>2026-04-17T15:23:10Z</time></trkpt><trkpt lat="45.76671856934851" lon="4.763135817276017"><ele>226.33333333333334</ele><time>2026-04-17T15:23:13Z</time></trkpt><trkpt lat="45.76676225313842" lon="4.763040645365152"><ele>227.5</ele><time>2026-04-17T15:23:16Z</time></trkpt><trkpt lat="45.76680404362111" lon="4.762949891874026"><ele>228.66666666666669</ele><time>2026-04-17T15:23:19Z</time></trkpt><trkpt lat="45.76684560473609" lon="4.762858875198408"><ele>229.83333333333334</ele><time>2026-04-17T15:23:22Z</time></trkpt><trkpt lat="45.76689390397246" lon="4.762750704036974"><ele>231.0</ele><time>2026-04-17T15:23:25Z</time></trkpt><trkpt lat="45.76695205774349" lon="4.762651722975333"><ele>232.66666666666666</ele><time>2026-04-17T15:23:28Z</time></trkpt><trkpt lat="45.76700564937566" lon="4.76253928397085"><ele>234.33333333333331</ele><time>2026-04-17T15:23:31Z</time></trkpt><trkpt lat="45.76704609008656" lon="4.762469379373134"><ele>236.0</ele><time>2026-04-17T15:23:33Z</time></trkpt><trkpt lat="45.767101027511806" lon="4.762365863783468"><ele>237.66666666666666</ele><time>2026-04-17T15:23:36Z</time></trkpt><trkpt lat="45.76713719890538" lon="4.762291148656799"><ele>239.33333333333331</ele><time>2026-04-17T15:23:38Z</time></trkpt><trkpt lat="45.76718453593907" lon="4.762194170161067"><ele>241.0</ele><time>2026-04-17T15:23:41Z</time></trkpt><trkpt lat="45.76722680005722" lon="4.762111824697559"><ele>240.99999999999997</ele><time>2026-04-17T15:23:43Z</time></trkpt><trkpt lat="45.767263565697995" lon="4.762033786313169"><ele>241.0</ele><time>2026-04-17T15:23:45Z</time></trkpt><trkpt lat="45.76730307351226" lon="4.761951925175162"><ele>241.0</ele><time>2026-04-17T15:23:47Z</time></trkpt><trkpt lat="45.76734291665895" lon="4.761870236324577"><ele>241.0</ele><time>2026-04-17T15:23:49Z</time></trkpt><trkpt lat="45.76739914577204" lon="4.761773692978414"><ele>240.99999999999997</ele><time>2026-04-17T15:23:52Z</time></trkpt><trkpt lat="45.76744869919058" lon="4.761655434202719"><ele>241.0</ele><time>2026-04-17T15:23:55Z</time></trkpt><trkpt lat="45.767504297044255" lon="4.761542094743369"><ele>241.49999999999997</ele><time>2026-04-17T15:23:58Z</time></trkpt><trkpt lat="45.76755222555331" lon="4.761450641883255"><ele>242.0</ele><time>2026-04-17T15:24:00Z</time></trkpt><trkpt lat="45.76759793846693" lon="4.761356661620173"><ele>242.5</ele><time>2026-04-17T15:24:02Z</time></trkpt><trkpt lat="45.76764728446446" lon="4.761260825175251"><ele>243.0</ele><time>2026-04-17T15:24:04Z</time></trkpt><trkpt lat="45.7676948929186" lon="4.761163742315118"><ele>243.49999999999997</ele><time>2026-04-17T15:24:06Z</time></trkpt><trkpt lat="45.76774035519508" lon="4.7610815595242935"><ele>244.0</ele><time>2026-04-17T15:24:08Z</time></trkpt><trkpt lat="45.76779060122541" lon="4.760983924001911"><ele>244.16666666666666</ele><time>2026-04-17T15:24:10Z</time></trkpt><trkpt lat="45.76783722635881" lon="4.760891227217018"><ele>244.33333333333331</ele><time>2026-04-17T15:24:12Z</time></trkpt><trkpt lat="45.76788897525803" lon="4.760785040567087"><ele>244.5</ele><time>2026-04-17T15:24:14Z</time></trkpt><trkpt lat="45.76794272149438" lon="4.76068242593427"><ele>244.66666666666669</ele><time>2026-04-17T15:24:16Z</time></trkpt><trkpt lat="45.767997100408145" lon="4.760575350249931"><ele>244.83333333333334</ele><time>2026-04-17T15:24:18Z</time></trkpt><trkpt lat="45.768053676940504" lon="4.760468813947712"><ele>245.0</ele><time>2026-04-17T15:24:20Z</time></trkpt><trkpt lat="45.768105874661984" lon="4.760366780576101"><ele>245.0</ele><time>2026-04-17T15:24:22Z</time></trkpt><trkpt lat="45.76816246905482" lon="4.760252772643608"><ele>245.0</ele><time>2026-04-17T15:24:24Z</time></trkpt><trkpt lat="45.768218510477524" lon="4.760156435493173"><ele>245.0</ele><time>2026-04-17T15:24:26Z</time></trkpt><trkpt lat="45.76827513589942" lon="4.760040393506537"><ele>245.0</ele><time>2026-04-17T15:24:28Z</time></trkpt><trkpt lat="45.76833288433673" lon="4.759920396617322"><ele>245.0</ele><time>2026-04-17T15:24:30Z</time></trkpt><trkpt lat="45.768386225215515" lon="4.759820324492197"><ele>244.8</ele><time>2026-04-17T15:24:32Z</time></trkpt><trkpt lat="45.768440266308325" lon="4.759709016945766"><ele>244.6</ele><time>2026-04-17T15:24:34Z</time></trkpt><trkpt lat="45.768496158324766" lon="4.759596647028897"><ele>244.39999999999998</ele><time>2026-04-17T15:24:36Z</time></trkpt><trkpt lat="45.768553366782236" lon="4.759494795751632"><ele>244.2</ele><time>2026-04-17T15:24:38Z</time></trkpt><trkpt lat="45.76861359142223" lon="4.759372562228529"><ele>244.0</ele><time>2026-04-17T15:24:40Z</time></trkpt><trkpt lat="45.76866751570373" lon="4.759254022786381"><ele>244.6</ele><time>2026-04-17T15:24:42Z</time></trkpt><trkpt lat="45.76872814737212" lon="4.759128481671342"><ele>245.2</ele><time>2026-04-17T15:24:44Z</time></trkpt><trkpt lat="45.76878534500973" lon="4.7590057525117215"><ele>245.79999999999998</ele><time>2026-04-17T15:24:46Z</time></trkpt><trkpt lat="45.768847523860956" lon="4.758874900680918"><ele>246.39999999999998</ele><time>2026-04-17T15:24:48Z</time></trkpt><trkpt lat="45.76890859147418" lon="4.75874703242711"><ele>247.0</ele><time>2026-04-17T15:24:50Z</time></trkpt><trkpt lat="45.76896504797583" lon="4.758622760537277"><ele>247.0</ele><time>2026-04-17T15:24:52Z</time></trkpt><trkpt lat="45.7690245221075" lon="4.758508935238076"><ele>247.0</ele><time>2026-04-17T15:24:54Z</time></trkpt><trkpt lat="45.76907936542836" lon="4.758405037412781"><ele>247.0</ele><time>2026-04-17T15:24:56Z</time></trkpt><trkpt lat="45.76912789472727" lon="4.7583039561908915"><ele>247.0</ele><time>2026-04-17T15:24:58Z</time></trkpt><trkpt lat="45.76917837940642" lon="4.7582034193698695"><ele>247.0</ele><time>2026-04-17T15:25:00Z</time></trkpt><trkpt lat="45.76923174395133" lon="4.7580952789674695"><ele>246.99999999999997</ele><time>2026-04-17T15:25:02Z</time></trkpt><trkpt lat="45.76928262187394" lon="4.757987807232342"><ele>247.0</ele><time>2026-04-17T15:25:04Z</time></trkpt><trkpt lat="45.769328473450614" lon="4.757875806754237"><ele>247.0</ele><time>2026-04-17T15:25:06Z</time></trkpt><trkpt lat="45.76937893336044" lon="4.757773806168272"><ele>247.0</ele><time>2026-04-17T15:25:08Z</time></trkpt><trkpt lat="45.76942925333025" lon="4.757671642171177"><ele>246.99999999999997</ele><time>2026-04-17T15:25:10Z</time></trkpt><trkpt lat="45.76948107735866" lon="4.757568805820525"><ele>247.0</ele><time>2026-04-17T15:25:12Z</time></trkpt><trkpt lat="45.769531408447676" lon="4.757465747512807"><ele>247.49999999999997</ele><time>2026-04-17T15:25:14Z</time></trkpt><trkpt lat="45.76958131739677" lon="4.757374311801034"><ele>248.0</ele><time>2026-04-17T15:25:16Z</time></trkpt><trkpt lat="45.76962698877529" lon="4.757276477968607"><ele>248.5</ele><time>2026-04-17T15:25:18Z</time></trkpt><trkpt lat="45.769673355244194" lon="4.75718354535822"><ele>249.0</ele><time>2026-04-17T15:25:20Z</time></trkpt><trkpt lat="45.769718195576274" lon="4.757101359932309"><ele>249.49999999999997</ele><time>2026-04-17T15:25:22Z</time></trkpt><trkpt lat="45.76977036672333" lon="4.757020309096715"><ele>250.0</ele><time>2026-04-17T15:25:24Z</time></trkpt><trkpt lat="45.76982576738192" lon="4.756950178720076"><ele>249.99999999999997</ele><time>2026-04-17T15:25:26Z</time></trkpt><trkpt lat="45.76989764345889" lon="4.756876481654853"><ele>250.0</ele><time>2026-04-17T15:25:29Z</time></trkpt><trkpt lat="45.76995802816755" lon="4.756840336063547"><ele>250.0</ele><time>2026-04-17T15:25:31Z</time></trkpt><trkpt lat="45.770029941685436" lon="4.7568050121762555"><ele>250.0</ele><time>2026-04-17T15:25:33Z</time></trkpt><trkpt lat="45.770098391328375" lon="4.756763261885546"><ele>249.99999999999997</ele><time>2026-04-17T15:25:35Z</time></trkpt><trkpt lat="45.77014159450208" lon="4.756672663854307"><ele>250.0</ele><time>2026-04-17T15:25:37Z</time></trkpt><trkpt lat="45.77014071480579" lon="4.756561227428473"><ele>250.0</ele><time>2026-04-17T15:25:39Z</time></trkpt><trkpt lat="45.770112856784266" lon="4.756447766524598"><ele>250.0</ele><time>2026-04-17T15:25:41Z</time></trkpt><trkpt lat="45.77005253524486" lon="4.756349263987061"><ele>250.0</ele><time>2026-04-17T15:25:43Z</time></trkpt><trkpt lat="45.76996154123041" lon="4.756292997042085"><ele>250.0</ele><time>2026-04-17T15:25:45Z</time></trkpt><trkpt lat="45.76984700810085" lon="4.75628045836702"><ele>250.0</ele><time>2026-04-17T15:25:47Z</time></trkpt><trkpt lat="45.76973423327013" lon="4.756259191433718"><ele>249.99999999999997</ele><time>2026-04-17T15:25:49Z</time></trkpt><trkpt lat="45.76962604156017" lon="4.7561751837786765"><ele>250.0</ele><time>2026-04-17T15:25:51Z</time></trkpt><trkpt lat="45.76957403370313" lon="4.756116519478774"><ele>250.0</ele><time>2026-04-17T15:25:52Z</time></trkpt><trkpt lat="45.76952217593307" lon="4.756051545610885"><ele>250.0</ele><time>2026-04-17T15:25:53Z</time></trkpt><trkpt lat="45.76947325071149" lon="4.755969349684766"><ele>249.99999999999997</ele><time>2026-04-17T15:25:54Z</time></trkpt><trkpt lat="45.76942995276708" lon="4.7558826002569825"><ele>250.0</ele><time>2026-04-17T15:25:55Z</time></trkpt><trkpt lat="45.769389292202355" lon="4.755784965322872"><ele>249.99999999999997</ele><time>2026-04-17T15:25:56Z</time></trkpt><trkpt lat="45.7693523214307" lon="4.755681850838445"><ele>250.0</ele><time>2026-04-17T15:25:57Z</time></trkpt><trkpt lat="45.769318944009974" lon="4.7555757034403605"><ele>250.0</ele><time>2026-04-17T15:25:58Z</time></trkpt><trkpt lat="45.76928701981634" lon="4.755467434766658"><ele>250.0</ele><time>2026-04-17T15:25:59Z</time></trkpt><trkpt lat="45.76925273190684" lon="4.7553625096646766"><ele>249.99999999999997</ele><time>2026-04-17T15:26:00Z</time></trkpt><trkpt lat="45.76921900864256" lon="4.755252459580615"><ele>250.0</ele><time>2026-04-17T15:26:01Z</time></trkpt><trkpt lat="45.769187594014134" lon="4.755146614618841"><ele>249.99999999999997</ele><time>2026-04-17T15:26:02Z</time></trkpt><trkpt lat="45.76915015960808" lon="4.755043288378173"><ele>250.0</ele><time>2026-04-17T15:26:03Z</time></trkpt><trkpt lat="45.76911586786809" lon="4.754939091631155"><ele>250.0</ele><time>2026-04-17T15:26:04Z</time></trkpt><trkpt lat="45.76907963083787" lon="4.754834729858213"><ele>250.0</ele><time>2026-04-17T15:26:05Z</time></trkpt><trkpt lat="45.769040338427175" lon="4.75473524997328"><ele>249.99999999999997</ele><time>2026-04-17T15:26:06Z</time></trkpt><trkpt lat="45.76899915695259" lon="4.754645851591127"><ele>250.0</ele><time>2026-04-17T15:26:07Z</time></trkpt><trkpt lat="45.76894864638841" lon="4.754558598667255"><ele>249.99999999999997</ele><time>2026-04-17T15:26:08Z</time></trkpt><trkpt lat="45.768895704937854" lon="4.7544771459245085"><ele>250.0</ele><time>2026-04-17T15:26:09Z</time></trkpt><trkpt lat="45.76884260366855" lon="4.754399300110748"><ele>250.0</ele><time>2026-04-17T15:26:10Z</time></trkpt><trkpt lat="45.76878020555367" lon="4.754318929688235"><ele>250.0</ele><time>2026-04-17T15:26:11Z</time></trkpt><trkpt lat="45.76872100702546" lon="4.75424867091037"><ele>249.99999999999997</ele><time>2026-04-17T15:26:12Z</time></trkpt><trkpt lat="45.76865646167547" lon="4.754186101410837"><ele>250.0</ele><time>2026-04-17T15:26:13Z</time></trkpt><trkpt lat="45.76859114307683" lon="4.754125957881366"><ele>249.33333333333331</ele><time>2026-04-17T15:26:14Z</time></trkpt><trkpt lat="45.768524164889726" lon="4.7540676686291246"><ele>248.66666666666666</ele><time>2026-04-17T15:26:15Z</time></trkpt><trkpt lat="45.768450539497266" lon="4.754017493369432"><ele>248.0</ele><time>2026-04-17T15:26:16Z</time></trkpt><trkpt lat="45.768378310755445" lon="4.753968335589828"><ele>247.33333333333331</ele><time>2026-04-17T15:26:17Z</time></trkpt><trkpt lat="45.768308191974086" lon="4.753915411209304"><ele>246.66666666666666</ele><time>2026-04-17T15:26:18Z</time></trkpt><trkpt lat="45.76824185739639" lon="4.753856366513585"><ele>246.0</ele><time>2026-04-17T15:26:19Z</time></trkpt><trkpt lat="45.76817088814282" lon="4.7538056523327645"><ele>246.0</ele><time>2026-04-17T15:26:20Z</time></trkpt><trkpt lat="45.768104130814265" lon="4.753754697713445"><ele>246.0</ele><time>2026-04-17T15:26:21Z</time></trkpt><trkpt lat="45.768029909826645" lon="4.75369824830534"><ele>246.0</ele><time>2026-04-17T15:26:22Z</time></trkpt><trkpt lat="45.76795456189786" lon="4.753646397363364"><ele>246.0</ele><time>2026-04-17T15:26:23Z</time></trkpt><trkpt lat="45.76787952590936" lon="4.753589001303633"><ele>246.0</ele><time>2026-04-17T15:26:24Z</time></trkpt><trkpt lat="45.76780083684843" lon="4.753532733012171"><ele>246.0</ele><time>2026-04-17T15:26:25Z</time></trkpt><trkpt lat="45.76772274276648" lon="4.753472816382515"><ele>245.8</ele><time>2026-04-17T15:26:26Z</time></trkpt><trkpt lat="45.76764045212216" lon="4.7534086572507475"><ele>245.60000000000002</ele><time>2026-04-17T15:26:27Z</time></trkpt><trkpt lat="45.76755409913593" lon="4.753350414155072"><ele>245.4</ele><time>2026-04-17T15:26:28Z</time></trkpt><trkpt lat="45.76746747952515" lon="4.753287778113923"><ele>245.2</ele><time>2026-04-17T15:26:29Z</time></trkpt><trkpt lat="45.76737619611635" lon="4.753227596158565"><ele>245.0</ele><time>2026-04-17T15:26:30Z</time></trkpt><trkpt lat="45.767282854962545" lon="4.753169650936375"><ele>245.0</ele><time>2026-04-17T15:26:31Z</time></trkpt><trkpt lat="45.767191353365014" lon="4.7531095986712915"><ele>245.0</ele><time>2026-04-17T15:26:32Z</time></trkpt><trkpt lat="45.76709704189479" lon="4.753053217016429"><ele>245.0</ele><time>2026-04-17T15:26:33Z</time></trkpt><trkpt lat="45.767001153478574" lon="4.752997697584708"><ele>245.0</ele><time>2026-04-17T15:26:34Z</time></trkpt><trkpt lat="45.766906425393174" lon="4.752938164056874"><ele>245.0</ele><time>2026-04-17T15:26:35Z</time></trkpt><trkpt lat="45.766817253222484" lon="4.752874861239969"><ele>244.0</ele><time>2026-04-17T15:26:36Z</time></trkpt><trkpt lat="45.76673340254824" lon="4.752817684594254"><ele>243.0</ele><time>2026-04-17T15:26:37Z</time></trkpt><trkpt lat="45.766650314183906" lon="4.7527543826955"><ele>242.0</ele><time>2026-04-17T15:26:38Z</time></trkpt><trkpt lat="45.766568682025614" lon="4.752689559167301"><ele>241.0</ele><time>2026-04-17T15:26:39Z</time></trkpt><trkpt lat="45.76649214650828" lon="4.752627069004618"><ele>240.0</ele><time>2026-04-17T15:26:40Z</time></trkpt><trkpt lat="45.76642156537824" lon="4.752569111366037"><ele>239.71428571428572</ele><time>2026-04-17T15:26:41Z</time></trkpt><trkpt lat="45.76635687219359" lon="4.75250968037293"><ele>239.42857142857142</ele><time>2026-04-17T15:26:42Z</time></trkpt><trkpt lat="45.76629290512186" lon="4.752448935517561"><ele>239.14285714285714</ele><time>2026-04-17T15:26:43Z</time></trkpt><trkpt lat="45.76623028042911" lon="4.7523870401275685"><ele>238.85714285714286</ele><time>2026-04-17T15:26:44Z</time></trkpt><trkpt lat="45.766169867996375" lon="4.75232619611838"><ele>238.57142857142856</ele><time>2026-04-17T15:26:45Z</time></trkpt><trkpt lat="45.766112760634314" lon="4.752267249189752"><ele>238.28571428571428</ele><time>2026-04-17T15:26:46Z</time></trkpt><trkpt lat="45.76606172432246" lon="4.7522112642617955"><ele>238.0</ele><time>2026-04-17T15:26:47Z</time></trkpt><trkpt lat="45.76597680816413" lon="4.752115798421006"><ele>237.33333333333331</ele><time>2026-04-17T15:26:49Z</time></trkpt><trkpt lat="45.76592869052359" lon="4.752047747350904"><ele>236.66666666666666</ele><time>2026-04-17T15:26:51Z</time></trkpt><trkpt lat="45.76587850537808" lon="4.751975894617473"><ele>236.0</ele><time>2026-04-17T15:26:54Z</time></trkpt><trkpt lat="45.76582951084095" lon="4.751869551800563"><ele>235.33333333333331</ele><time>2026-04-17T15:27:11Z</time></trkpt><trkpt lat="45.76580891534041" lon="4.7517497430859175"><ele>234.66666666666666</ele><time>2026-04-17T15:27:14Z</time></trkpt><trkpt lat="45.76585612389088" lon="4.75162992305019"><ele>234.0</ele><time>2026-04-17T15:27:16Z</time></trkpt><trkpt lat="45.7658952252271" lon="4.75155577789061"><ele>232.75</ele><time>2026-04-17T15:27:18Z</time></trkpt><trkpt lat="45.76573879910533" lon="4.751506339853685"><ele>231.5</ele><time>2026-04-17T15:27:21Z</time></trkpt><trkpt lat="45.765671987535995" lon="4.751440871846673"><ele>230.25</ele><time>2026-04-17T15:27:24Z</time></trkpt><trkpt lat="45.7656013853584" lon="4.751397179721479"><ele>229.0</ele><time>2026-04-17T15:27:28Z</time></trkpt><trkpt lat="45.76562004508904" lon="4.751162118322208"><ele>229.0</ele><time>2026-04-17T15:27:30Z</time></trkpt><trkpt lat="45.765611564320764" lon="4.751040811050476"><ele>228.99999999999997</ele><time>2026-04-17T15:27:32Z</time></trkpt><trkpt lat="45.76559724781094" lon="4.75093044008927"><ele>228.99999999999997</ele><time>2026-04-17T15:27:34Z</time></trkpt><trkpt lat="45.76561213523427" lon="4.750806085636515"><ele>229.0</ele><time>2026-04-17T15:27:36Z</time></trkpt><trkpt lat="45.76561016053414" lon="4.750665127922865"><ele>229.0</ele><time>2026-04-17T15:27:38Z</time></trkpt><trkpt lat="45.76561452071927" lon="4.750513951154041"><ele>227.6</ele><time>2026-04-17T15:27:40Z</time></trkpt><trkpt lat="45.76560777760806" lon="4.750338329964516"><ele>226.2</ele><time>2026-04-17T15:27:42Z</time></trkpt><trkpt lat="45.76560466293004" lon="4.750246692534833"><ele>224.79999999999998</ele><time>2026-04-17T15:27:43Z</time></trkpt><trkpt lat="45.76560179969434" lon="4.750062695518474"><ele>223.39999999999998</ele><time>2026-04-17T15:27:45Z</time></trkpt><trkpt lat="45.76560330547604" lon="4.749966321756613"><ele>222.0</ele><time>2026-04-17T15:27:46Z</time></trkpt><trkpt lat="45.76559792084859" lon="4.749870273938425"><ele>222.0</ele><time>2026-04-17T15:27:47Z</time></trkpt><trkpt lat="45.76559067504695" lon="4.749770643995823"><ele>222.0</ele><time>2026-04-17T15:27:48Z</time></trkpt><trkpt lat="45.76558617627911" lon="4.74967892129639"><ele>222.0</ele><time>2026-04-17T15:27:49Z</time></trkpt><trkpt lat="45.765589444976854" lon="4.749491529065334"><ele>222.0</ele><time>2026-04-17T15:27:51Z</time></trkpt><trkpt lat="45.76558704213213" lon="4.749398363083901"><ele>222.0</ele><time>2026-04-17T15:27:52Z</time></trkpt><trkpt lat="45.7655798748584" lon="4.7492985774094105"><ele>222.0</ele><time>2026-04-17T15:27:53Z</time></trkpt><trkpt lat="45.76558228627472" lon="4.749203379522965"><ele>222.0</ele><time>2026-04-17T15:27:54Z</time></trkpt><trkpt lat="45.76558833448966" lon="4.749100572886093"><ele>222.0</ele><time>2026-04-17T15:27:55Z</time></trkpt><trkpt lat="45.76558949968022" lon="4.749002219789337"><ele>222.0</ele><time>2026-04-17T15:27:56Z</time></trkpt><trkpt lat="45.76558622295026" lon="4.748904306271179"><ele>222.0</ele><time>2026-04-17T15:27:57Z</time></trkpt><trkpt lat="45.76557972669056" lon="4.748806216285276"><ele>222.0</ele><time>2026-04-17T15:27:58Z</time></trkpt><trkpt lat="45.76558236470816" lon="4.748712440448481"><ele>222.0</ele><time>2026-04-17T15:27:59Z</time></trkpt><trkpt lat="45.76558090105249" lon="4.748617132063456"><ele>222.0</ele><time>2026-04-17T15:28:00Z</time></trkpt><trkpt lat="45.765584122668145" lon="4.7485240925654875"><ele>222.0</ele><time>2026-04-17T15:28:01Z</time></trkpt><trkpt lat="45.7655694976294" lon="4.7484352850005855"><ele>222.0</ele><time>2026-04-17T15:28:02Z</time></trkpt><trkpt lat="45.76556824407898" lon="4.748264097415861"><ele>222.0</ele><time>2026-04-17T15:28:04Z</time></trkpt><trkpt lat="45.76556824407702" lon="4.748102865400802"><ele>222.0</ele><time>2026-04-17T15:28:06Z</time></trkpt><trkpt lat="45.765573422438266" lon="4.747949149845673"><ele>222.0</ele><time>2026-04-17T15:28:08Z</time></trkpt><trkpt lat="45.76559859774807" lon="4.747805381392851"><ele>222.0</ele><time>2026-04-17T15:28:10Z</time></trkpt><trkpt lat="45.76563210584629" lon="4.747725039305403"><ele>222.0</ele><time>2026-04-17T15:28:12Z</time></trkpt><trkpt lat="45.76565931826746" lon="4.747614160399345"><ele>222.0</ele><time>2026-04-17T15:28:16Z</time></trkpt><trkpt lat="45.76567430102274" lon="4.747523367015303"><ele>222.0</ele><time>2026-04-17T15:28:18Z</time></trkpt><trkpt lat="45.765728819406135" lon="4.747435705415402"><ele>222.0</ele><time>2026-04-17T15:28:22Z</time></trkpt><trkpt lat="45.765763598538975" lon="4.747319632191558"><ele>222.0</ele><time>2026-04-17T15:28:25Z</time></trkpt><trkpt lat="45.76569893681554" lon="4.747313062567453"><ele>222.0</ele><time>2026-04-17T15:28:26Z</time></trkpt><trkpt lat="45.7657171556758" lon="4.747115325799464"><ele>222.66666666666666</ele><time>2026-04-17T15:28:31Z</time></trkpt><trkpt lat="45.76576572064225" lon="4.7470437998612915"><ele>223.33333333333331</ele><time>2026-04-17T15:28:33Z</time></trkpt><trkpt lat="45.7657942570024" lon="4.746923996182997"><ele>224.0</ele><time>2026-04-17T15:28:36Z</time></trkpt><trkpt lat="45.76583847124865" lon="4.746823588297822"><ele>224.66666666666666</ele><time>2026-04-17T15:28:39Z</time></trkpt><trkpt lat="45.765883710557496" lon="4.746730856259564"><ele>225.33333333333331</ele><time>2026-04-17T15:28:42Z</time></trkpt><trkpt lat="45.7659338220758" lon="4.746639240290141"><ele>226.0</ele><time>2026-04-17T15:28:45Z</time></trkpt><trkpt lat="45.76597742279736" lon="4.7465679834007695"><ele>227.33333333333331</ele><time>2026-04-17T15:28:48Z</time></trkpt><trkpt lat="45.766023862727494" lon="4.746496643960066"><ele>228.66666666666666</ele><time>2026-04-17T15:28:51Z</time></trkpt><trkpt lat="45.766080484504485" lon="4.746417060901265"><ele>230.0</ele><time>2026-04-17T15:28:54Z</time></trkpt><trkpt lat="45.766140365533104" lon="4.746342056714959"><ele>231.33333333333331</ele><time>2026-04-17T15:28:57Z</time></trkpt><trkpt lat="45.766219042548435" lon="4.746293859496501"><ele>232.66666666666666</ele><time>2026-04-17T15:29:00Z</time></trkpt><trkpt lat="45.766279663634" lon="4.746238292369436"><ele>234.0</ele><time>2026-04-17T15:29:03Z</time></trkpt><trkpt lat="45.76633462595334" lon="4.74617207840608"><ele>234.0</ele><time>2026-04-17T15:29:07Z</time></trkpt><trkpt lat="45.7663771147099" lon="4.746105305625448"><ele>234.0</ele><time>2026-04-17T15:29:09Z</time></trkpt><trkpt lat="45.76644627372951" lon="4.746076413029425"><ele>234.0</ele><time>2026-04-17T15:29:12Z</time></trkpt><trkpt lat="45.76652526836221" lon="4.7460177790844345"><ele>234.0</ele><time>2026-04-17T15:29:15Z</time></trkpt><trkpt lat="45.766611545299355" lon="4.7459715883395965"><ele>234.0</ele><time>2026-04-17T15:29:18Z</time></trkpt><trkpt lat="45.766667066965205" lon="4.745920324202171"><ele>234.0</ele><time>2026-04-17T15:29:20Z</time></trkpt><trkpt lat="45.7667517611673" lon="4.745878042757494"><ele>236.0</ele><time>2026-04-17T15:29:23Z</time></trkpt><trkpt lat="45.7668372525183" lon="4.745849118930725"><ele>238.0</ele><time>2026-04-17T15:29:26Z</time></trkpt><trkpt lat="45.76690093224579" lon="4.745856092114342"><ele>240.0</ele><time>2026-04-17T15:29:28Z</time></trkpt><trkpt lat="45.766985116750824" lon="4.745790825301413"><ele>242.0</ele><time>2026-04-17T15:29:31Z</time></trkpt><trkpt lat="45.76706094651893" lon="4.745813898083917"><ele>244.0</ele><time>2026-04-17T15:29:35Z</time></trkpt><trkpt lat="45.76712525131916" lon="4.7457754492868816"><ele>246.0</ele><time>2026-04-17T15:29:38Z</time></trkpt><trkpt lat="45.767186107188124" lon="4.745749528564028"><ele>246.5</ele><time>2026-04-17T15:29:41Z</time></trkpt><trkpt lat="45.767261943074594" lon="4.745718223364496"><ele>247.0</ele><time>2026-04-17T15:29:45Z</time></trkpt><trkpt lat="45.76733187953927" lon="4.7456840370973215"><ele>247.5</ele><time>2026-04-17T15:29:48Z</time></trkpt><trkpt lat="45.767396145103845" lon="4.745663557087423"><ele>248.0</ele><time>2026-04-17T15:29:51Z</time></trkpt><trkpt lat="45.76746611853246" lon="4.745633151863298"><ele>248.5</ele><time>2026-04-17T15:29:54Z</time></trkpt><trkpt lat="45.767558170670064" lon="4.7456041535829305"><ele>249.0</ele><time>2026-04-17T15:29:58Z</time></trkpt><trkpt lat="45.767635431502875" lon="4.745559824793559"><ele>249.14285714285714</ele><time>2026-04-17T15:30:01Z</time></trkpt><trkpt lat="45.76771841086457" lon="4.74553231846099"><ele>249.28571428571428</ele><time>2026-04-17T15:30:04Z</time></trkpt><trkpt lat="45.76778832881892" lon="4.745504205185845"><ele>249.42857142857142</ele><time>2026-04-17T15:30:07Z</time></trkpt><trkpt lat="45.76785394299766" lon="4.745478931013576"><ele>249.57142857142856</ele><time>2026-04-17T15:30:09Z</time></trkpt><trkpt lat="45.76792567058293" lon="4.74544564763273"><ele>249.71428571428572</ele><time>2026-04-17T15:30:11Z</time></trkpt><trkpt lat="45.76800231938439" lon="4.745415254776444"><ele>249.85714285714283</ele><time>2026-04-17T15:30:14Z</time></trkpt><trkpt lat="45.76804811292722" lon="4.745352208591776"><ele>250.0</ele><time>2026-04-17T15:31:33Z</time></trkpt><trkpt lat="45.7681153799209" lon="4.745308882337043"><ele>249.99999999999997</ele><time>2026-04-17T15:31:37Z</time></trkpt><trkpt lat="45.768193360331935" lon="4.74525515473367"><ele>250.0</ele><time>2026-04-17T15:31:41Z</time></trkpt><trkpt lat="45.76825365145931" lon="4.745203484502225"><ele>250.0</ele><time>2026-04-17T15:31:43Z</time></trkpt><trkpt lat="45.76833093276878" lon="4.7451312876012866"><ele>250.0</ele><time>2026-04-17T15:31:46Z</time></trkpt><trkpt lat="45.768404997533025" lon="4.745051119351578"><ele>249.99999999999997</ele><time>2026-04-17T15:31:49Z</time></trkpt><trkpt lat="45.76845120727894" lon="4.744986536106874"><ele>250.0</ele><time>2026-04-17T15:31:51Z</time></trkpt><trkpt lat="45.76850225909103" lon="4.744919545518617"><ele>250.71428571428572</ele><time>2026-04-17T15:31:52.999Z</time></trkpt><trkpt lat="45.7685514357684" lon="4.744849604254989"><ele>251.42857142857144</ele><time>2026-04-17T15:31:54.999Z</time></trkpt><trkpt lat="45.76859383786501" lon="4.744773959743138"><ele>252.14285714285717</ele><time>2026-04-17T15:31:56.999Z</time></trkpt><trkpt lat="45.76864437229097" lon="4.744702080562837"><ele>252.85714285714286</ele><time>2026-04-17T15:31:59Z</time></trkpt><trkpt lat="45.76868303499642" lon="4.744614598717916"><ele>253.5714285714286</ele><time>2026-04-17T15:32:01Z</time></trkpt><trkpt lat="45.76872169280252" lon="4.7445403388569565"><ele>254.2857142857143</ele><time>2026-04-17T15:32:03Z</time></trkpt><trkpt lat="45.76876300372515" lon="4.744466572287492"><ele>255.0</ele><time>2026-04-17T15:32:05Z</time></trkpt><trkpt lat="45.76880072999477" lon="4.744384588758092"><ele>256.0</ele><time>2026-04-17T15:32:07Z</time></trkpt><trkpt lat="45.768837036273126" lon="4.7442979139125345"><ele>257.0</ele><time>2026-04-17T15:32:09Z</time></trkpt><trkpt lat="45.76887606009113" lon="4.744219006364789"><ele>258.0</ele><time>2026-04-17T15:32:11Z</time></trkpt><trkpt lat="45.768909471170396" lon="4.744138080588213"><ele>259.0</ele><time>2026-04-17T15:32:13Z</time></trkpt><trkpt lat="45.76895923193001" lon="4.744032472774465"><ele>260.0</ele><time>2026-04-17T15:32:16Z</time></trkpt><trkpt lat="45.768992618297816" lon="4.743954639292167"><ele>261.0</ele><time>2026-04-17T15:32:18Z</time></trkpt><trkpt lat="45.769034010437906" lon="4.743874274099205"><ele>262.0</ele><time>2026-04-17T15:32:20Z</time></trkpt><trkpt lat="45.76907516373184" lon="4.743802925193338"><ele>262.0</ele><time>2026-04-17T15:32:22Z</time></trkpt><trkpt lat="45.76912646434479" lon="4.743692873380861"><ele>262.0</ele><time>2026-04-17T15:32:25Z</time></trkpt><trkpt lat="45.769176638843525" lon="4.743594591562021"><ele>262.0</ele><time>2026-04-17T15:32:28Z</time></trkpt><trkpt lat="45.769223876918275" lon="4.743477599788316"><ele>262.0</ele><time>2026-04-17T15:32:31Z</time></trkpt><trkpt lat="45.769259724129604" lon="4.743402735324686"><ele>262.0</ele><time>2026-04-17T15:32:33Z</time></trkpt><trkpt lat="45.76929525126641" lon="4.743321445142801"><ele>262.0</ele><time>2026-04-17T15:32:36Z</time></trkpt><trkpt lat="45.76933757582988" lon="4.743238172841148"><ele>262.42857142857144</ele><time>2026-04-17T15:32:40Z</time></trkpt><trkpt lat="45.76935388968776" lon="4.74313010150217"><ele>262.8571428571429</ele><time>2026-04-17T15:35:04Z</time></trkpt><trkpt lat="45.76938562756107" lon="4.743049035558525"><ele>263.2857142857143</ele><time>2026-04-17T15:35:07Z</time></trkpt><trkpt lat="45.769428111528434" lon="4.742968418837549"><ele>263.7142857142857</ele><time>2026-04-17T15:35:10Z</time></trkpt><trkpt lat="45.769476642543225" lon="4.742887937561238"><ele>264.1428571428571</ele><time>2026-04-17T15:35:13Z</time></trkpt><trkpt lat="45.76951189352732" lon="4.74280886124967"><ele>264.57142857142856</ele><time>2026-04-17T15:35:16Z</time></trkpt><trkpt lat="45.76956454613318" lon="4.742718660160872"><ele>265.0</ele><time>2026-04-17T15:35:19Z</time></trkpt><trkpt lat="45.769620074267664" lon="4.742629744612109"><ele>265.85714285714283</ele><time>2026-04-17T15:35:22Z</time></trkpt><trkpt lat="45.76967626732723" lon="4.742548748015621"><ele>266.7142857142857</ele><time>2026-04-17T15:35:25Z</time></trkpt><trkpt lat="45.76971961609741" lon="4.742480261255713"><ele>267.57142857142856</ele><time>2026-04-17T15:35:27Z</time></trkpt><trkpt lat="45.76976855816287" lon="4.742409224942496"><ele>268.42857142857144</ele><time>2026-04-17T15:35:29Z</time></trkpt><trkpt lat="45.769818208509676" lon="4.7423382731193"><ele>269.2857142857143</ele><time>2026-04-17T15:35:31Z</time></trkpt><trkpt lat="45.769871955023426" lon="4.742269258158894"><ele>270.1428571428571</ele><time>2026-04-17T15:35:33Z</time></trkpt><trkpt lat="45.7699220701718" lon="4.742193685043744"><ele>271.0</ele><time>2026-04-17T15:35:35Z</time></trkpt><trkpt lat="45.76997537788551" lon="4.7421240463279295"><ele>271.0</ele><time>2026-04-17T15:35:37Z</time></trkpt><trkpt lat="45.77002568905442" lon="4.74205519552569"><ele>271.0</ele><time>2026-04-17T15:35:39Z</time></trkpt><trkpt lat="45.770077758452516" lon="4.741981083530367"><ele>271.0</ele><time>2026-04-17T15:35:40.999Z</time></trkpt><trkpt lat="45.770127350723676" lon="4.741915119265485"><ele>271.0</ele><time>2026-04-17T15:35:42.999Z</time></trkpt><trkpt lat="45.770173334543784" lon="4.741846305986279"><ele>271.0</ele><time>2026-04-17T15:35:44.999Z</time></trkpt><trkpt lat="45.77022196765848" lon="4.741787995090306"><ele>271.0</ele><time>2026-04-17T15:35:46.999Z</time></trkpt><trkpt lat="45.7702752266235" lon="4.741720428165709"><ele>271.0</ele><time>2026-04-17T15:35:48.999Z</time></trkpt><trkpt lat="45.77032295145225" lon="4.741651799229093"><ele>271.0</ele><time>2026-04-17T15:35:50.999Z</time></trkpt><trkpt lat="45.770380541128254" lon="4.741580565818586"><ele>271.0</ele><time>2026-04-17T15:35:52.999Z</time></trkpt><trkpt lat="45.77042769771068" lon="4.741502191137737"><ele>271.0</ele><time>2026-04-17T15:35:54.999Z</time></trkpt><trkpt lat="45.770482377377625" lon="4.741435569068013"><ele>271.0</ele><time>2026-04-17T15:35:56.999Z</time></trkpt><trkpt lat="45.77052914348758" lon="4.741374287167304"><ele>271.0</ele><time>2026-04-17T15:35:58.999Z</time></trkpt><trkpt lat="45.77057608239919" lon="4.741299265704471"><ele>271.0</ele><time>2026-04-17T15:36:00.999Z</time></trkpt><trkpt lat="45.77063024424419" lon="4.741233244154583"><ele>271.0</ele><time>2026-04-17T15:36:02.999Z</time></trkpt><trkpt lat="45.77068857631517" lon="4.741169677173888"><ele>271.0</ele><time>2026-04-17T15:36:04.999Z</time></trkpt><trkpt lat="45.77076419667718" lon="4.7410809949261274"><ele>271.0</ele><time>2026-04-17T15:36:07.999Z</time></trkpt><trkpt lat="45.77081837586416" lon="4.741010419362083"><ele>271.0</ele><time>2026-04-17T15:36:10Z</time></trkpt><trkpt lat="45.77085424275699" lon="4.740908647189528"><ele>271.0</ele><time>2026-04-17T15:36:12Z</time></trkpt><trkpt lat="45.77091452342434" lon="4.740834278878697"><ele>271.0</ele><time>2026-04-17T15:36:14Z</time></trkpt><trkpt lat="45.77096671579414" lon="4.74075388896595"><ele>271.0</ele><time>2026-04-17T15:36:16Z</time></trkpt><trkpt lat="45.77103199397021" lon="4.740671634341682"><ele>270.66666666666663</ele><time>2026-04-17T15:36:18Z</time></trkpt><trkpt lat="45.771105214904956" lon="4.740577499112488"><ele>270.3333333333333</ele><time>2026-04-17T15:36:20Z</time></trkpt><trkpt lat="45.771163356592425" lon="4.740496297814624"><ele>270.0</ele><time>2026-04-17T15:36:22Z</time></trkpt><trkpt lat="45.771218294481734" lon="4.740398482724448"><ele>269.6666666666667</ele><time>2026-04-17T15:36:24Z</time></trkpt><trkpt lat="45.771277473086485" lon="4.74033158608091"><ele>269.33333333333337</ele><time>2026-04-17T15:36:26Z</time></trkpt><trkpt lat="45.771340003358524" lon="4.740257166846262"><ele>269.0</ele><time>2026-04-17T15:36:28Z</time></trkpt><trkpt lat="45.77140546463987" lon="4.7401785886642935"><ele>269.0</ele><time>2026-04-17T15:36:30Z</time></trkpt><trkpt lat="45.77146784387048" lon="4.740088000984573"><ele>269.0</ele><time>2026-04-17T15:36:32Z</time></trkpt><trkpt lat="45.771534068473464" lon="4.740017380347375"><ele>269.0</ele><time>2026-04-17T15:36:34Z</time></trkpt><trkpt lat="45.77158680596313" lon="4.739941657321457"><ele>269.0</ele><time>2026-04-17T15:36:36Z</time></trkpt><trkpt lat="45.771644187930406" lon="4.739861773316167"><ele>269.0</ele><time>2026-04-17T15:36:38Z</time></trkpt><trkpt lat="45.77170418825039" lon="4.739775781096437"><ele>269.0</ele><time>2026-04-17T15:36:40Z</time></trkpt><trkpt lat="45.771763975978686" lon="4.739717637065828"><ele>269.0</ele><time>2026-04-17T15:36:42Z</time></trkpt><trkpt lat="45.771816529438965" lon="4.739647738330592"><ele>269.0</ele><time>2026-04-17T15:36:44Z</time></trkpt><trkpt lat="45.77187569225368" lon="4.739562249398215"><ele>269.0</ele><time>2026-04-17T15:36:46Z</time></trkpt><trkpt lat="45.771940256738596" lon="4.739455351483771"><ele>269.0</ele><time>2026-04-17T15:36:48Z</time></trkpt><trkpt lat="45.77202086583665" lon="4.739356808533441"><ele>269.0</ele><time>2026-04-17T15:36:50Z</time></trkpt><trkpt lat="45.7721014087416" lon="4.739254973215403"><ele>269.2</ele><time>2026-04-17T15:36:52Z</time></trkpt><trkpt lat="45.77218482471686" lon="4.73914188605761"><ele>269.4</ele><time>2026-04-17T15:36:54Z</time></trkpt><trkpt lat="45.77227100177983" lon="4.739030899188779"><ele>269.6</ele><time>2026-04-17T15:36:56Z</time></trkpt><trkpt lat="45.77232018024029" lon="4.738972460999976"><ele>269.8</ele><time>2026-04-17T15:36:57Z</time></trkpt><trkpt lat="45.772402458851055" lon="4.7388603596338355"><ele>270.0</ele><time>2026-04-17T15:36:59Z</time></trkpt><trkpt lat="45.77245153563545" lon="4.7388023908278525"><ele>270.0</ele><time>2026-04-17T15:37:00Z</time></trkpt><trkpt lat="45.772498569927436" lon="4.738740207523293"><ele>270.0</ele><time>2026-04-17T15:37:01Z</time></trkpt><trkpt lat="45.77254481421915" lon="4.738672923549877"><ele>270.0</ele><time>2026-04-17T15:37:01.999Z</time></trkpt><trkpt lat="45.77259551056918" lon="4.738616278519023"><ele>270.0</ele><time>2026-04-17T15:37:02.999Z</time></trkpt><trkpt lat="45.77264604543592" lon="4.73855768519283"><ele>270.0</ele><time>2026-04-17T15:37:03.999Z</time></trkpt><trkpt lat="45.772697135789535" lon="4.738498741874857"><ele>270.0</ele><time>2026-04-17T15:37:04.999Z</time></trkpt><trkpt lat="45.77275142900229" lon="4.73844163304339"><ele>270.0</ele><time>2026-04-17T15:37:05.999Z</time></trkpt><trkpt lat="45.77280590806027" lon="4.738383643167678"><ele>269.8333333333333</ele><time>2026-04-17T15:37:06.999Z</time></trkpt><trkpt lat="45.772859051693864" lon="4.73832847639062"><ele>269.6666666666667</ele><time>2026-04-17T15:37:07.999Z</time></trkpt><trkpt lat="45.77295872026328" lon="4.738213564312701"><ele>269.5</ele><time>2026-04-17T15:37:09.999Z</time></trkpt><trkpt lat="45.77301471979727" lon="4.738152603651878"><ele>269.33333333333337</ele><time>2026-04-17T15:37:10.999Z</time></trkpt><trkpt lat="45.773069126415095" lon="4.738091210895002"><ele>269.1666666666667</ele><time>2026-04-17T15:37:11.999Z</time></trkpt><trkpt lat="45.77312328854606" lon="4.738033392108908"><ele>269.0</ele><time>2026-04-17T15:37:12.999Z</time></trkpt><trkpt lat="45.773177110308396" lon="4.737977880310032"><ele>269.0</ele><time>2026-04-17T15:37:13.999Z</time></trkpt><trkpt lat="45.77322975704784" lon="4.737920066673231"><ele>269.0</ele><time>2026-04-17T15:37:14.999Z</time></trkpt><trkpt lat="45.773280508833864" lon="4.737861689882565"><ele>269.0</ele><time>2026-04-17T15:37:15.999Z</time></trkpt><trkpt lat="45.77333233462258" lon="4.737808005148328"><ele>269.0</ele><time>2026-04-17T15:37:16.999Z</time></trkpt><trkpt lat="45.773385279351814" lon="4.73775310272311"><ele>269.0</ele><time>2026-04-17T15:37:17.999Z</time></trkpt><trkpt lat="45.77348270103472" lon="4.737639309849409"><ele>269.0</ele><time>2026-04-17T15:37:19.999Z</time></trkpt><trkpt lat="45.77353533855063" lon="4.737583165367739"><ele>269.14285714285717</ele><time>2026-04-17T15:37:20.999Z</time></trkpt><trkpt lat="45.77358636135062" lon="4.737524644874974"><ele>269.28571428571433</ele><time>2026-04-17T15:37:21.999Z</time></trkpt><trkpt lat="45.773639721225926" lon="4.73747038180287"><ele>269.42857142857144</ele><time>2026-04-17T15:37:22.999Z</time></trkpt><trkpt lat="45.773693636242854" lon="4.737415882712823"><ele>269.57142857142856</ele><time>2026-04-17T15:37:23.999Z</time></trkpt><trkpt lat="45.77374598769714" lon="4.737362439240206"><ele>269.71428571428567</ele><time>2026-04-17T15:37:24.999Z</time></trkpt><trkpt lat="45.77379900847911" lon="4.737306770286928"><ele>269.85714285714283</ele><time>2026-04-17T15:37:25.999Z</time></trkpt><trkpt lat="45.773852632816535" lon="4.737256492796607"><ele>270.0</ele><time>2026-04-17T15:37:26.999Z</time></trkpt><trkpt lat="45.77390594048703" lon="4.737196587961451"><ele>270.0</ele><time>2026-04-17T15:37:27.999Z</time></trkpt><trkpt lat="45.77395580598831" lon="4.73713659454422"><ele>270.0</ele><time>2026-04-17T15:37:28.999Z</time></trkpt><trkpt lat="45.77400930599831" lon="4.737083644242376"><ele>270.0</ele><time>2026-04-17T15:37:29.999Z</time></trkpt><trkpt lat="45.774111147908016" lon="4.736976465734563"><ele>270.0</ele><time>2026-04-17T15:37:31.999Z</time></trkpt><trkpt lat="45.774162345842534" lon="4.73692289855186"><ele>270.0</ele><time>2026-04-17T15:37:32.999Z</time></trkpt><trkpt lat="45.77421176735597" lon="4.736866730456117"><ele>270.0</ele><time>2026-04-17T15:37:33.999Z</time></trkpt><trkpt lat="45.774301367912116" lon="4.736761768193725"><ele>269.75</ele><time>2026-04-17T15:37:35.999Z</time></trkpt><trkpt lat="45.77438605506233" lon="4.736648800671523"><ele>269.5</ele><time>2026-04-17T15:37:37.999Z</time></trkpt><trkpt lat="45.774465481345764" lon="4.736525536023351"><ele>269.25</ele><time>2026-04-17T15:37:39.999Z</time></trkpt><trkpt lat="45.774543808618894" lon="4.736401336991488"><ele>269.0</ele><time>2026-04-17T15:37:41.999Z</time></trkpt><trkpt lat="45.77462696185547" lon="4.736263972096928"><ele>269.0</ele><time>2026-04-17T15:37:43.999Z</time></trkpt><trkpt lat="45.7746679549901" lon="4.736188532853283"><ele>269.0</ele><time>2026-04-17T15:37:44.999Z</time></trkpt><trkpt lat="45.77471292581685" lon="4.736113515834758"><ele>269.0</ele><time>2026-04-17T15:37:45.999Z</time></trkpt><trkpt lat="45.77475412603803" lon="4.73603624235491"><ele>269.0</ele><time>2026-04-17T15:37:46.999Z</time></trkpt><trkpt lat="45.77479625759978" lon="4.735958031329296"><ele>269.0</ele><time>2026-04-17T15:37:47.999Z</time></trkpt><trkpt lat="45.77483845232878" lon="4.735887259328982"><ele>269.0</ele><time>2026-04-17T15:37:48.999Z</time></trkpt><trkpt lat="45.77487793884922" lon="4.735815214609167"><ele>269.0</ele><time>2026-04-17T15:37:49.999Z</time></trkpt><trkpt lat="45.7749216920709" lon="4.735745925810193"><ele>269.0</ele><time>2026-04-17T15:37:50.999Z</time></trkpt><trkpt lat="45.77496446498972" lon="4.735672389131087"><ele>269.0</ele><time>2026-04-17T15:37:51.999Z</time></trkpt><trkpt lat="45.775009056183926" lon="4.73559854761094"><ele>269.0</ele><time>2026-04-17T15:37:52.999Z</time></trkpt><trkpt lat="45.77505475633413" lon="4.735521329773825"><ele>269.0</ele><time>2026-04-17T15:37:53.999Z</time></trkpt><trkpt lat="45.775096899092205" lon="4.735444703271329"><ele>269.0</ele><time>2026-04-17T15:37:54.999Z</time></trkpt><trkpt lat="45.7751406564238" lon="4.735368140226025"><ele>269.0</ele><time>2026-04-17T15:37:55.999Z</time></trkpt><trkpt lat="45.77518345339886" lon="4.73529133542602"><ele>269.0</ele><time>2026-04-17T15:37:56.999Z</time></trkpt><trkpt lat="45.77522733095729" lon="4.735221946130776"><ele>269.0</ele><time>2026-04-17T15:37:57.999Z</time></trkpt><trkpt lat="45.77526854403309" lon="4.735143428947949"><ele>269.0</ele><time>2026-04-17T15:37:58.999Z</time></trkpt><trkpt lat="45.77534494276638" lon="4.735012464974235"><ele>269.0</ele><time>2026-04-17T15:38:00.999Z</time></trkpt><trkpt lat="45.77541550201533" lon="4.734890475577929"><ele>269.0</ele><time>2026-04-17T15:38:02.999Z</time></trkpt><trkpt lat="45.77548400197575" lon="4.7347731953270396"><ele>269.0</ele><time>2026-04-17T15:38:04.999Z</time></trkpt><trkpt lat="45.77554970492245" lon="4.734660971356283"><ele>269.0</ele><time>2026-04-17T15:38:06.999Z</time></trkpt><trkpt lat="45.77561961624353" lon="4.734545568276774"><ele>269.0</ele><time>2026-04-17T15:38:08.999Z</time></trkpt><trkpt lat="45.775677633282626" lon="4.734440479172685"><ele>269.0</ele><time>2026-04-17T15:38:10.999Z</time></trkpt><trkpt lat="45.77573826326463" lon="4.734339290677107"><ele>269.0</ele><time>2026-04-17T15:38:12.999Z</time></trkpt><trkpt lat="45.77579890326326" lon="4.73424711522866"><ele>269.0</ele><time>2026-04-17T15:38:14.999Z</time></trkpt><trkpt lat="45.77584768097268" lon="4.734147365558972"><ele>269.0</ele><time>2026-04-17T15:38:17Z</time></trkpt><trkpt lat="45.775896951679734" lon="4.734081804127585"><ele>269.0</ele><time>2026-04-17T15:38:24Z</time></trkpt><trkpt lat="45.77594166811045" lon="4.733998568261064"><ele>269.0</ele><time>2026-04-17T15:38:27Z</time></trkpt><trkpt lat="45.77599988603805" lon="4.733891890474195"><ele>269.0</ele><time>2026-04-17T15:38:30Z</time></trkpt><trkpt lat="45.77603741254793" lon="4.733798226948292"><ele>269.0</ele><time>2026-04-17T15:38:32Z</time></trkpt><trkpt lat="45.77608327370766" lon="4.73369217499324"><ele>269.0</ele><time>2026-04-17T15:38:34Z</time></trkpt><trkpt lat="45.77612798381351" lon="4.733577470129843"><ele>269.0</ele><time>2026-04-17T15:38:36Z</time></trkpt><trkpt lat="45.77614643450997" lon="4.7334496524601715"><ele>269.0</ele><time>2026-04-17T15:38:38Z</time></trkpt><trkpt lat="45.77616166154556" lon="4.733324086533734"><ele>269.0</ele><time>2026-04-17T15:38:40Z</time></trkpt><trkpt lat="45.77617535571285" lon="4.733197466722396"><ele>269.0</ele><time>2026-04-17T15:38:42Z</time></trkpt><trkpt lat="45.77618063067515" lon="4.7330451273770935"><ele>269.0</ele><time>2026-04-17T15:38:44Z</time></trkpt><trkpt lat="45.77618096681059" lon="4.732875222727579"><ele>269.33333333333337</ele><time>2026-04-17T15:38:46Z</time></trkpt><trkpt lat="45.77618370145299" lon="4.732695307358624"><ele>269.6666666666667</ele><time>2026-04-17T15:38:48Z</time></trkpt><trkpt lat="45.77618003551925" lon="4.7326048916516505"><ele>270.0</ele><time>2026-04-17T15:38:49Z</time></trkpt><trkpt lat="45.77617504236701" lon="4.732513949339391"><ele>270.3333333333333</ele><time>2026-04-17T15:38:50Z</time></trkpt><trkpt lat="45.77618266798291" lon="4.732417807273665"><ele>270.66666666666663</ele><time>2026-04-17T15:38:51Z</time></trkpt><trkpt lat="45.77618911265276" lon="4.73232545437593"><ele>271.0</ele><time>2026-04-17T15:38:52Z</time></trkpt><trkpt lat="45.77620264650122" lon="4.732233609653051"><ele>271.0</ele><time>2026-04-17T15:38:53Z</time></trkpt><trkpt lat="45.77621484857725" lon="4.732144898996337"><ele>271.0</ele><time>2026-04-17T15:38:54Z</time></trkpt><trkpt lat="45.776227799247124" lon="4.73205192280712"><ele>271.0</ele><time>2026-04-17T15:38:55Z</time></trkpt><trkpt lat="45.77626695514956" lon="4.731879584355399"><ele>271.0</ele><time>2026-04-17T15:38:57Z</time></trkpt><trkpt lat="45.7762916460882" lon="4.731790958057955"><ele>271.0</ele><time>2026-04-17T15:38:58Z</time></trkpt><trkpt lat="45.77632047560665" lon="4.731709085076314"><ele>271.0</ele><time>2026-04-17T15:38:59Z</time></trkpt><trkpt lat="45.776343833939265" lon="4.731624531758201"><ele>271.2</ele><time>2026-04-17T15:39:00Z</time></trkpt><trkpt lat="45.77637362174129" lon="4.7315346528949735"><ele>271.40000000000003</ele><time>2026-04-17T15:39:01Z</time></trkpt><trkpt lat="45.77643023240885" lon="4.731375432864126"><ele>271.6</ele><time>2026-04-17T15:39:03Z</time></trkpt><trkpt lat="45.77648625068064" lon="4.731232493697898"><ele>271.8</ele><time>2026-04-17T15:39:05Z</time></trkpt><trkpt lat="45.77654127899861" lon="4.731090626900357"><ele>272.0</ele><time>2026-04-17T15:39:07Z</time></trkpt><trkpt lat="45.776596005279494" lon="4.730960815170185"><ele>272.0</ele><time>2026-04-17T15:39:09Z</time></trkpt><trkpt lat="45.77664210347226" lon="4.730837803744644"><ele>272.0</ele><time>2026-04-17T15:39:11Z</time></trkpt><trkpt lat="45.77668974209271" lon="4.7307106467277755"><ele>272.0</ele><time>2026-04-17T15:39:13Z</time></trkpt><trkpt lat="45.776733321309095" lon="4.730589445573309"><ele>272.0</ele><time>2026-04-17T15:39:15Z</time></trkpt><trkpt lat="45.77677970545199" lon="4.730471238226028"><ele>272.0</ele><time>2026-04-17T15:39:17Z</time></trkpt><trkpt lat="45.77681526473458" lon="4.730365444884453"><ele>273.0</ele><time>2026-04-17T15:39:19Z</time></trkpt><trkpt lat="45.776858969468044" lon="4.730233544371802"><ele>274.0</ele><time>2026-04-17T15:39:21Z</time></trkpt><trkpt lat="45.77689354334503" lon="4.730113186790383"><ele>275.0</ele><time>2026-04-17T15:39:23Z</time></trkpt><trkpt lat="45.77692703823529" lon="4.729993904772016"><ele>276.0</ele><time>2026-04-17T15:39:25Z</time></trkpt><trkpt lat="45.776938622273384" lon="4.729875010876057"><ele>277.0</ele><time>2026-04-17T15:39:26.999Z</time></trkpt><trkpt lat="45.77696675784469" lon="4.729753158222757"><ele>278.0</ele><time>2026-04-17T15:39:28.999Z</time></trkpt><trkpt lat="45.77698439360809" lon="4.729628310716475"><ele>279.0</ele><time>2026-04-17T15:39:30.999Z</time></trkpt><trkpt lat="45.77699833945468" lon="4.729502222947131"><ele>280.0</ele><time>2026-04-17T15:39:32.999Z</time></trkpt><trkpt lat="45.777020614374614" lon="4.7293773572904145"><ele>281.0</ele><time>2026-04-17T15:39:34.999Z</time></trkpt><trkpt lat="45.77704861030687" lon="4.729244883293974"><ele>282.0</ele><time>2026-04-17T15:39:36.999Z</time></trkpt><trkpt lat="45.77708853359304" lon="4.729125282111308"><ele>282.6666666666667</ele><time>2026-04-17T15:39:38.999Z</time></trkpt><trkpt lat="45.77713465269078" lon="4.729020037431435"><ele>283.3333333333333</ele><time>2026-04-17T15:39:40.999Z</time></trkpt><trkpt lat="45.77718854277614" lon="4.728921138955526"><ele>284.0</ele><time>2026-04-17T15:39:42.999Z</time></trkpt><trkpt lat="45.777250807666974" lon="4.728842256413799"><ele>284.66666666666663</ele><time>2026-04-17T15:39:44.999Z</time></trkpt><trkpt lat="45.77731529968126" lon="4.728766544648847"><ele>285.3333333333333</ele><time>2026-04-17T15:39:46.999Z</time></trkpt><trkpt lat="45.77738779982424" lon="4.728705564835923"><ele>286.0</ele><time>2026-04-17T15:39:48.999Z</time></trkpt><trkpt lat="45.77745988464493" lon="4.728651079488816"><ele>286.0</ele><time>2026-04-17T15:39:50.999Z</time></trkpt><trkpt lat="45.77753676728074" lon="4.728603197988754"><ele>286.0</ele><time>2026-04-17T15:39:52.999Z</time></trkpt><trkpt lat="45.777614085589406" lon="4.728557534473626"><ele>286.0</ele><time>2026-04-17T15:39:54.999Z</time></trkpt><trkpt lat="45.77769333343447" lon="4.728513724574552"><ele>286.0</ele><time>2026-04-17T15:39:56.999Z</time></trkpt><trkpt lat="45.777797388002185" lon="4.728465122132621"><ele>286.0</ele><time>2026-04-17T15:39:58.999Z</time></trkpt><trkpt lat="45.7778912110657" lon="4.728413671366897"><ele>285.8</ele><time>2026-04-17T15:40:00.999Z</time></trkpt><trkpt lat="45.77798154290863" lon="4.728372521209637"><ele>285.6</ele><time>2026-04-17T15:40:02.999Z</time></trkpt><trkpt lat="45.77806651726625" lon="4.728321113346674"><ele>285.4</ele><time>2026-04-17T15:40:04.999Z</time></trkpt><trkpt lat="45.778152743534356" lon="4.728283162850464"><ele>285.2</ele><time>2026-04-17T15:40:06.999Z</time></trkpt><trkpt lat="45.77824073664603" lon="4.728250748569318"><ele>285.0</ele><time>2026-04-17T15:40:08.999Z</time></trkpt><trkpt lat="45.778332015246" lon="4.728213324325204"><ele>285.0</ele><time>2026-04-17T15:40:10.999Z</time></trkpt><trkpt lat="45.77842588672045" lon="4.728182544593409"><ele>285.0</ele><time>2026-04-17T15:40:12.999Z</time></trkpt><trkpt lat="45.77849430369517" lon="4.728159483569403"><ele>285.0</ele><time>2026-04-17T15:40:14.999Z</time></trkpt><trkpt lat="45.77861495112906" lon="4.728136369438999"><ele>285.0</ele><time>2026-04-17T15:40:16.999Z</time></trkpt><trkpt lat="45.77867805763992" lon="4.7281203806127055"><ele>285.0</ele><time>2026-04-17T15:40:17.999Z</time></trkpt><trkpt lat="45.77877850418351" lon="4.7280939380210185"><ele>285.75</ele><time>2026-04-17T15:40:19.999Z</time></trkpt><trkpt lat="45.77889171510467" lon="4.72806870995122"><ele>286.5</ele><time>2026-04-17T15:40:22Z</time></trkpt><trkpt lat="45.779007023739105" lon="4.7280367548742985"><ele>287.25</ele><time>2026-04-17T15:40:24Z</time></trkpt><trkpt lat="45.779109742886476" lon="4.7279979176638625"><ele>288.0</ele><time>2026-04-17T15:40:26Z</time></trkpt><trkpt lat="45.77922014568361" lon="4.727955938319154"><ele>288.0</ele><time>2026-04-17T15:40:28Z</time></trkpt><trkpt lat="45.779329578694025" lon="4.727908838458328"><ele>288.0</ele><time>2026-04-17T15:40:30Z</time></trkpt><trkpt lat="45.77944559643132" lon="4.727858536080975"><ele>288.0</ele><time>2026-04-17T15:40:32Z</time></trkpt><trkpt lat="45.77955423580613" lon="4.727815633431121"><ele>288.0</ele><time>2026-04-17T15:40:34Z</time></trkpt><trkpt lat="45.779661634182546" lon="4.727769163703334"><ele>288.0</ele><time>2026-04-17T15:40:36Z</time></trkpt><trkpt lat="45.77977633351976" lon="4.727730343306316"><ele>288.0</ele><time>2026-04-17T15:40:38Z</time></trkpt><trkpt lat="45.77988949176774" lon="4.727660774598669"><ele>288.0</ele><time>2026-04-17T15:40:40Z</time></trkpt><trkpt lat="45.77998809290802" lon="4.727581470917106"><ele>288.0</ele><time>2026-04-17T15:40:42Z</time></trkpt><trkpt lat="45.78007939878185" lon="4.727485546520743"><ele>287.75</ele><time>2026-04-17T15:40:44Z</time></trkpt><trkpt lat="45.780164170363726" lon="4.727381253393941"><ele>287.5</ele><time>2026-04-17T15:40:46Z</time></trkpt><trkpt lat="45.78024152718448" lon="4.727252400673426"><ele>287.25</ele><time>2026-04-17T15:40:48Z</time></trkpt><trkpt lat="45.78030623231388" lon="4.727111957987104"><ele>287.0</ele><time>2026-04-17T15:40:50Z</time></trkpt><trkpt lat="45.78034729528843" lon="4.7269580228367705"><ele>287.4</ele><time>2026-04-17T15:40:52Z</time></trkpt><trkpt lat="45.780374687903915" lon="4.72680259771554"><ele>287.79999999999995</ele><time>2026-04-17T15:40:54Z</time></trkpt><trkpt lat="45.780396401507595" lon="4.726635129936048"><ele>288.2</ele><time>2026-04-17T15:40:56Z</time></trkpt><trkpt lat="45.78041370270961" lon="4.7265450812552405"><ele>288.59999999999997</ele><time>2026-04-17T15:40:57Z</time></trkpt><trkpt lat="45.78043656110068" lon="4.726373617376976"><ele>289.0</ele><time>2026-04-17T15:40:59Z</time></trkpt><trkpt lat="45.780454679520986" lon="4.7262060453539405"><ele>289.0</ele><time>2026-04-17T15:41:01Z</time></trkpt><trkpt lat="45.78047074592565" lon="4.726118480660329"><ele>289.0</ele><time>2026-04-17T15:41:02Z</time></trkpt><trkpt lat="45.7804932570567" lon="4.725955241136957"><ele>289.0</ele><time>2026-04-17T15:41:04Z</time></trkpt><trkpt lat="45.78052332450174" lon="4.72578718035869"><ele>289.0</ele><time>2026-04-17T15:41:06Z</time></trkpt><trkpt lat="45.7805370796518" lon="4.725619259566743"><ele>289.0</ele><time>2026-04-17T15:41:08Z</time></trkpt><trkpt lat="45.780565205041164" lon="4.725461362583184"><ele>289.0</ele><time>2026-04-17T15:41:10Z</time></trkpt><trkpt lat="45.780588244175895" lon="4.72529610776108"><ele>289.0</ele><time>2026-04-17T15:41:12Z</time></trkpt><trkpt lat="45.780615181797316" lon="4.725135278820603"><ele>289.0</ele><time>2026-04-17T15:41:14Z</time></trkpt><trkpt lat="45.780631381671014" lon="4.724983727974045"><ele>289.0</ele><time>2026-04-17T15:41:16Z</time></trkpt><trkpt lat="45.78065889650548" lon="4.724832177245931"><ele>289.0</ele><time>2026-04-17T15:41:18Z</time></trkpt><trkpt lat="45.78067586573227" lon="4.72467548123335"><ele>289.2</ele><time>2026-04-17T15:41:20Z</time></trkpt><trkpt lat="45.78069532145954" lon="4.724584372507785"><ele>289.4</ele><time>2026-04-17T15:41:21Z</time></trkpt><trkpt lat="45.780718297143196" lon="4.724431051132081"><ele>289.6</ele><time>2026-04-17T15:41:23Z</time></trkpt><trkpt lat="45.780741384437746" lon="4.724287902747516"><ele>289.8</ele><time>2026-04-17T15:41:25Z</time></trkpt><trkpt lat="45.780771804012055" lon="4.724129792918565"><ele>290.0</ele><time>2026-04-17T15:41:27Z</time></trkpt><trkpt lat="45.78081544778619" lon="4.723984339439692"><ele>290.0</ele><time>2026-04-17T15:41:29Z</time></trkpt><trkpt lat="45.78086467699719" lon="4.7238329228387785"><ele>290.0</ele><time>2026-04-17T15:41:31Z</time></trkpt><trkpt lat="45.780921594849005" lon="4.723669508058911"><ele>290.0</ele><time>2026-04-17T15:41:33Z</time></trkpt><trkpt lat="45.780965492882046" lon="4.723527288811862"><ele>290.0</ele><time>2026-04-17T15:41:35Z</time></trkpt><trkpt lat="45.78101758794545" lon="4.723374679439225"><ele>290.4</ele><time>2026-04-17T15:41:37Z</time></trkpt><trkpt lat="45.7810673089408" lon="4.723233569966131"><ele>290.8</ele><time>2026-04-17T15:41:39Z</time></trkpt><trkpt lat="45.781113612413925" lon="4.723091609029154"><ele>291.2</ele><time>2026-04-17T15:41:41Z</time></trkpt><trkpt lat="45.78116055536569" lon="4.722952190768196"><ele>291.6</ele><time>2026-04-17T15:41:42.999Z</time></trkpt><trkpt lat="45.78121005787219" lon="4.7228187443927"><ele>292.0</ele><time>2026-04-17T15:41:44.999Z</time></trkpt><trkpt lat="45.781254397273" lon="4.722695136307872"><ele>292.2</ele><time>2026-04-17T15:41:46.999Z</time></trkpt><trkpt lat="45.781294681768316" lon="4.722565860077932"><ele>292.4</ele><time>2026-04-17T15:41:48.999Z</time></trkpt><trkpt lat="45.78134199607975" lon="4.722440639480117"><ele>292.6</ele><time>2026-04-17T15:41:50.999Z</time></trkpt><trkpt lat="45.78138926807731" lon="4.72231151210722"><ele>292.8</ele><time>2026-04-17T15:41:52.999Z</time></trkpt><trkpt lat="45.78143264952779" lon="4.722192331419613"><ele>293.0</ele><time>2026-04-17T15:41:54.999Z</time></trkpt><trkpt lat="45.781478398902095" lon="4.72207753155685"><ele>293.0</ele><time>2026-04-17T15:41:56.999Z</time></trkpt><trkpt lat="45.781521078089966" lon="4.721960345062525"><ele>293.0</ele><time>2026-04-17T15:41:58.999Z</time></trkpt><trkpt lat="45.781565759336374" lon="4.721837300162834"><ele>293.0</ele><time>2026-04-17T15:42:00.999Z</time></trkpt><trkpt lat="45.78161237813038" lon="4.721713950035626"><ele>293.0</ele><time>2026-04-17T15:42:02.999Z</time></trkpt><trkpt lat="45.78166496855816" lon="4.721597979371404"><ele>293.0</ele><time>2026-04-17T15:42:04.999Z</time></trkpt><trkpt lat="45.78171561072006" lon="4.721467710534591"><ele>293.0</ele><time>2026-04-17T15:42:06.999Z</time></trkpt><trkpt lat="45.781770923951385" lon="4.72134275003259"><ele>293.0</ele><time>2026-04-17T15:42:08.999Z</time></trkpt><trkpt lat="45.7818198347024" lon="4.721220758986239"><ele>293.0</ele><time>2026-04-17T15:42:10.999Z</time></trkpt><trkpt lat="45.7818713778622" lon="4.721093249780145"><ele>293.0</ele><time>2026-04-17T15:42:12.999Z</time></trkpt><trkpt lat="45.78192484375351" lon="4.720963788026747"><ele>293.0</ele><time>2026-04-17T15:42:14.999Z</time></trkpt><trkpt lat="45.78198079719714" lon="4.7208409501627155"><ele>293.2</ele><time>2026-04-17T15:42:16.999Z</time></trkpt><trkpt lat="45.782036120091234" lon="4.720728016281757"><ele>293.4</ele><time>2026-04-17T15:42:18.999Z</time></trkpt><trkpt lat="45.78209065138563" lon="4.72061298301746"><ele>293.59999999999997</ele><time>2026-04-17T15:42:20.999Z</time></trkpt><trkpt lat="45.78215429460608" lon="4.720503418257251"><ele>293.8</ele><time>2026-04-17T15:42:22.999Z</time></trkpt><trkpt lat="45.782219968700694" lon="4.720393331096999"><ele>294.0</ele><time>2026-04-17T15:42:24.999Z</time></trkpt><trkpt lat="45.78228901943828" lon="4.72029370006372"><ele>293.8</ele><time>2026-04-17T15:42:26.999Z</time></trkpt><trkpt lat="45.782353784587016" lon="4.720198954671889"><ele>293.59999999999997</ele><time>2026-04-17T15:42:29Z</time></trkpt><trkpt lat="45.78242614932887" lon="4.720109214477686"><ele>293.4</ele><time>2026-04-17T15:42:31Z</time></trkpt><trkpt lat="45.78249542202226" lon="4.72000633394251"><ele>293.2</ele><time>2026-04-17T15:42:33Z</time></trkpt><trkpt lat="45.78257696740836" lon="4.719903709249152"><ele>293.0</ele><time>2026-04-17T15:42:35Z</time></trkpt><trkpt lat="45.782649229369156" lon="4.71979880010271"><ele>293.0</ele><time>2026-04-17T15:42:37Z</time></trkpt><trkpt lat="45.78273065474114" lon="4.719698717123521"><ele>293.0</ele><time>2026-04-17T15:42:39Z</time></trkpt><trkpt lat="45.782808423692174" lon="4.71959198304383"><ele>293.0</ele><time>2026-04-17T15:42:41Z</time></trkpt><trkpt lat="45.78289057147736" lon="4.719481203087533"><ele>293.0</ele><time>2026-04-17T15:42:43Z</time></trkpt><trkpt lat="45.78296611788949" lon="4.719367182587579"><ele>293.0</ele><time>2026-04-17T15:42:45Z</time></trkpt><trkpt lat="45.78305082107772" lon="4.719258449934335"><ele>293.0</ele><time>2026-04-17T15:42:47Z</time></trkpt><trkpt lat="45.78313088607083" lon="4.7191478976659935"><ele>293.0</ele><time>2026-04-17T15:42:49Z</time></trkpt><trkpt lat="45.78321059426422" lon="4.719030914702656"><ele>293.0</ele><time>2026-04-17T15:42:51Z</time></trkpt><trkpt lat="45.78329907168008" lon="4.718929076187031"><ele>293.0</ele><time>2026-04-17T15:42:53Z</time></trkpt><trkpt lat="45.7833772463419" lon="4.718819470883611"><ele>293.0</ele><time>2026-04-17T15:42:55Z</time></trkpt><trkpt lat="45.783461124015496" lon="4.718711437221887"><ele>292.5</ele><time>2026-04-17T15:42:57Z</time></trkpt><trkpt lat="45.78354399737211" lon="4.7186000227163"><ele>292.0</ele><time>2026-04-17T15:42:59Z</time></trkpt><trkpt lat="45.78362671181285" lon="4.718493545080527"><ele>291.5</ele><time>2026-04-17T15:43:01Z</time></trkpt><trkpt lat="45.783711269162204" lon="4.718379383953839"><ele>291.0</ele><time>2026-04-17T15:43:03Z</time></trkpt><trkpt lat="45.78379302942804" lon="4.718270985706887"><ele>291.8</ele><time>2026-04-17T15:43:05Z</time></trkpt><trkpt lat="45.78387218651345" lon="4.71817772460476"><ele>292.6</ele><time>2026-04-17T15:43:07Z</time></trkpt><trkpt lat="45.78395646943454" lon="4.718097400518524"><ele>293.4</ele><time>2026-04-17T15:43:09Z</time></trkpt><trkpt lat="45.78403774560674" lon="4.71801692064662"><ele>294.2</ele><time>2026-04-17T15:43:11Z</time></trkpt><trkpt lat="45.78411574513372" lon="4.717949819493949"><ele>295.0</ele><time>2026-04-17T15:43:13Z</time></trkpt><trkpt lat="45.78419587975522" lon="4.71789018895827"><ele>295.0</ele><time>2026-04-17T15:43:15Z</time></trkpt><trkpt lat="45.7843038987037" lon="4.717889150743605"><ele>295.0</ele><time>2026-04-17T15:43:17Z</time></trkpt><trkpt lat="45.7844268627381" lon="4.717907642126966"><ele>295.0</ele><time>2026-04-17T15:43:19Z</time></trkpt><trkpt lat="45.78452279395003" lon="4.717784528302541"><ele>295.0</ele><time>2026-04-17T15:43:21Z</time></trkpt><trkpt lat="45.78454552632834" lon="4.717693958387083"><ele>295.0</ele><time>2026-04-17T15:43:22Z</time></trkpt><trkpt lat="45.78455257496968" lon="4.717599157549984"><ele>294.75</ele><time>2026-04-17T15:43:23Z</time></trkpt><trkpt lat="45.784564596166504" lon="4.717426359152998"><ele>294.5</ele><time>2026-04-17T15:43:25Z</time></trkpt><trkpt lat="45.78462386240143" lon="4.717272473379225"><ele>294.25</ele><time>2026-04-17T15:43:27Z</time></trkpt><trkpt lat="45.78469492977722" lon="4.717128331261904"><ele>294.0</ele><time>2026-04-17T15:43:29Z</time></trkpt><trkpt lat="45.78476474784798" lon="4.716995589251041"><ele>294.0</ele><time>2026-04-17T15:43:31Z</time></trkpt><trkpt lat="45.78480019044223" lon="4.71692086063885"><ele>294.0</ele><time>2026-04-17T15:43:32Z</time></trkpt><trkpt lat="45.7848679345236" lon="4.716785876929873"><ele>294.0</ele><time>2026-04-17T15:43:34Z</time></trkpt><trkpt lat="45.78494347762244" lon="4.716653899268486"><ele>294.0</ele><time>2026-04-17T15:43:36Z</time></trkpt><trkpt lat="45.7850137828031" lon="4.716523356668076"><ele>294.0</ele><time>2026-04-17T15:43:38Z</time></trkpt><trkpt lat="45.78508952652771" lon="4.716394005270727"><ele>293.75</ele><time>2026-04-17T15:43:39.999Z</time></trkpt><trkpt lat="45.7851702789007" lon="4.716272483873726"><ele>293.5</ele><time>2026-04-17T15:43:41.999Z</time></trkpt><trkpt lat="45.78524869938442" lon="4.716153862253908"><ele>293.25</ele><time>2026-04-17T15:43:43.999Z</time></trkpt><trkpt lat="45.78532382071845" lon="4.716029887398181"><ele>293.0</ele><time>2026-04-17T15:43:45.999Z</time></trkpt><trkpt lat="45.785396680776365" lon="4.715909537476949"><ele>293.0</ele><time>2026-04-17T15:43:47.999Z</time></trkpt><trkpt lat="45.78547184474408" lon="4.715791706563132"><ele>293.0</ele><time>2026-04-17T15:43:49.999Z</time></trkpt><trkpt lat="45.78555093679492" lon="4.7156663202054885"><ele>293.0</ele><time>2026-04-17T15:43:51.999Z</time></trkpt><trkpt lat="45.78563308528859" lon="4.7155416071593645"><ele>293.0</ele><time>2026-04-17T15:43:53.999Z</time></trkpt><trkpt lat="45.78571770934018" lon="4.715414544614833"><ele>293.0</ele><time>2026-04-17T15:43:55.999Z</time></trkpt><trkpt lat="45.78580242477157" lon="4.7152900762672045"><ele>293.0</ele><time>2026-04-17T15:43:57.999Z</time></trkpt><trkpt lat="45.78588087561216" lon="4.7151792950343765"><ele>293.0</ele><time>2026-04-17T15:43:59.999Z</time></trkpt><trkpt lat="45.785955640953865" lon="4.715082482104729"><ele>293.0</ele><time>2026-04-17T15:44:01.999Z</time></trkpt><trkpt lat="45.78603467172061" lon="4.714982318565903"><ele>293.0</ele><time>2026-04-17T15:44:03.999Z</time></trkpt><trkpt lat="45.786108499422895" lon="4.714885938564419"><ele>292.83333333333337</ele><time>2026-04-17T15:44:05.999Z</time></trkpt><trkpt lat="45.7861806746396" lon="4.714787218547666"><ele>292.6666666666667</ele><time>2026-04-17T15:44:07.999Z</time></trkpt><trkpt lat="45.78627143907365" lon="4.714716889761813"><ele>292.5</ele><time>2026-04-17T15:44:09.999Z</time></trkpt><trkpt lat="45.786362918481395" lon="4.7146851650875305"><ele>292.3333333333333</ele><time>2026-04-17T15:44:11.999Z</time></trkpt><trkpt lat="45.786442554364235" lon="4.714660315977368"><ele>292.16666666666663</ele><time>2026-04-17T15:44:14.999Z</time></trkpt><trkpt lat="45.78646963415168" lon="4.714571830751047"><ele>292.0</ele><time>2026-04-17T15:44:16.999Z</time></trkpt><trkpt lat="45.78653960300725" lon="4.714451527259193"><ele>292.3333333333333</ele><time>2026-04-17T15:44:18.999Z</time></trkpt><trkpt lat="45.786639753058964" lon="4.714394093086668"><ele>292.66666666666663</ele><time>2026-04-17T15:44:20.999Z</time></trkpt><trkpt lat="45.7867221136147" lon="4.714347154781474"><ele>293.0</ele><time>2026-04-17T15:44:22.999Z</time></trkpt><trkpt lat="45.786794127190056" lon="4.714301887960477"><ele>293.3333333333333</ele><time>2026-04-17T15:44:24.999Z</time></trkpt><trkpt lat="45.78685825672689" lon="4.714253173415404"><ele>293.6666666666667</ele><time>2026-04-17T15:44:26.999Z</time></trkpt><trkpt lat="45.78691959781128" lon="4.714202698267296"><ele>294.0</ele><time>2026-04-17T15:44:28.999Z</time></trkpt><trkpt lat="45.78698601909662" lon="4.714169263105032"><ele>294.0</ele><time>2026-04-17T15:44:30.999Z</time></trkpt><trkpt lat="45.7870648332374" lon="4.714090339643192"><ele>294.0</ele><time>2026-04-17T15:44:34Z</time></trkpt><trkpt lat="45.78709361858646" lon="4.713987595496284"><ele>294.0</ele><time>2026-04-17T15:45:40Z</time></trkpt><trkpt lat="45.78717371000752" lon="4.713914389909833"><ele>294.0</ele><time>2026-04-17T15:45:44Z</time></trkpt><trkpt lat="45.787236189021165" lon="4.713879360089811"><ele>294.0</ele><time>2026-04-17T15:45:46Z</time></trkpt><trkpt lat="45.78730538190048" lon="4.713815414769922"><ele>294.0</ele><time>2026-04-17T15:45:48Z</time></trkpt><trkpt lat="45.78739435941296" lon="4.713744951412832"><ele>294.0</ele><time>2026-04-17T15:45:50Z</time></trkpt><trkpt lat="45.7874869233327" lon="4.713666373120769"><ele>294.0</ele><time>2026-04-17T15:45:52Z</time></trkpt><trkpt lat="45.78758293702114" lon="4.713581157840174"><ele>294.0</ele><time>2026-04-17T15:45:54Z</time></trkpt><trkpt lat="45.78768282647053" lon="4.7134950127328255"><ele>294.0</ele><time>2026-04-17T15:45:56Z</time></trkpt><trkpt lat="45.787789971319" lon="4.713409414453419"><ele>294.0</ele><time>2026-04-17T15:45:57.999Z</time></trkpt><trkpt lat="45.787896301270656" lon="4.71332350667943"><ele>294.0</ele><time>2026-04-17T15:45:59.999Z</time></trkpt><trkpt lat="45.78795234204016" lon="4.7132789484719915"><ele>294.0</ele><time>2026-04-17T15:46:00.999Z</time></trkpt><trkpt lat="45.7880101128491" lon="4.713233715663885"><ele>294.0</ele><time>2026-04-17T15:46:01.999Z</time></trkpt><trkpt lat="45.78806838417723" lon="4.713188705966084"><ele>294.0</ele><time>2026-04-17T15:46:02.999Z</time></trkpt><trkpt lat="45.78812680676125" lon="4.713142066188642"><ele>294.0</ele><time>2026-04-17T15:46:03.999Z</time></trkpt><trkpt lat="45.78818591550015" lon="4.713102673752893"><ele>294.0</ele><time>2026-04-17T15:46:04.999Z</time></trkpt><trkpt lat="45.78824410477165" lon="4.713060488339161"><ele>294.0</ele><time>2026-04-17T15:46:05.999Z</time></trkpt><trkpt lat="45.78830403866024" lon="4.713018462564765"><ele>294.0</ele><time>2026-04-17T15:46:06.999Z</time></trkpt><trkpt lat="45.78836477419499" lon="4.712977065776019"><ele>294.0</ele><time>2026-04-17T15:46:07.999Z</time></trkpt><trkpt lat="45.78842558367043" lon="4.712930999340223"><ele>294.0</ele><time>2026-04-17T15:46:08.999Z</time></trkpt><trkpt lat="45.78848609173336" lon="4.712883847256863"><ele>294.0</ele><time>2026-04-17T15:46:09.999Z</time></trkpt><trkpt lat="45.788547917165005" lon="4.712840797723801"><ele>294.0</ele><time>2026-04-17T15:46:10.999Z</time></trkpt><trkpt lat="45.78860987767045" lon="4.712791159407858"><ele>293.5</ele><time>2026-04-17T15:46:11.999Z</time></trkpt><trkpt lat="45.788669704602896" lon="4.712740478878967"><ele>293.0</ele><time>2026-04-17T15:46:12.999Z</time></trkpt><trkpt lat="45.78873434528496" lon="4.7126881299450085"><ele>292.5</ele><time>2026-04-17T15:46:13.999Z</time></trkpt><trkpt lat="45.78879886056716" lon="4.712630304941697"><ele>292.0</ele><time>2026-04-17T15:46:14.999Z</time></trkpt><trkpt lat="45.78886278801562" lon="4.712569239480431"><ele>291.5</ele><time>2026-04-17T15:46:15.999Z</time></trkpt><trkpt lat="45.78892589719877" lon="4.712503648744514"><ele>291.0</ele><time>2026-04-17T15:46:16.999Z</time></trkpt><trkpt lat="45.78898955342456" lon="4.712433905457593"><ele>290.8333333333333</ele><time>2026-04-17T15:46:17.999Z</time></trkpt><trkpt lat="45.78905610820935" lon="4.7123627367360115"><ele>290.6666666666667</ele><time>2026-04-17T15:46:18.999Z</time></trkpt><trkpt lat="45.78912081470108" lon="4.712284810412995"><ele>290.5</ele><time>2026-04-17T15:46:19.999Z</time></trkpt><trkpt lat="45.78918480442808" lon="4.712200716339915"><ele>290.33333333333337</ele><time>2026-04-17T15:46:20.999Z</time></trkpt><trkpt lat="45.78924900377153" lon="4.712110719520309"><ele>290.1666666666667</ele><time>2026-04-17T15:46:21.999Z</time></trkpt><trkpt lat="45.78931485875914" lon="4.712025466351024"><ele>290.0</ele><time>2026-04-17T15:46:22.999Z</time></trkpt><trkpt lat="45.78937982458927" lon="4.711928964807257"><ele>289.6</ele><time>2026-04-17T15:46:23.999Z</time></trkpt><trkpt lat="45.78944389904042" lon="4.711829016146088"><ele>289.2</ele><time>2026-04-17T15:46:24.999Z</time></trkpt><trkpt lat="45.7895088116353" lon="4.711728965555138"><ele>288.8</ele><time>2026-04-17T15:46:25.999Z</time></trkpt><trkpt lat="45.78957626748576" lon="4.711628308701997"><ele>288.4</ele><time>2026-04-17T15:46:26.999Z</time></trkpt><trkpt lat="45.789641054889444" lon="4.711516984137532"><ele>288.0</ele><time>2026-04-17T15:46:27.999Z</time></trkpt><trkpt lat="45.78970716156602" lon="4.711413984894471"><ele>288.0</ele><time>2026-04-17T15:46:28.999Z</time></trkpt><trkpt lat="45.78976979621499" lon="4.711298506608114"><ele>288.0</ele><time>2026-04-17T15:46:29.999Z</time></trkpt><trkpt lat="45.789828185659424" lon="4.711175596063991"><ele>288.0</ele><time>2026-04-17T15:46:30.999Z</time></trkpt><trkpt lat="45.78988827939895" lon="4.711051039544252"><ele>288.0</ele><time>2026-04-17T15:46:31.999Z</time></trkpt><trkpt lat="45.789950131664725" lon="4.7109317474296075"><ele>288.0</ele><time>2026-04-17T15:46:32.999Z</time></trkpt><trkpt lat="45.79000440468497" lon="4.71080706246536"><ele>288.2</ele><time>2026-04-17T15:46:33.999Z</time></trkpt><trkpt lat="45.79005705617242" lon="4.710678679347305"><ele>288.4</ele><time>2026-04-17T15:46:34.999Z</time></trkpt><trkpt lat="45.790097169053944" lon="4.71055305408315"><ele>288.59999999999997</ele><time>2026-04-17T15:46:35.999Z</time></trkpt><trkpt lat="45.7901299388925" lon="4.710428753970791"><ele>288.8</ele><time>2026-04-17T15:46:36.999Z</time></trkpt><trkpt lat="45.79016543110322" lon="4.710318395498527"><ele>289.0</ele><time>2026-04-17T15:46:37.999Z</time></trkpt><trkpt lat="45.79019703599046" lon="4.710212228432637"><ele>289.0</ele><time>2026-04-17T15:46:38.999Z</time></trkpt><trkpt lat="45.79023187918149" lon="4.710113974176505"><ele>289.0</ele><time>2026-04-17T15:46:40Z</time></trkpt><trkpt lat="45.7902697727333" lon="4.71000875351245"><ele>289.0</ele><time>2026-04-17T15:46:41Z</time></trkpt><trkpt lat="45.790304897167694" lon="4.709912802356696"><ele>289.0</ele><time>2026-04-17T15:46:42Z</time></trkpt><trkpt lat="45.79033731318225" lon="4.7098141512925515"><ele>289.0</ele><time>2026-04-17T15:46:43Z</time></trkpt><trkpt lat="45.79036560371145" lon="4.709728555885337"><ele>289.0</ele><time>2026-04-17T15:46:44Z</time></trkpt><trkpt lat="45.79039698650798" lon="4.709644062094106"><ele>289.0</ele><time>2026-04-17T15:46:45Z</time></trkpt><trkpt lat="45.79045433100702" lon="4.709495577452503"><ele>289.59999999999997</ele><time>2026-04-17T15:46:47Z</time></trkpt><trkpt lat="45.7905285045045" lon="4.70938433502326"><ele>290.2</ele><time>2026-04-17T15:46:49Z</time></trkpt><trkpt lat="45.79063446076445" lon="4.709346763522646"><ele>290.79999999999995</ele><time>2026-04-17T15:46:51Z</time></trkpt><trkpt lat="45.790724730744586" lon="4.709247618011609"><ele>291.4</ele><time>2026-04-17T15:46:53Z</time></trkpt><trkpt lat="45.79077824113857" lon="4.709108494816332"><ele>292.0</ele><time>2026-04-17T15:46:55Z</time></trkpt><trkpt lat="45.79077850583581" lon="4.708948929940678"><ele>292.0</ele><time>2026-04-17T15:46:57Z</time></trkpt><trkpt lat="45.79072023472648" lon="4.708823629486828"><ele>292.0</ele><time>2026-04-17T15:46:59Z</time></trkpt><trkpt lat="45.79065123937237" lon="4.708682872668076"><ele>292.0</ele><time>2026-04-17T15:47:01Z</time></trkpt><trkpt lat="45.790649415334975" lon="4.708508282107989"><ele>292.0</ele><time>2026-04-17T15:47:03Z</time></trkpt><trkpt lat="45.7906600283067" lon="4.708333546131904"><ele>292.0</ele><time>2026-04-17T15:47:05Z</time></trkpt><trkpt lat="45.79065925970492" lon="4.708239745044423"><ele>292.0</ele><time>2026-04-17T15:47:06Z</time></trkpt><trkpt lat="45.790661554779085" lon="4.708141574441782"><ele>292.0</ele><time>2026-04-17T15:47:07Z</time></trkpt><trkpt lat="45.790661358598115" lon="4.708050116353203"><ele>292.0</ele><time>2026-04-17T15:47:08Z</time></trkpt><trkpt lat="45.7906632508463" lon="4.707883163106162"><ele>292.0</ele><time>2026-04-17T15:47:10Z</time></trkpt><trkpt lat="45.79066753629041" lon="4.707721418088323"><ele>292.0</ele><time>2026-04-17T15:47:12Z</time></trkpt><trkpt lat="45.79067065596841" lon="4.707560950616068"><ele>292.8</ele><time>2026-04-17T15:47:14Z</time></trkpt><trkpt lat="45.79067481403022" lon="4.707404509728951"><ele>293.6</ele><time>2026-04-17T15:47:16Z</time></trkpt><trkpt lat="45.79068015395209" lon="4.707250992080229"><ele>294.40000000000003</ele><time>2026-04-17T15:47:18Z</time></trkpt><trkpt lat="45.79068581754263" lon="4.707080370059015"><ele>295.2</ele><time>2026-04-17T15:47:20Z</time></trkpt><trkpt lat="45.790692274473045" lon="4.706926647025609"><ele>296.0</ele><time>2026-04-17T15:47:22Z</time></trkpt><trkpt lat="45.79070938423698" lon="4.706802279522358"><ele>296.42857142857144</ele><time>2026-04-17T15:47:24Z</time></trkpt><trkpt lat="45.790680412726765" lon="4.706713320306255"><ele>296.85714285714283</ele><time>2026-04-17T15:48:24.999Z</time></trkpt><trkpt lat="45.7906886736027" lon="4.706608008787322"><ele>297.2857142857143</ele><time>2026-04-17T15:48:28.999Z</time></trkpt><trkpt lat="45.79072533937503" lon="4.706528560696458"><ele>297.7142857142857</ele><time>2026-04-17T15:48:33.999Z</time></trkpt><trkpt lat="45.790729513907976" lon="4.706428632583411"><ele>298.14285714285717</ele><time>2026-04-17T15:50:19.999Z</time></trkpt><trkpt lat="45.79073483439735" lon="4.706329598339649"><ele>298.57142857142856</ele><time>2026-04-17T15:50:26.999Z</time></trkpt><trkpt lat="45.79073963539789" lon="4.706230441601966"><ele>299.0</ele><time>2026-04-17T15:50:33.999Z</time></trkpt><trkpt lat="45.79074568773116" lon="4.706132753638653"><ele>298.85714285714283</ele><time>2026-04-17T15:50:39.999Z</time></trkpt><trkpt lat="45.790751986486924" lon="4.706040893278447"><ele>298.7142857142857</ele><time>2026-04-17T15:50:46.999Z</time></trkpt><trkpt lat="45.79075841025206" lon="4.705947211604136"><ele>298.57142857142856</ele><time>2026-04-17T15:50:54Z</time></trkpt><trkpt lat="45.79079941960872" lon="4.705877714660984"><ele>298.42857142857144</ele><time>2026-04-17T15:50:59Z</time></trkpt><trkpt lat="45.790806748614756" lon="4.705776245413309"><ele>298.2857142857143</ele><time>2026-04-17T15:51:05Z</time></trkpt><trkpt lat="45.790813431172545" lon="4.705685149170295"><ele>298.1428571428571</ele><time>2026-04-17T15:51:11Z</time></trkpt><trkpt lat="45.790822432238016" lon="4.7055891912934324"><ele>298.0</ele><time>2026-04-17T15:51:17Z</time></trkpt><trkpt lat="45.79083187564688" lon="4.705497561131668"><ele>298.0</ele><time>2026-04-17T15:51:23Z</time></trkpt><trkpt lat="45.79084183947626" lon="4.705407405677251"><ele>298.0</ele><time>2026-04-17T15:51:29Z</time></trkpt><trkpt lat="45.79085287172772" lon="4.705316928348335"><ele>298.0</ele><time>2026-04-17T15:51:35Z</time></trkpt><trkpt lat="45.79087099435012" lon="4.705197916893491"><ele>298.0</ele><time>2026-04-17T15:51:41Z</time></trkpt><trkpt lat="45.790893819528286" lon="4.705096731176878"><ele>298.0</ele><time>2026-04-17T15:51:47Z</time></trkpt><trkpt lat="45.79091678858653" lon="4.705011806133394"><ele>298.0</ele><time>2026-04-17T15:51:52Z</time></trkpt><trkpt lat="45.79094208925291" lon="4.704925483536706"><ele>298.0</ele><time>2026-04-17T15:52:00Z</time></trkpt><trkpt lat="45.79097518863945" lon="4.704831841452641"><ele>298.0</ele><time>2026-04-17T15:52:04.999Z</time></trkpt><trkpt lat="45.79101166392915" lon="4.704741493137327"><ele>298.0</ele><time>2026-04-17T15:52:11.999Z</time></trkpt><trkpt lat="45.791054804600456" lon="4.704643607777008"><ele>298.0</ele><time>2026-04-17T15:52:18.999Z</time></trkpt><trkpt lat="45.7910905012897" lon="4.704562668113676"><ele>298.0</ele><time>2026-04-17T15:52:24.999Z</time></trkpt><trkpt lat="45.791125663192936" lon="4.704484006365021"><ele>298.0</ele><time>2026-04-17T15:52:30.999Z</time></trkpt><trkpt lat="45.7911645616441" lon="4.704399973802316"><ele>298.0</ele><time>2026-04-17T15:52:37.999Z</time></trkpt><trkpt lat="45.79137058015182" lon="4.704461220882818"><ele>297.42857142857144</ele><time>2026-04-17T15:52:44.999Z</time></trkpt><trkpt lat="45.791412687341754" lon="4.70439112182112"><ele>296.85714285714283</ele><time>2026-04-17T15:52:51.999Z</time></trkpt><trkpt lat="45.79148063101421" lon="4.704308608061768"><ele>296.2857142857143</ele><time>2026-04-17T15:52:59Z</time></trkpt><trkpt lat="45.79155362006216" lon="4.704239585533368"><ele>295.7142857142857</ele><time>2026-04-17T15:53:14Z</time></trkpt><trkpt lat="45.79159105589207" lon="4.704153453360664"><ele>295.1428571428571</ele><time>2026-04-17T15:53:22Z</time></trkpt><trkpt lat="45.791614327002854" lon="4.704060917562833"><ele>294.57142857142856</ele><time>2026-04-17T15:53:37Z</time></trkpt><trkpt lat="45.79166348187694" lon="4.704004373833496"><ele>294.0</ele><time>2026-04-17T15:53:43Z</time></trkpt><trkpt lat="45.79172566737116" lon="4.703950847609352"><ele>294.0</ele><time>2026-04-17T15:53:50Z</time></trkpt><trkpt lat="45.79177211036942" lon="4.703886284956214"><ele>294.0</ele><time>2026-04-17T15:53:56Z</time></trkpt><trkpt lat="45.79186514597413" lon="4.70380839771603"><ele>294.0</ele><time>2026-04-17T15:54:08Z</time></trkpt><trkpt lat="45.79192617853038" lon="4.703784963131007"><ele>294.0</ele><time>2026-04-17T15:54:14Z</time></trkpt><trkpt lat="45.79199755857229" lon="4.703736567240944"><ele>294.0</ele><time>2026-04-17T15:54:22Z</time></trkpt><trkpt lat="45.792059908906964" lon="4.70371981071775"><ele>294.0</ele><time>2026-04-17T15:54:32Z</time></trkpt><trkpt lat="45.79210354101235" lon="4.7036517565244464"><ele>294.0</ele><time>2026-04-17T15:54:37Z</time></trkpt><trkpt lat="45.79210598292565" lon="4.7035572969966015"><ele>293.0</ele><time>2026-04-17T15:54:43.999Z</time></trkpt><trkpt lat="45.792135508097424" lon="4.70347009495326"><ele>292.0</ele><time>2026-04-17T15:54:50.999Z</time></trkpt><trkpt lat="45.792160284532294" lon="4.703378177856772"><ele>291.0</ele><time>2026-04-17T15:54:56.999Z</time></trkpt><trkpt lat="45.79218956886263" lon="4.703294417714707"><ele>290.0</ele><time>2026-04-17T15:55:04Z</time></trkpt><trkpt lat="45.79219177960047" lon="4.703194294313493"><ele>289.0</ele><time>2026-04-17T15:55:16Z</time></trkpt><trkpt lat="45.79215550700955" lon="4.703120004708163"><ele>288.0</ele><time>2026-04-17T15:55:24Z</time></trkpt><trkpt lat="45.79212806034985" lon="4.7030336736357095"><ele>287.0</ele><time>2026-04-17T15:55:30Z</time></trkpt><trkpt lat="45.79206611831782" lon="4.702999506861001"><ele>287.0</ele><time>2026-04-17T15:55:36Z</time></trkpt><trkpt lat="45.79201397969291" lon="4.7029471663846945"><ele>287.0</ele><time>2026-04-17T15:55:44Z</time></trkpt><trkpt lat="45.79204607483455" lon="4.7028691726053"><ele>287.0</ele><time>2026-04-17T15:55:54Z</time></trkpt><trkpt lat="45.79211294694786" lon="4.702900737445799"><ele>287.0</ele><time>2026-04-17T15:56:01Z</time></trkpt><trkpt lat="45.79217179155378" lon="4.702960021856604"><ele>287.0</ele><time>2026-04-17T15:56:07Z</time></trkpt><trkpt lat="45.79222293442311" lon="4.7030271535191295"><ele>287.0</ele><time>2026-04-17T15:56:13Z</time></trkpt><trkpt lat="45.792423135200444" lon="4.703186098376666"><ele>287.0</ele><time>2026-04-17T15:56:35Z</time></trkpt><trkpt lat="45.7924855736598" lon="4.7032332190862"><ele>287.0</ele><time>2026-04-17T15:56:43Z</time></trkpt><trkpt lat="45.792522041177584" lon="4.703308293234011"><ele>287.0</ele><time>2026-04-17T15:56:48Z</time></trkpt><trkpt lat="45.792571809968045" lon="4.70337305916438"><ele>287.0</ele><time>2026-04-17T15:56:54Z</time></trkpt><trkpt lat="45.792606962230295" lon="4.703458071462953"><ele>287.0</ele><time>2026-04-17T15:56:59.999Z</time></trkpt><trkpt lat="45.792637972522535" lon="4.703538531411031"><ele>287.0</ele><time>2026-04-17T15:57:05.999Z</time></trkpt><trkpt lat="45.792652642876774" lon="4.703633740065061"><ele>287.0</ele><time>2026-04-17T15:57:12Z</time></trkpt><trkpt lat="45.792711642670334" lon="4.703674439326062"><ele>287.0</ele><time>2026-04-17T15:57:19Z</time></trkpt><trkpt lat="45.792765323151194" lon="4.703729721911363"><ele>287.0</ele><time>2026-04-17T15:57:26Z</time></trkpt><trkpt lat="45.79282527628179" lon="4.703772786681595"><ele>287.0</ele><time>2026-04-17T15:57:32Z</time></trkpt><trkpt lat="45.79286735552387" lon="4.703859286094935"><ele>287.0</ele><time>2026-04-17T15:57:38Z</time></trkpt><trkpt lat="45.79290322499427" lon="4.7039395587333726"><ele>287.0</ele><time>2026-04-17T15:57:44Z</time></trkpt><trkpt lat="45.79296208599388" lon="4.703980126418726"><ele>287.0</ele><time>2026-04-17T15:57:51Z</time></trkpt><trkpt lat="45.79302650123996" lon="4.704033371259712"><ele>287.0</ele><time>2026-04-17T15:57:58Z</time></trkpt><trkpt lat="45.79313367873712" lon="4.704064304008037"><ele>287.0</ele><time>2026-04-17T15:58:17Z</time></trkpt><trkpt lat="45.7931997318038" lon="4.704048803065474"><ele>287.0</ele><time>2026-04-17T15:58:28Z</time></trkpt><trkpt lat="45.79321958168126" lon="4.70395639750518"><ele>287.0</ele><time>2026-04-17T15:58:36Z</time></trkpt><trkpt lat="45.79323143042056" lon="4.703854443550936"><ele>287.0</ele><time>2026-04-17T15:58:47Z</time></trkpt><trkpt lat="45.79327764850464" lon="4.703792787986402"><ele>287.0</ele><time>2026-04-17T15:59:01.999Z</time></trkpt><trkpt lat="45.79332259655869" lon="4.703726165541646"><ele>287.0</ele><time>2026-04-17T15:59:09.999Z</time></trkpt><trkpt lat="45.79338422356084" lon="4.70369708280304"><ele>287.0</ele><time>2026-04-17T15:59:19Z</time></trkpt><trkpt lat="45.79345740540289" lon="4.703722445948581"><ele>293.0</ele><time>2026-04-17T15:59:27Z</time></trkpt><trkpt lat="45.7941409430153" lon="4.703011065401032"><ele>292.99999999999994</ele><time>2026-04-17T16:01:27Z</time></trkpt><trkpt lat="45.79413837224646" lon="4.7029146123716785"><ele>293.0</ele><time>2026-04-17T16:01:33Z</time></trkpt><trkpt lat="45.79413443303388" lon="4.7028204464953225"><ele>293.0</ele><time>2026-04-17T16:01:40Z</time></trkpt><trkpt lat="45.79411880297968" lon="4.70272245151099"><ele>293.0</ele><time>2026-04-17T16:01:47Z</time></trkpt><trkpt lat="45.79413565576268" lon="4.702620842302861"><ele>293.0</ele><time>2026-04-17T16:01:54Z</time></trkpt><trkpt lat="45.794118542679584" lon="4.7025268630026815"><ele>292.99999999999994</ele><time>2026-04-17T16:02:00Z</time></trkpt><trkpt lat="45.79409343996362" lon="4.702435481273858"><ele>293.0</ele><time>2026-04-17T16:02:06Z</time></trkpt><trkpt lat="45.79406469248796" lon="4.702353547733132"><ele>293.4285714285714</ele><time>2026-04-17T16:02:14Z</time></trkpt><trkpt lat="45.79402290714108" lon="4.702276002144797"><ele>293.85714285714283</ele><time>2026-04-17T16:02:21Z</time></trkpt><trkpt lat="45.79398420643593" lon="4.702193768609172"><ele>294.2857142857143</ele><time>2026-04-17T16:02:27Z</time></trkpt><trkpt lat="45.793941389403884" lon="4.702123217802153"><ele>294.71428571428567</ele><time>2026-04-17T16:02:33Z</time></trkpt><trkpt lat="45.793905724846915" lon="4.702042973950105"><ele>295.1428571428571</ele><time>2026-04-17T16:02:38Z</time></trkpt><trkpt lat="45.79385689932798" lon="4.701978211529631"><ele>295.57142857142856</ele><time>2026-04-17T16:02:44Z</time></trkpt><trkpt lat="45.793810980485546" lon="4.701903889397088"><ele>296.0</ele><time>2026-04-17T16:02:50Z</time></trkpt><trkpt lat="45.79375326326938" lon="4.701850234549839"><ele>296.2857142857143</ele><time>2026-04-17T16:02:55.999Z</time></trkpt><trkpt lat="45.79368581381955" lon="4.701824166938223"><ele>296.57142857142856</ele><time>2026-04-17T16:03:01.999Z</time></trkpt><trkpt lat="45.793627710304236" lon="4.701767262518062"><ele>296.85714285714283</ele><time>2026-04-17T16:03:07.999Z</time></trkpt><trkpt lat="45.79358957951449" lon="4.701693678815186"><ele>297.1428571428571</ele><time>2026-04-17T16:03:13.999Z</time></trkpt><trkpt lat="45.7935449008104" lon="4.701629821452293"><ele>297.4285714285714</ele><time>2026-04-17T16:03:18.999Z</time></trkpt><trkpt lat="45.793490599836666" lon="4.701567663108237"><ele>297.7142857142857</ele><time>2026-04-17T16:03:24.999Z</time></trkpt><trkpt lat="45.793481264641315" lon="4.701472756607184"><ele>298.0</ele><time>2026-04-17T16:03:31Z</time></trkpt><trkpt lat="45.793493414121336" lon="4.701374890829187"><ele>298.1428571428571</ele><time>2026-04-17T16:03:37Z</time></trkpt><trkpt lat="45.79351023325609" lon="4.701274306569446"><ele>298.2857142857143</ele><time>2026-04-17T16:03:44Z</time></trkpt><trkpt lat="45.79353001472402" lon="4.70118321527009"><ele>298.42857142857144</ele><time>2026-04-17T16:03:50Z</time></trkpt><trkpt lat="45.793558675495994" lon="4.701097160966836"><ele>298.57142857142856</ele><time>2026-04-17T16:03:56Z</time></trkpt><trkpt lat="45.79358925792187" lon="4.70101503660349"><ele>298.7142857142857</ele><time>2026-04-17T16:04:01Z</time></trkpt><trkpt lat="45.79362089338227" lon="4.700926391710595"><ele>298.85714285714283</ele><time>2026-04-17T16:04:07Z</time></trkpt><trkpt lat="45.793657661119354" lon="4.700832880682273"><ele>299.0</ele><time>2026-04-17T16:04:13Z</time></trkpt><trkpt lat="45.79368745447322" lon="4.700750182705009"><ele>299.1428571428571</ele><time>2026-04-17T16:04:19Z</time></trkpt><trkpt lat="45.79370917289763" lon="4.700656265823418"><ele>299.2857142857143</ele><time>2026-04-17T16:04:25Z</time></trkpt><trkpt lat="45.7937221891863" lon="4.700565462764415"><ele>299.42857142857144</ele><time>2026-04-17T16:04:31Z</time></trkpt><trkpt lat="45.7936849754011" lon="4.700489132767204"><ele>299.57142857142856</ele><time>2026-04-17T16:04:37Z</time></trkpt><trkpt lat="45.7936061981845" lon="4.7004635162474"><ele>299.7142857142857</ele><time>2026-04-17T16:04:45.999Z</time></trkpt><trkpt lat="45.79354730334351" lon="4.700403059439707"><ele>299.85714285714283</ele><time>2026-04-17T16:04:52.999Z</time></trkpt><trkpt lat="45.79351044946261" lon="4.700328214982924"><ele>300.0</ele><time>2026-04-17T16:04:58.999Z</time></trkpt><trkpt lat="45.793491072179684" lon="4.7002309993384435"><ele>299.99999999999994</ele><time>2026-04-17T16:05:04.999Z</time></trkpt><trkpt lat="45.79348108946222" lon="4.700131283753736"><ele>300.0</ele><time>2026-04-17T16:05:10.999Z</time></trkpt><trkpt lat="45.79347533837129" lon="4.7000378141313135"><ele>300.0</ele><time>2026-04-17T16:05:16.999Z</time></trkpt><trkpt lat="45.7934840132466" lon="4.6999277723431"><ele>300.0</ele><time>2026-04-17T16:05:23.999Z</time></trkpt><trkpt lat="45.79350091687491" lon="4.69983263661053"><ele>300.0</ele><time>2026-04-17T16:05:30.999Z</time></trkpt><trkpt lat="45.79351756443745" lon="4.69973623225584"><ele>299.99999999999994</ele><time>2026-04-17T16:05:37Z</time></trkpt><trkpt lat="45.79353270520207" lon="4.699644375953923"><ele>300.0</ele><time>2026-04-17T16:05:43Z</time></trkpt><trkpt lat="45.79353723285651" lon="4.699540570312193"><ele>300.1428571428571</ele><time>2026-04-17T16:05:50Z</time></trkpt><trkpt lat="45.79352628962259" lon="4.699440436412068"><ele>300.2857142857143</ele><time>2026-04-17T16:05:57Z</time></trkpt><trkpt lat="45.793497949527286" lon="4.699340597603165"><ele>300.42857142857144</ele><time>2026-04-17T16:06:03Z</time></trkpt><trkpt lat="45.79351420028441" lon="4.69925213582795"><ele>300.57142857142856</ele><time>2026-04-17T16:06:09Z</time></trkpt><trkpt lat="45.793522502236826" lon="4.699151107412107"><ele>300.7142857142857</ele><time>2026-04-17T16:06:15Z</time></trkpt><trkpt lat="45.79352867012445" lon="4.699055615885687"><ele>300.85714285714283</ele><time>2026-04-17T16:06:21Z</time></trkpt><trkpt lat="45.79353337764147" lon="4.69895774080246"><ele>301.0</ele><time>2026-04-17T16:06:27Z</time></trkpt><trkpt lat="45.793530734996175" lon="4.698855536220715"><ele>301.42857142857144</ele><time>2026-04-17T16:06:33Z</time></trkpt><trkpt lat="45.79353796659252" lon="4.698765505311804"><ele>301.8571428571429</ele><time>2026-04-17T16:06:39Z</time></trkpt><trkpt lat="45.793553363621136" lon="4.698668258870439"><ele>302.2857142857143</ele><time>2026-04-17T16:06:45Z</time></trkpt><trkpt lat="45.79356254979536" lon="4.698564712838808"><ele>302.7142857142857</ele><time>2026-04-17T16:06:53.999Z</time></trkpt><trkpt lat="45.793572492553466" lon="4.698473954762837"><ele>303.14285714285717</ele><time>2026-04-17T16:06:59.999Z</time></trkpt><trkpt lat="45.79358046176609" lon="4.6983750898700425"><ele>303.57142857142856</ele><time>2026-04-17T16:07:05.999Z</time></trkpt><trkpt lat="45.79359725765727" lon="4.698279358678857"><ele>304.0</ele><time>2026-04-17T16:07:11.999Z</time></trkpt><trkpt lat="45.79361085777146" lon="4.698190405711565"><ele>304.4285714285714</ele><time>2026-04-17T16:07:17.999Z</time></trkpt><trkpt lat="45.7936263755908" lon="4.698097924637697"><ele>304.8571428571429</ele><time>2026-04-17T16:07:22.999Z</time></trkpt><trkpt lat="45.79364119651388" lon="4.697994213762832"><ele>305.2857142857143</ele><time>2026-04-17T16:07:29.999Z</time></trkpt><trkpt lat="45.793655694146665" lon="4.697901031505004"><ele>305.71428571428567</ele><time>2026-04-17T16:07:34.999Z</time></trkpt><trkpt lat="45.793670343591266" lon="4.697811859827853"><ele>306.1428571428571</ele><time>2026-04-17T16:07:41Z</time></trkpt><trkpt lat="45.793689927550574" lon="4.6977212789402945"><ele>306.57142857142856</ele><time>2026-04-17T16:07:47Z</time></trkpt><trkpt lat="45.79370382200167" lon="4.697626299581233"><ele>307.0</ele><time>2026-04-17T16:07:56Z</time></trkpt><trkpt lat="45.79372831229917" lon="4.697536966439039"><ele>307.4285714285714</ele><time>2026-04-17T16:08:02Z</time></trkpt><trkpt lat="45.79374887846382" lon="4.697443597852745"><ele>307.85714285714283</ele><time>2026-04-17T16:08:08Z</time></trkpt><trkpt lat="45.79376559291669" lon="4.697344996510598"><ele>308.2857142857143</ele><time>2026-04-17T16:08:19Z</time></trkpt><trkpt lat="45.79378368589658" lon="4.697252405194056"><ele>308.71428571428567</ele><time>2026-04-17T16:08:25Z</time></trkpt><trkpt lat="45.79379704159326" lon="4.697162445571898"><ele>309.1428571428571</ele><time>2026-04-17T16:08:30Z</time></trkpt><trkpt lat="45.79380856138462" lon="4.697062535719994"><ele>309.57142857142856</ele><time>2026-04-17T16:08:37Z</time></trkpt><trkpt lat="45.79381450080691" lon="4.696969466763644"><ele>310.0</ele><time>2026-04-17T16:08:43Z</time></trkpt><trkpt lat="45.793815920782656" lon="4.696878474000686"><ele>310.57142857142856</ele><time>2026-04-17T16:09:00.999Z</time></trkpt><trkpt lat="45.79383726198317" lon="4.696784341758434"><ele>311.1428571428571</ele><time>2026-04-17T16:09:06.999Z</time></trkpt><trkpt lat="45.79384896908591" lon="4.696686087621747"><ele>311.71428571428567</ele><time>2026-04-17T16:09:12.999Z</time></trkpt><trkpt lat="45.793853447934254" lon="4.696579702910401"><ele>312.2857142857143</ele><time>2026-04-17T16:09:19.999Z</time></trkpt><trkpt lat="45.79387000977718" lon="4.6964735230513295"><ele>312.85714285714283</ele><time>2026-04-17T16:09:25.999Z</time></trkpt><trkpt lat="45.793874616017156" lon="4.696382428081807"><ele>313.4285714285714</ele><time>2026-04-17T16:09:31.999Z</time></trkpt><trkpt lat="45.79389068181818" lon="4.696285059292862"><ele>314.0</ele><time>2026-04-17T16:09:37.999Z</time></trkpt><trkpt lat="45.793902947070855" lon="4.696193827526895"><ele>313.99999999999994</ele><time>2026-04-17T16:09:43.999Z</time></trkpt><trkpt lat="45.79391613407535" lon="4.696098196384439"><ele>314.0</ele><time>2026-04-17T16:09:50Z</time></trkpt><trkpt lat="45.79393288870705" lon="4.695998481200131"><ele>314.0</ele><time>2026-04-17T16:09:56Z</time></trkpt><trkpt lat="45.7939462460147" lon="4.695909754957693"><ele>314.0</ele><time>2026-04-17T16:10:02Z</time></trkpt><trkpt lat="45.79396605916014" lon="4.6958192067320415"><ele>314.0</ele><time>2026-04-17T16:10:08Z</time></trkpt><trkpt lat="45.793983556171824" lon="4.6957277747061426"><ele>313.99999999999994</ele><time>2026-04-17T16:10:13Z</time></trkpt><trkpt lat="45.7940051050617" lon="4.695635015051687"><ele>314.0</ele><time>2026-04-17T16:10:19Z</time></trkpt><trkpt lat="45.79401295388194" lon="4.695545404649321"><ele>314.5</ele><time>2026-04-17T16:10:24Z</time></trkpt><trkpt lat="45.79403147074502" lon="4.6954360404782625"><ele>315.0</ele><time>2026-04-17T16:10:53.999Z</time></trkpt><trkpt lat="45.7940534256768" lon="4.695334291609736"><ele>315.5</ele><time>2026-04-17T16:10:57.999Z</time></trkpt><trkpt lat="45.7940718112005" lon="4.695235692171941"><ele>316.0</ele><time>2026-04-17T16:11:01.999Z</time></trkpt><trkpt lat="45.79409817024277" lon="4.695121737375294"><ele>316.5</ele><time>2026-04-17T16:11:04.999Z</time></trkpt><trkpt lat="45.79412663906024" lon="4.695001733584733"><ele>317.0</ele><time>2026-04-17T16:11:07.999Z</time></trkpt><trkpt lat="45.79415350215369" lon="4.6948875808646395"><ele>317.0</ele><time>2026-04-17T16:11:10.999Z</time></trkpt><trkpt lat="45.794176538550644" lon="4.694753720753168"><ele>317.0</ele><time>2026-04-17T16:11:13.999Z</time></trkpt><trkpt lat="45.794202952875416" lon="4.694655937977036"><ele>317.0</ele><time>2026-04-17T16:11:16.999Z</time></trkpt><trkpt lat="45.79424075245251" lon="4.6945398145485955"><ele>317.0</ele><time>2026-04-17T16:11:19.999Z</time></trkpt><trkpt lat="45.79425472449267" lon="4.694421017072012"><ele>317.0</ele><time>2026-04-17T16:11:22.999Z</time></trkpt><trkpt lat="45.79427240975028" lon="4.6943119176272345"><ele>317.0</ele><time>2026-04-17T16:11:25.999Z</time></trkpt><trkpt lat="45.794284787227944" lon="4.69419526433805"><ele>317.83333333333337</ele><time>2026-04-17T16:11:28.999Z</time></trkpt><trkpt lat="45.794306287161255" lon="4.694080248357817"><ele>318.6666666666667</ele><time>2026-04-17T16:11:31.999Z</time></trkpt><trkpt lat="45.794328362064356" lon="4.693958808942913"><ele>319.5</ele><time>2026-04-17T16:11:34.999Z</time></trkpt><trkpt lat="45.79433034563446" lon="4.693845551501241"><ele>320.3333333333333</ele><time>2026-04-17T16:11:37.999Z</time></trkpt><trkpt lat="45.794334579964826" lon="4.693716592322133"><ele>321.16666666666663</ele><time>2026-04-17T16:11:40.999Z</time></trkpt><trkpt lat="45.7943266743418" lon="4.6935995141832985"><ele>322.0</ele><time>2026-04-17T16:11:43.999Z</time></trkpt><trkpt lat="45.7943257148688" lon="4.693501934874895"><ele>322.16666666666663</ele><time>2026-04-17T16:11:46.999Z</time></trkpt><trkpt lat="45.79434465544506" lon="4.693414285472065"><ele>322.3333333333333</ele><time>2026-04-17T16:11:50.999Z</time></trkpt><trkpt lat="45.79435118870906" lon="4.693313806653821"><ele>322.5</ele><time>2026-04-17T16:11:55Z</time></trkpt><trkpt lat="45.794351928043284" lon="4.693197493140199"><ele>322.6666666666667</ele><time>2026-04-17T16:12:18Z</time></trkpt><trkpt lat="45.79436304060133" lon="4.693093917653289"><ele>322.83333333333337</ele><time>2026-04-17T16:12:22Z</time></trkpt><trkpt lat="45.79438371361944" lon="4.692994745838316"><ele>323.0</ele><time>2026-04-17T16:12:25Z</time></trkpt><trkpt lat="45.79440193588586" lon="4.692869066153656"><ele>323.5</ele><time>2026-04-17T16:12:28Z</time></trkpt><trkpt lat="45.79441925989473" lon="4.692744259461571"><ele>324.0</ele><time>2026-04-17T16:12:31Z</time></trkpt><trkpt lat="45.79444546147877" lon="4.692620927276497"><ele>324.5</ele><time>2026-04-17T16:12:34Z</time></trkpt><trkpt lat="45.79446495509875" lon="4.692501298693183"><ele>325.0</ele><time>2026-04-17T16:12:37Z</time></trkpt><trkpt lat="45.79448006016735" lon="4.692378643809757"><ele>325.5</ele><time>2026-04-17T16:12:40Z</time></trkpt><trkpt lat="45.79449307889001" lon="4.6922886804990185"><ele>326.0</ele><time>2026-04-17T16:12:42Z</time></trkpt><trkpt lat="45.794511299277204" lon="4.692200870769831"><ele>326.0</ele><time>2026-04-17T16:12:44Z</time></trkpt><trkpt lat="45.7945277817379" lon="4.692112400839442"><ele>326.0</ele><time>2026-04-17T16:12:46Z</time></trkpt><trkpt lat="45.79455018688664" lon="4.691983373983127"><ele>326.0</ele><time>2026-04-17T16:12:49Z</time></trkpt><trkpt lat="45.79456750951006" lon="4.691858586409354"><ele>326.0</ele><time>2026-04-17T16:12:52Z</time></trkpt><trkpt lat="45.79458951366737" lon="4.691746785065108"><ele>326.0</ele><time>2026-04-17T16:12:55Z</time></trkpt><trkpt lat="45.79460723887213" lon="4.691625697491425"><ele>326.0</ele><time>2026-04-17T16:12:57.999Z</time></trkpt><trkpt lat="45.79462850082179" lon="4.691507852453571"><ele>326.6666666666667</ele><time>2026-04-17T16:13:00.999Z</time></trkpt><trkpt lat="45.79464272073146" lon="4.6913824645682185"><ele>327.33333333333337</ele><time>2026-04-17T16:13:03.999Z</time></trkpt><trkpt lat="45.79466210069153" lon="4.691274269399728"><ele>328.0</ele><time>2026-04-17T16:13:06.999Z</time></trkpt><trkpt lat="45.794677327335" lon="4.691159664230272"><ele>328.6666666666667</ele><time>2026-04-17T16:13:09.999Z</time></trkpt><trkpt lat="45.79469078005779" lon="4.691040167853887"><ele>329.3333333333333</ele><time>2026-04-17T16:13:12.999Z</time></trkpt><trkpt lat="45.79470285757554" lon="4.690921710588597"><ele>330.0</ele><time>2026-04-17T16:13:15.999Z</time></trkpt><trkpt lat="45.794702947714434" lon="4.690796207598777"><ele>330.5</ele><time>2026-04-17T16:13:18.999Z</time></trkpt><trkpt lat="45.7946940153897" lon="4.690670588918626"><ele>331.0</ele><time>2026-04-17T16:13:21.999Z</time></trkpt><trkpt lat="45.79469793519751" lon="4.690552830167819"><ele>331.5</ele><time>2026-04-17T16:13:24.999Z</time></trkpt><trkpt lat="45.79469911057864" lon="4.690437989713019"><ele>332.0</ele><time>2026-04-17T16:13:27.999Z</time></trkpt><trkpt lat="45.79469923418007" lon="4.690338858377054"><ele>332.5</ele><time>2026-04-17T16:13:30.999Z</time></trkpt><trkpt lat="45.79470409492901" lon="4.690227931946657"><ele>333.0</ele><time>2026-04-17T16:13:34.999Z</time></trkpt><trkpt lat="45.79472828479458" lon="4.690137127274129"><ele>332.79999999999995</ele><time>2026-04-17T16:13:37.999Z</time></trkpt><trkpt lat="45.794792003342195" lon="4.690137448564621"><ele>332.6</ele><time>2026-04-17T16:13:39.999Z</time></trkpt><trkpt lat="45.79486702867183" lon="4.690162562022239"><ele>332.4</ele><time>2026-04-17T16:13:41.999Z</time></trkpt><trkpt lat="45.794964826953475" lon="4.690162352837873"><ele>332.20000000000005</ele><time>2026-04-17T16:13:43.999Z</time></trkpt><trkpt lat="45.795076485895486" lon="4.6901710483317745"><ele>332.0</ele><time>2026-04-17T16:13:45.999Z</time></trkpt><trkpt lat="45.79519984630881" lon="4.690178237354214"><ele>332.0</ele><time>2026-04-17T16:13:47.999Z</time></trkpt><trkpt lat="45.79526311023598" lon="4.690184640014851"><ele>332.0</ele><time>2026-04-17T16:13:48.999Z</time></trkpt><trkpt lat="45.79533067043029" lon="4.690186941045418"><ele>332.0</ele><time>2026-04-17T16:13:49.999Z</time></trkpt><trkpt lat="45.79540112581589" lon="4.690191594615794"><ele>332.0</ele><time>2026-04-17T16:13:50.999Z</time></trkpt><trkpt lat="45.79547198070358" lon="4.690195307223731"><ele>332.0</ele><time>2026-04-17T16:13:51.999Z</time></trkpt><trkpt lat="45.79554517479558" lon="4.690202103304835"><ele>332.0</ele><time>2026-04-17T16:13:52.999Z</time></trkpt><trkpt lat="45.79562412124558" lon="4.690204772277294"><ele>332.0</ele><time>2026-04-17T16:13:53.999Z</time></trkpt><trkpt lat="45.795706232782514" lon="4.690212550534277"><ele>332.0</ele><time>2026-04-17T16:13:54.999Z</time></trkpt><trkpt lat="45.79578957306532" lon="4.690241031260263"><ele>332.0</ele><time>2026-04-17T16:13:55.999Z</time></trkpt><trkpt lat="45.79587704087573" lon="4.690272652722953"><ele>332.0</ele><time>2026-04-17T16:13:56.999Z</time></trkpt><trkpt lat="45.795960961592336" lon="4.69032812734609"><ele>332.0</ele><time>2026-04-17T16:13:58Z</time></trkpt><trkpt lat="45.79604312303269" lon="4.690404267412177"><ele>332.0</ele><time>2026-04-17T16:13:59Z</time></trkpt><trkpt lat="45.79611616569811" lon="4.690495244278805"><ele>331.5</ele><time>2026-04-17T16:14:00Z</time></trkpt><trkpt lat="45.796179831203546" lon="4.690600348257709"><ele>331.0</ele><time>2026-04-17T16:14:01Z</time></trkpt><trkpt lat="45.796221654202476" lon="4.6907194905998075"><ele>330.5</ele><time>2026-04-17T16:14:02Z</time></trkpt><trkpt lat="45.796276529958796" lon="4.690812838844864"><ele>330.0</ele><time>2026-04-17T16:14:03Z</time></trkpt><trkpt lat="45.7963471691478" lon="4.690881317366797"><ele>329.5</ele><time>2026-04-17T16:14:04Z</time></trkpt><trkpt lat="45.79640953529654" lon="4.690964725954932"><ele>329.0</ele><time>2026-04-17T16:14:05Z</time></trkpt><trkpt lat="45.79647335820227" lon="4.691036407300806"><ele>328.83333333333337</ele><time>2026-04-17T16:14:06Z</time></trkpt><trkpt lat="45.79654993389344" lon="4.6910940852349885"><ele>328.6666666666667</ele><time>2026-04-17T16:14:07Z</time></trkpt><trkpt lat="45.79662182630839" lon="4.691148947771589"><ele>328.5</ele><time>2026-04-17T16:14:08Z</time></trkpt><trkpt lat="45.796702366851285" lon="4.691201932937105"><ele>328.3333333333333</ele><time>2026-04-17T16:14:09Z</time></trkpt><trkpt lat="45.79678204995707" lon="4.691254493745262"><ele>328.16666666666663</ele><time>2026-04-17T16:14:10Z</time></trkpt><trkpt lat="45.79684919244819" lon="4.6913035737636815"><ele>328.0</ele><time>2026-04-17T16:14:11Z</time></trkpt><trkpt lat="45.796923517196944" lon="4.691354007736259"><ele>328.0</ele><time>2026-04-17T16:14:12Z</time></trkpt><trkpt lat="45.79699909836137" lon="4.691401342032341"><ele>328.0</ele><time>2026-04-17T16:14:13Z</time></trkpt><trkpt lat="45.79707436414985" lon="4.691447363747335"><ele>328.0</ele><time>2026-04-17T16:14:14Z</time></trkpt><trkpt lat="45.79714843615943" lon="4.691496277583006"><ele>328.0</ele><time>2026-04-17T16:14:15Z</time></trkpt><trkpt lat="45.79721974493155" lon="4.6915440988756965"><ele>328.0</ele><time>2026-04-17T16:14:16Z</time></trkpt><trkpt lat="45.7972930328409" lon="4.691591155239817"><ele>328.0</ele><time>2026-04-17T16:14:17Z</time></trkpt><trkpt lat="45.79737410385624" lon="4.691631700598313"><ele>328.0</ele><time>2026-04-17T16:14:18Z</time></trkpt><trkpt lat="45.79744224091273" lon="4.691683763842216"><ele>328.0</ele><time>2026-04-17T16:14:19Z</time></trkpt><trkpt lat="45.79751398576021" lon="4.691732874311337"><ele>328.0</ele><time>2026-04-17T16:14:20Z</time></trkpt><trkpt lat="45.797589148584" lon="4.691777001556472"><ele>328.0</ele><time>2026-04-17T16:14:21Z</time></trkpt><trkpt lat="45.79766303162976" lon="4.691822235582362"><ele>328.0</ele><time>2026-04-17T16:14:22Z</time></trkpt><trkpt lat="45.79773667368634" lon="4.691874164448371"><ele>328.0</ele><time>2026-04-17T16:14:23Z</time></trkpt><trkpt lat="45.79780701778272" lon="4.691936895738208"><ele>328.0</ele><time>2026-04-17T16:14:24Z</time></trkpt><trkpt lat="45.79785997366205" lon="4.692042186460252"><ele>328.0</ele><time>2026-04-17T16:14:25Z</time></trkpt><trkpt lat="45.79791014491516" lon="4.6921332341548725"><ele>328.0</ele><time>2026-04-17T16:14:26Z</time></trkpt><trkpt lat="45.79797086746574" lon="4.692216783672404"><ele>328.0</ele><time>2026-04-17T16:14:27Z</time></trkpt><trkpt lat="45.79802614251774" lon="4.692323222164298"><ele>328.0</ele><time>2026-04-17T16:14:28Z</time></trkpt><trkpt lat="45.79808234018207" lon="4.692424951613311"><ele>328.0</ele><time>2026-04-17T16:14:29Z</time></trkpt><trkpt lat="45.79813271587651" lon="4.692526207454961"><ele>328.0</ele><time>2026-04-17T16:14:30Z</time></trkpt><trkpt lat="45.79817673792665" lon="4.692641978966011"><ele>328.0</ele><time>2026-04-17T16:14:31Z</time></trkpt><trkpt lat="45.79824483856964" lon="4.69273572206953"><ele>328.0</ele><time>2026-04-17T16:14:32Z</time></trkpt><trkpt lat="45.79828923466584" lon="4.692859835253787"><ele>328.0</ele><time>2026-04-17T16:14:33Z</time></trkpt><trkpt lat="45.79834754029542" lon="4.692970154350952"><ele>328.0</ele><time>2026-04-17T16:14:34Z</time></trkpt><trkpt lat="45.79840559086203" lon="4.693076738862808"><ele>327.59999999999997</ele><time>2026-04-17T16:14:35Z</time></trkpt><trkpt lat="45.79846497308673" lon="4.693185590331239"><ele>327.2</ele><time>2026-04-17T16:14:36Z</time></trkpt><trkpt lat="45.79852352988991" lon="4.693289352632368"><ele>326.8</ele><time>2026-04-17T16:14:37Z</time></trkpt><trkpt lat="45.798592731789746" lon="4.69337857731593"><ele>326.4</ele><time>2026-04-17T16:14:38Z</time></trkpt><trkpt lat="45.798649277220925" lon="4.693487285490699"><ele>326.0</ele><time>2026-04-17T16:14:39Z</time></trkpt><trkpt lat="45.79870628671803" lon="4.693595151445876"><ele>325.4</ele><time>2026-04-17T16:14:40Z</time></trkpt><trkpt lat="45.79876897896447" lon="4.69369066750202"><ele>324.8</ele><time>2026-04-17T16:14:41Z</time></trkpt><trkpt lat="45.79884416063205" lon="4.693768669056551"><ele>324.2</ele><time>2026-04-17T16:14:42Z</time></trkpt><trkpt lat="45.798915376947534" lon="4.693853435326054"><ele>323.59999999999997</ele><time>2026-04-17T16:14:43Z</time></trkpt><trkpt lat="45.79897283023792" lon="4.6939522395003195"><ele>323.0</ele><time>2026-04-17T16:14:44Z</time></trkpt><trkpt lat="45.799041914291884" lon="4.694027152726784"><ele>323.0</ele><time>2026-04-17T16:14:45Z</time></trkpt><trkpt lat="45.79910745460445" lon="4.694099678957618"><ele>323.0</ele><time>2026-04-17T16:14:46Z</time></trkpt><trkpt lat="45.7991711953066" lon="4.694165652623246"><ele>323.0</ele><time>2026-04-17T16:14:47Z</time></trkpt><trkpt lat="45.79927413904606" lon="4.694249778679623"><ele>323.0</ele><time>2026-04-17T16:14:49Z</time></trkpt><trkpt lat="45.79936832190922" lon="4.694294513777871"><ele>323.0</ele><time>2026-04-17T16:14:51Z</time></trkpt><trkpt lat="45.79945535442311" lon="4.694268106387789"><ele>323.0</ele><time>2026-04-17T16:14:53Z</time></trkpt><trkpt lat="45.799499344397" lon="4.694124470305904"><ele>323.0</ele><time>2026-04-17T16:14:55Z</time></trkpt><trkpt lat="45.799567765661365" lon="4.693994500515312"><ele>323.0</ele><time>2026-04-17T16:14:57Z</time></trkpt><trkpt lat="45.79962156273359" lon="4.6938485517595305"><ele>323.0</ele><time>2026-04-17T16:14:58.999Z</time></trkpt><trkpt lat="45.79965813470401" lon="4.693773087545128"><ele>323.0</ele><time>2026-04-17T16:14:59.999Z</time></trkpt><trkpt lat="45.79970039030078" lon="4.693700701175418"><ele>323.00000000000006</ele><time>2026-04-17T16:15:00.999Z</time></trkpt><trkpt lat="45.79973159768142" lon="4.693611297460992"><ele>323.0</ele><time>2026-04-17T16:15:01.999Z</time></trkpt><trkpt lat="45.799767841954804" lon="4.693530137787128"><ele>323.0</ele><time>2026-04-17T16:15:02.999Z</time></trkpt><trkpt lat="45.799800843748216" lon="4.6934418373874704"><ele>323.0</ele><time>2026-04-17T16:15:03.999Z</time></trkpt><trkpt lat="45.79984577395312" lon="4.693353220737071"><ele>323.0</ele><time>2026-04-17T16:15:04.999Z</time></trkpt><trkpt lat="45.799895737444295" lon="4.693274540685961"><ele>323.00000000000006</ele><time>2026-04-17T16:15:05.999Z</time></trkpt><trkpt lat="45.79993539079875" lon="4.69318393230718"><ele>323.0</ele><time>2026-04-17T16:15:06.999Z</time></trkpt><trkpt lat="45.799982001220926" lon="4.69310495500695"><ele>323.1666666666667</ele><time>2026-04-17T16:15:07.999Z</time></trkpt><trkpt lat="45.80002869920778" lon="4.693031088620916"><ele>323.33333333333337</ele><time>2026-04-17T16:15:08.999Z</time></trkpt><trkpt lat="45.800090426399315" lon="4.692947323020951"><ele>323.5</ele><time>2026-04-17T16:15:09.999Z</time></trkpt><trkpt lat="45.800147223623725" lon="4.692868644427151"><ele>323.6666666666667</ele><time>2026-04-17T16:15:10.999Z</time></trkpt><trkpt lat="45.800212876584304" lon="4.692788939725327"><ele>323.8333333333333</ele><time>2026-04-17T16:15:11.999Z</time></trkpt><trkpt lat="45.80027226556118" lon="4.69270156076512"><ele>324.0</ele><time>2026-04-17T16:15:12.999Z</time></trkpt><trkpt lat="45.800334985239274" lon="4.692611127060688"><ele>323.1666666666667</ele><time>2026-04-17T16:15:13.999Z</time></trkpt><trkpt lat="45.80039724713183" lon="4.692519418866553"><ele>322.3333333333333</ele><time>2026-04-17T16:15:14.999Z</time></trkpt><trkpt lat="45.800456800439406" lon="4.6924246730418995"><ele>321.5</ele><time>2026-04-17T16:15:15.999Z</time></trkpt><trkpt lat="45.800516253423446" lon="4.692333268983956"><ele>320.66666666666663</ele><time>2026-04-17T16:15:16.999Z</time></trkpt><trkpt lat="45.800575403549324" lon="4.692236149044637"><ele>319.8333333333333</ele><time>2026-04-17T16:15:17.999Z</time></trkpt><trkpt lat="45.800631732009144" lon="4.692140628961823"><ele>319.0</ele><time>2026-04-17T16:15:18.999Z</time></trkpt><trkpt lat="45.8006873092168" lon="4.692045503667441"><ele>319.0</ele><time>2026-04-17T16:15:19.999Z</time></trkpt><trkpt lat="45.800739356018234" lon="4.691953414411619"><ele>319.0</ele><time>2026-04-17T16:15:20.999Z</time></trkpt><trkpt lat="45.80079571240772" lon="4.691862724431645"><ele>319.0</ele><time>2026-04-17T16:15:21.999Z</time></trkpt><trkpt lat="45.80086113063325" lon="4.6917814735589785"><ele>319.0</ele><time>2026-04-17T16:15:22.999Z</time></trkpt><trkpt lat="45.80093853362861" lon="4.691725464168456"><ele>319.0</ele><time>2026-04-17T16:15:23.999Z</time></trkpt><trkpt lat="45.801022470882074" lon="4.691662860781517"><ele>319.0</ele><time>2026-04-17T16:15:24.999Z</time></trkpt><trkpt lat="45.80111110967855" lon="4.691615428216686"><ele>318.8</ele><time>2026-04-17T16:15:25.999Z</time></trkpt><trkpt lat="45.80120137298816" lon="4.691566817291512"><ele>318.59999999999997</ele><time>2026-04-17T16:15:26.999Z</time></trkpt><trkpt lat="45.80129373420479" lon="4.691518162235048"><ele>318.4</ele><time>2026-04-17T16:15:27.999Z</time></trkpt><trkpt lat="45.80138708080323" lon="4.6914652075070125"><ele>318.2</ele><time>2026-04-17T16:15:28.999Z</time></trkpt><trkpt lat="45.80148184966623" lon="4.691411439333388"><ele>318.0</ele><time>2026-04-17T16:15:29.999Z</time></trkpt><trkpt lat="45.80158335301775" lon="4.691361095593732"><ele>318.0</ele><time>2026-04-17T16:15:30.999Z</time></trkpt><trkpt lat="45.80168376095181" lon="4.69130946207621"><ele>318.0</ele><time>2026-04-17T16:15:31.999Z</time></trkpt><trkpt lat="45.801788117487256" lon="4.691258167509973"><ele>318.0</ele><time>2026-04-17T16:15:32.999Z</time></trkpt><trkpt lat="45.801890912368" lon="4.69120810451835"><ele>318.0</ele><time>2026-04-17T16:15:33.999Z</time></trkpt><trkpt lat="45.80199561880151" lon="4.691147512320415"><ele>318.0</ele><time>2026-04-17T16:15:34.999Z</time></trkpt><trkpt lat="45.8020979557872" lon="4.691075030423362"><ele>316.0</ele><time>2026-04-17T16:15:35.999Z</time></trkpt><trkpt lat="45.802196901496565" lon="4.690989652572264"><ele>314.0</ele><time>2026-04-17T16:15:36.999Z</time></trkpt><trkpt lat="45.80228606217522" lon="4.690885166965539"><ele>312.0</ele><time>2026-04-17T16:15:37.999Z</time></trkpt><trkpt lat="45.80236831409403" lon="4.690773952948731"><ele>310.0</ele><time>2026-04-17T16:15:38.999Z</time></trkpt><trkpt lat="45.80245372997571" lon="4.690668345791901"><ele>310.0</ele><time>2026-04-17T16:15:39.999Z</time></trkpt><trkpt lat="45.80253905139136" lon="4.690565583559902"><ele>310.0</ele><time>2026-04-17T16:15:40.999Z</time></trkpt><trkpt lat="45.80261851361405" lon="4.690463502779818"><ele>310.0</ele><time>2026-04-17T16:15:41.999Z</time></trkpt><trkpt lat="45.80269649296155" lon="4.690369346805325"><ele>310.0</ele><time>2026-04-17T16:15:42.999Z</time></trkpt><trkpt lat="45.802764389733944" lon="4.690281348852408"><ele>310.0</ele><time>2026-04-17T16:15:43.999Z</time></trkpt><trkpt lat="45.80283724870667" lon="4.690199826006779"><ele>310.8333333333333</ele><time>2026-04-17T16:15:44.999Z</time></trkpt><trkpt lat="45.80290418460271" lon="4.690118323139849"><ele>311.66666666666663</ele><time>2026-04-17T16:15:45.999Z</time></trkpt><trkpt lat="45.80296318881886" lon="4.690040983730802"><ele>312.5</ele><time>2026-04-17T16:15:46.999Z</time></trkpt><trkpt lat="45.803020558942706" lon="4.689969101568264"><ele>313.3333333333333</ele><time>2026-04-17T16:15:47.999Z</time></trkpt><trkpt lat="45.80307289046812" lon="4.689902614735616"><ele>314.1666666666667</ele><time>2026-04-17T16:15:48.999Z</time></trkpt><trkpt lat="45.80312192045947" lon="4.689838313242613"><ele>315.0</ele><time>2026-04-17T16:15:49.999Z</time></trkpt><trkpt lat="45.80321448279267" lon="4.689724483461336"><ele>315.0</ele><time>2026-04-17T16:15:51.999Z</time></trkpt><trkpt lat="45.80330361929519" lon="4.689624185346128"><ele>315.0</ele><time>2026-04-17T16:15:53.999Z</time></trkpt><trkpt lat="45.80337682968097" lon="4.6895326654334095"><ele>315.0</ele><time>2026-04-17T16:15:55.999Z</time></trkpt><trkpt lat="45.80344143881987" lon="4.689451451664093"><ele>315.0</ele><time>2026-04-17T16:15:57.999Z</time></trkpt><trkpt lat="45.80349614734823" lon="4.689375404791778"><ele>315.0</ele><time>2026-04-17T16:15:59.999Z</time></trkpt><trkpt lat="45.80355496010513" lon="4.689310788462042"><ele>315.0</ele><time>2026-04-17T16:16:01.999Z</time></trkpt><trkpt lat="45.803613795403194" lon="4.689236766700474"><ele>316.14285714285717</ele><time>2026-04-17T16:16:04Z</time></trkpt><trkpt lat="45.803656606026045" lon="4.689167341906505"><ele>317.2857142857143</ele><time>2026-04-17T16:16:06Z</time></trkpt><trkpt lat="45.803703931558694" lon="4.689107028088848"><ele>318.42857142857144</ele><time>2026-04-17T16:16:08Z</time></trkpt><trkpt lat="45.80376603094578" lon="4.689028541778176"><ele>319.57142857142856</ele><time>2026-04-17T16:16:11Z</time></trkpt><trkpt lat="45.80382937908079" lon="4.688959790319856"><ele>320.7142857142857</ele><time>2026-04-17T16:16:14Z</time></trkpt><trkpt lat="45.80388888523846" lon="4.688881917046282"><ele>321.8571428571429</ele><time>2026-04-17T16:16:17Z</time></trkpt><trkpt lat="45.80394239745671" lon="4.688816271145022"><ele>323.0</ele><time>2026-04-17T16:16:20Z</time></trkpt><trkpt lat="45.80398441415048" lon="4.688742100995474"><ele>323.0</ele><time>2026-04-17T16:16:47Z</time></trkpt><trkpt lat="45.80404396331069" lon="4.688663644606843"><ele>323.0</ele><time>2026-04-17T16:16:51Z</time></trkpt><trkpt lat="45.80410621701487" lon="4.688604918388709"><ele>323.0</ele><time>2026-04-17T16:16:54Z</time></trkpt><trkpt lat="45.80416588389259" lon="4.688522118910347"><ele>323.0</ele><time>2026-04-17T16:16:57Z</time></trkpt><trkpt lat="45.80423047837897" lon="4.688445978304406"><ele>323.0</ele><time>2026-04-17T16:17:00Z</time></trkpt><trkpt lat="45.804287863171716" lon="4.688350724060161"><ele>323.0</ele><time>2026-04-17T16:17:03Z</time></trkpt><trkpt lat="45.80435041996051" lon="4.688265578424661"><ele>324.1666666666667</ele><time>2026-04-17T16:17:05.999Z</time></trkpt><trkpt lat="45.804412129217376" lon="4.6881894693953"><ele>325.33333333333337</ele><time>2026-04-17T16:17:08.999Z</time></trkpt><trkpt lat="45.80447611043194" lon="4.688106406094591"><ele>326.5</ele><time>2026-04-17T16:17:11.999Z</time></trkpt><trkpt lat="45.804540355430305" lon="4.688026236586442"><ele>327.6666666666667</ele><time>2026-04-17T16:17:14.999Z</time></trkpt><trkpt lat="45.80460465849107" lon="4.68795038359522"><ele>328.8333333333333</ele><time>2026-04-17T16:17:17.999Z</time></trkpt><trkpt lat="45.80466778964138" lon="4.687872447426218"><ele>330.0</ele><time>2026-04-17T16:17:20.999Z</time></trkpt><trkpt lat="45.804727784938436" lon="4.6877956722347625"><ele>330.1666666666667</ele><time>2026-04-17T16:17:23.999Z</time></trkpt><trkpt lat="45.804796158527985" lon="4.687728109211552"><ele>330.3333333333333</ele><time>2026-04-17T16:17:26.999Z</time></trkpt><trkpt lat="45.8048631302261" lon="4.687648958623677"><ele>330.5</ele><time>2026-04-17T16:17:29.999Z</time></trkpt><trkpt lat="45.80492625230855" lon="4.687570196573586"><ele>330.66666666666663</ele><time>2026-04-17T16:17:32.999Z</time></trkpt><trkpt lat="45.80499638306912" lon="4.687499491454775"><ele>330.8333333333333</ele><time>2026-04-17T16:17:35.999Z</time></trkpt><trkpt lat="45.80507881435054" lon="4.687469996194487"><ele>331.0</ele><time>2026-04-17T16:17:38.999Z</time></trkpt><trkpt lat="45.80516409927012" lon="4.687480156565969"><ele>331.66666666666663</ele><time>2026-04-17T16:17:41.999Z</time></trkpt><trkpt lat="45.80525046791251" lon="4.687485931993712"><ele>332.3333333333333</ele><time>2026-04-17T16:17:44.999Z</time></trkpt><trkpt lat="45.805336233944374" lon="4.687497658714057"><ele>333.0</ele><time>2026-04-17T16:17:47.999Z</time></trkpt><trkpt lat="45.805412494961594" lon="4.6874441406956615"><ele>333.6666666666667</ele><time>2026-04-17T16:17:50.999Z</time></trkpt><trkpt lat="45.80548574918727" lon="4.687367458103023"><ele>334.33333333333337</ele><time>2026-04-17T16:17:53.999Z</time></trkpt><trkpt lat="45.80554252086828" lon="4.687262030438915"><ele>335.0</ele><time>2026-04-17T16:17:56.999Z</time></trkpt><trkpt lat="45.80560113247051" lon="4.687166432923883"><ele>335.0</ele><time>2026-04-17T16:17:59.999Z</time></trkpt><trkpt lat="45.80563236793817" lon="4.687085460868044"><ele>335.0</ele><time>2026-04-17T16:18:01.999Z</time></trkpt><trkpt lat="45.8056859675775" lon="4.6869845240676336"><ele>335.0</ele><time>2026-04-17T16:18:04.999Z</time></trkpt><trkpt lat="45.805725038607775" lon="4.686910757606275"><ele>335.0</ele><time>2026-04-17T16:18:06.999Z</time></trkpt><trkpt lat="45.80577442945704" lon="4.686812819955463"><ele>335.0</ele><time>2026-04-17T16:18:09Z</time></trkpt><trkpt lat="45.80581876222138" lon="4.686715662075279"><ele>335.0</ele><time>2026-04-17T16:18:11Z</time></trkpt><trkpt lat="45.80586177464722" lon="4.686623115992163"><ele>335.4285714285714</ele><time>2026-04-17T16:18:13Z</time></trkpt><trkpt lat="45.80590449871228" lon="4.686535666478076"><ele>335.85714285714283</ele><time>2026-04-17T16:18:15Z</time></trkpt><trkpt lat="45.805946564178825" lon="4.686447440017989"><ele>336.2857142857143</ele><time>2026-04-17T16:18:17Z</time></trkpt><trkpt lat="45.80598685891658" lon="4.686371532184209"><ele>336.71428571428567</ele><time>2026-04-17T16:18:19Z</time></trkpt><trkpt lat="45.80602350044212" lon="4.686289169133863"><ele>337.1428571428571</ele><time>2026-04-17T16:18:21Z</time></trkpt><trkpt lat="45.806058837814874" lon="4.686214028897253"><ele>337.57142857142856</ele><time>2026-04-17T16:18:23Z</time></trkpt><trkpt lat="45.80611087066985" lon="4.686110815109305"><ele>338.0</ele><time>2026-04-17T16:18:26Z</time></trkpt><trkpt lat="45.80614780831699" lon="4.686031786344868"><ele>338.33333333333337</ele><time>2026-04-17T16:18:28Z</time></trkpt><trkpt lat="45.8062011871551" lon="4.685920559576061"><ele>338.6666666666667</ele><time>2026-04-17T16:18:31Z</time></trkpt><trkpt lat="45.80623640739866" lon="4.6858375965322985"><ele>339.0</ele><time>2026-04-17T16:18:33Z</time></trkpt><trkpt lat="45.80629250443528" lon="4.6857287009412865"><ele>339.3333333333333</ele><time>2026-04-17T16:18:36Z</time></trkpt><trkpt lat="45.80634677422588" lon="4.685625310227006"><ele>339.66666666666663</ele><time>2026-04-17T16:18:39Z</time></trkpt><trkpt lat="45.806402933560165" lon="4.685533203653525"><ele>340.0</ele><time>2026-04-17T16:18:42Z</time></trkpt><trkpt lat="45.80645871288435" lon="4.685439897034276"><ele>340.0</ele><time>2026-04-17T16:18:45Z</time></trkpt><trkpt lat="45.8065139089768" lon="4.685339445040955"><ele>340.0</ele><time>2026-04-17T16:18:48Z</time></trkpt><trkpt lat="45.80656924826725" lon="4.685238555585569"><ele>340.0</ele><time>2026-04-17T16:18:51Z</time></trkpt><trkpt lat="45.80660684996422" lon="4.685162436157755"><ele>340.0</ele><time>2026-04-17T16:18:53Z</time></trkpt><trkpt lat="45.8066435539415" lon="4.685079321509497"><ele>340.0</ele><time>2026-04-17T16:18:55Z</time></trkpt><trkpt lat="45.80668048873074" lon="4.68500326031422"><ele>340.0</ele><time>2026-04-17T16:18:57Z</time></trkpt><trkpt lat="45.80671990305984" lon="4.68491860558022"><ele>340.0</ele><time>2026-04-17T16:18:59Z</time></trkpt><trkpt lat="45.806757853086204" lon="4.684822996601302"><ele>340.3333333333333</ele><time>2026-04-17T16:19:01Z</time></trkpt><trkpt lat="45.80679791958054" lon="4.684719526232075"><ele>340.66666666666663</ele><time>2026-04-17T16:19:03Z</time></trkpt><trkpt lat="45.80683652860692" lon="4.684609674897416"><ele>341.0</ele><time>2026-04-17T16:19:05Z</time></trkpt><trkpt lat="45.80688254936654" lon="4.68449705508954"><ele>341.3333333333333</ele><time>2026-04-17T16:19:07Z</time></trkpt><trkpt lat="45.80692671722771" lon="4.684385930082352"><ele>341.6666666666667</ele><time>2026-04-17T16:19:09Z</time></trkpt><trkpt lat="45.806969317465345" lon="4.684277304090228"><ele>342.0</ele><time>2026-04-17T16:19:11Z</time></trkpt><trkpt lat="45.807013927047095" lon="4.684168630798805"><ele>342.3333333333333</ele><time>2026-04-17T16:19:13Z</time></trkpt><trkpt lat="45.80705777752663" lon="4.684057199719724"><ele>342.6666666666667</ele><time>2026-04-17T16:19:15Z</time></trkpt><trkpt lat="45.807100905218206" lon="4.683948111654018"><ele>343.0</ele><time>2026-04-17T16:19:17Z</time></trkpt><trkpt lat="45.80715046206946" lon="4.68384574324983"><ele>343.33333333333337</ele><time>2026-04-17T16:19:19Z</time></trkpt><trkpt lat="45.80719013121456" lon="4.683726687240446"><ele>343.6666666666667</ele><time>2026-04-17T16:19:21Z</time></trkpt><trkpt lat="45.807237193672385" lon="4.68362095889418"><ele>344.0</ele><time>2026-04-17T16:19:22.999Z</time></trkpt><trkpt lat="45.8072826727656" lon="4.683515089792202"><ele>344.33333333333337</ele><time>2026-04-17T16:19:24.999Z</time></trkpt><trkpt lat="45.807327822017776" lon="4.683414930827345"><ele>344.6666666666667</ele><time>2026-04-17T16:19:26.999Z</time></trkpt><trkpt lat="45.807374573492005" lon="4.683313081465678"><ele>345.0</ele><time>2026-04-17T16:19:28.999Z</time></trkpt><trkpt lat="45.80742329228175" lon="4.683218817523607"><ele>345.3333333333333</ele><time>2026-04-17T16:19:30.999Z</time></trkpt><trkpt lat="45.807471065351116" lon="4.683115735854945"><ele>345.66666666666663</ele><time>2026-04-17T16:19:32.999Z</time></trkpt><trkpt lat="45.80751780103269" lon="4.683011865612549"><ele>346.0</ele><time>2026-04-17T16:19:34.999Z</time></trkpt><trkpt lat="45.80756620962711" lon="4.682913035342271"><ele>346.0</ele><time>2026-04-17T16:19:36.999Z</time></trkpt><trkpt lat="45.807614634242455" lon="4.682812556277966"><ele>346.0</ele><time>2026-04-17T16:19:38.999Z</time></trkpt><trkpt lat="45.80766288831807" lon="4.682723380991847"><ele>346.0</ele><time>2026-04-17T16:19:40.999Z</time></trkpt><trkpt lat="45.80770849702227" lon="4.68263305776916"><ele>346.0</ele><time>2026-04-17T16:19:42.999Z</time></trkpt><trkpt lat="45.807750134310126" lon="4.682548516649805"><ele>346.0</ele><time>2026-04-17T16:19:44.999Z</time></trkpt><trkpt lat="45.80780502880976" lon="4.6824375154836275"><ele>346.0</ele><time>2026-04-17T16:19:47.999Z</time></trkpt><trkpt lat="45.80787031005232" lon="4.682345774815738"><ele>345.66666666666663</ele><time>2026-04-17T16:19:50.999Z</time></trkpt><trkpt lat="45.807907000128615" lon="4.682272303843056"><ele>345.3333333333333</ele><time>2026-04-17T16:19:52.999Z</time></trkpt><trkpt lat="45.80794537717306" lon="4.682156967574829"><ele>345.0</ele><time>2026-04-17T16:19:55.999Z</time></trkpt><trkpt lat="45.808008375688964" lon="4.682071445182867"><ele>344.6666666666667</ele><time>2026-04-17T16:19:58.999Z</time></trkpt><trkpt lat="45.808060279339415" lon="4.681970989864577"><ele>344.33333333333337</ele><time>2026-04-17T16:20:01.999Z</time></trkpt><trkpt lat="45.808101688008556" lon="4.681851244681231"><ele>344.0</ele><time>2026-04-17T16:20:04.999Z</time></trkpt><trkpt lat="45.808144699537785" lon="4.681784095944829"><ele>344.6666666666667</ele><time>2026-04-17T16:20:06.999Z</time></trkpt><trkpt lat="45.80818341545666" lon="4.681706093099051"><ele>345.33333333333337</ele><time>2026-04-17T16:20:08.999Z</time></trkpt><trkpt lat="45.808222455568064" lon="4.6816288842764"><ele>346.0</ele><time>2026-04-17T16:20:10.999Z</time></trkpt><trkpt lat="45.808275014521136" lon="4.681517473879026"><ele>346.6666666666667</ele><time>2026-04-17T16:20:13.999Z</time></trkpt><trkpt lat="45.80831269833236" lon="4.681398716602424"><ele>347.3333333333333</ele><time>2026-04-17T16:20:17Z</time></trkpt><trkpt lat="45.80834442249666" lon="4.681271042216072"><ele>348.0</ele><time>2026-04-17T16:20:20Z</time></trkpt><trkpt lat="45.80836472461383" lon="4.681142070960366"><ele>347.8333333333333</ele><time>2026-04-17T16:20:23Z</time></trkpt><trkpt lat="45.80840145423092" lon="4.6810221086991"><ele>347.6666666666667</ele><time>2026-04-17T16:20:26Z</time></trkpt><trkpt lat="45.80844270917853" lon="4.680908789974104"><ele>347.5</ele><time>2026-04-17T16:20:29Z</time></trkpt><trkpt lat="45.808491592855916" lon="4.680803709710252"><ele>347.33333333333337</ele><time>2026-04-17T16:20:32Z</time></trkpt><trkpt lat="45.80853787277153" lon="4.6807349855316165"><ele>347.1666666666667</ele><time>2026-04-17T16:20:34Z</time></trkpt><trkpt lat="45.808581626962614" lon="4.680667259755486"><ele>347.0</ele><time>2026-04-17T16:20:36Z</time></trkpt><trkpt lat="45.80862828395764" lon="4.680601170888825"><ele>347.0</ele><time>2026-04-17T16:20:38Z</time></trkpt><trkpt lat="45.80867721723068" lon="4.680528184689631"><ele>347.0</ele><time>2026-04-17T16:20:40Z</time></trkpt><trkpt lat="45.80873740311015" lon="4.680438551621219"><ele>347.0</ele><time>2026-04-17T16:20:43Z</time></trkpt><trkpt lat="45.8087946357794" lon="4.680368578624192"><ele>347.0</ele><time>2026-04-17T16:20:45Z</time></trkpt><trkpt lat="45.80884960411015" lon="4.680313401444581"><ele>347.0</ele><time>2026-04-17T16:20:47Z</time></trkpt><trkpt lat="45.80890869019527" lon="4.680250951323424"><ele>347.0</ele><time>2026-04-17T16:20:49Z</time></trkpt><trkpt lat="45.80898693317794" lon="4.680199530932791"><ele>346.8</ele><time>2026-04-17T16:20:51Z</time></trkpt><trkpt lat="45.8090726901771" lon="4.680130476284588"><ele>346.6</ele><time>2026-04-17T16:20:53Z</time></trkpt><trkpt lat="45.80915993409327" lon="4.6800504734891515"><ele>346.40000000000003</ele><time>2026-04-17T16:20:55Z</time></trkpt><trkpt lat="45.809265113204084" lon="4.679980895985634"><ele>346.20000000000005</ele><time>2026-04-17T16:20:57Z</time></trkpt><trkpt lat="45.80937576228072" lon="4.6799027946636205"><ele>346.0</ele><time>2026-04-17T16:20:59Z</time></trkpt><trkpt lat="45.80943211466689" lon="4.679838300979436"><ele>346.0</ele><time>2026-04-17T16:21:00Z</time></trkpt><trkpt lat="45.80949431065476" lon="4.679782206334768"><ele>346.0</ele><time>2026-04-17T16:21:01Z</time></trkpt><trkpt lat="45.809558876584866" lon="4.679737063942615"><ele>346.0</ele><time>2026-04-17T16:21:02Z</time></trkpt><trkpt lat="45.809624085068634" lon="4.679674564837321"><ele>346.0</ele><time>2026-04-17T16:21:03Z</time></trkpt><trkpt lat="45.80968582790161" lon="4.67961317040501"><ele>346.0</ele><time>2026-04-17T16:21:04Z</time></trkpt><trkpt lat="45.80974791715632" lon="4.679544705303372"><ele>346.0</ele><time>2026-04-17T16:21:05Z</time></trkpt><trkpt lat="45.80981636294227" lon="4.6794846058579145"><ele>346.3333333333333</ele><time>2026-04-17T16:21:06Z</time></trkpt><trkpt lat="45.80988346366613" lon="4.6794234650984805"><ele>346.66666666666663</ele><time>2026-04-17T16:21:07Z</time></trkpt><trkpt lat="45.80995248929971" lon="4.679362483530765"><ele>347.0</ele><time>2026-04-17T16:21:07.999Z</time></trkpt><trkpt lat="45.810021454779665" lon="4.679295460985426"><ele>347.3333333333333</ele><time>2026-04-17T16:21:08.999Z</time></trkpt><trkpt lat="45.81008575897859" lon="4.679221438758587"><ele>347.6666666666667</ele><time>2026-04-17T16:21:09.999Z</time></trkpt><trkpt lat="45.81014776934192" lon="4.679138175502445"><ele>348.0</ele><time>2026-04-17T16:21:10.999Z</time></trkpt><trkpt lat="45.810209033361076" lon="4.679050260219334"><ele>347.6666666666667</ele><time>2026-04-17T16:21:11.999Z</time></trkpt><trkpt lat="45.810273280416894" lon="4.678959681538231"><ele>347.3333333333333</ele><time>2026-04-17T16:21:12.999Z</time></trkpt><trkpt lat="45.810338258348445" lon="4.678872384547113"><ele>347.0</ele><time>2026-04-17T16:21:13.999Z</time></trkpt><trkpt lat="45.81040174596181" lon="4.67878277952445"><ele>346.66666666666663</ele><time>2026-04-17T16:21:14.999Z</time></trkpt><trkpt lat="45.81046349313054" lon="4.6786903851283945"><ele>346.3333333333333</ele><time>2026-04-17T16:21:15.999Z</time></trkpt><trkpt lat="45.81052563829663" lon="4.678597911659643"><ele>346.0</ele><time>2026-04-17T16:21:16.999Z</time></trkpt><trkpt lat="45.81058772442774" lon="4.67851000430987"><ele>346.0</ele><time>2026-04-17T16:21:17.999Z</time></trkpt><trkpt lat="45.81065120401881" lon="4.678430872481883"><ele>346.0</ele><time>2026-04-17T16:21:18.999Z</time></trkpt><trkpt lat="45.81072585796776" lon="4.678358330856764"><ele>346.0</ele><time>2026-04-17T16:21:19.999Z</time></trkpt><trkpt lat="45.810800040893795" lon="4.678297702416461"><ele>346.0</ele><time>2026-04-17T16:21:20.999Z</time></trkpt><trkpt lat="45.81087746704375" lon="4.678244485644141"><ele>346.0</ele><time>2026-04-17T16:21:21.999Z</time></trkpt><trkpt lat="45.810955369083274" lon="4.678192742310967"><ele>346.0</ele><time>2026-04-17T16:21:22.999Z</time></trkpt><trkpt lat="45.8110436213071" lon="4.6781706966689125"><ele>345.0</ele><time>2026-04-17T16:21:23.999Z</time></trkpt><trkpt lat="45.8111287869054" lon="4.67813146383448"><ele>344.0</ele><time>2026-04-17T16:21:24.999Z</time></trkpt><trkpt lat="45.81121083005395" lon="4.678078744147543"><ele>343.0</ele><time>2026-04-17T16:21:25.999Z</time></trkpt><trkpt lat="45.81129367669945" lon="4.678050125264396"><ele>342.0</ele><time>2026-04-17T16:21:26.999Z</time></trkpt><trkpt lat="45.81137639392606" lon="4.678015712706275"><ele>341.0</ele><time>2026-04-17T16:21:27.999Z</time></trkpt><trkpt lat="45.81145844708355" lon="4.677979410366026"><ele>340.0</ele><time>2026-04-17T16:21:28.999Z</time></trkpt><trkpt lat="45.81153993509742" lon="4.677951204932746"><ele>340.0</ele><time>2026-04-17T16:21:29.999Z</time></trkpt><trkpt lat="45.8116224970856" lon="4.677920025904825"><ele>340.0</ele><time>2026-04-17T16:21:30.999Z</time></trkpt><trkpt lat="45.811701883998914" lon="4.677882823122861"><ele>340.0</ele><time>2026-04-17T16:21:31.999Z</time></trkpt><trkpt lat="45.81178530306951" lon="4.677856832013824"><ele>340.0</ele><time>2026-04-17T16:21:32.999Z</time></trkpt><trkpt lat="45.81187769187538" lon="4.6778502465662966"><ele>340.0</ele><time>2026-04-17T16:21:33.999Z</time></trkpt><trkpt lat="45.81196397460759" lon="4.677850729352211"><ele>340.0</ele><time>2026-04-17T16:21:34.999Z</time></trkpt><trkpt lat="45.812048706744484" lon="4.677843394700391"><ele>339.66666666666663</ele><time>2026-04-17T16:21:35.999Z</time></trkpt><trkpt lat="45.81213582790731" lon="4.677841744843486"><ele>339.3333333333333</ele><time>2026-04-17T16:21:36.999Z</time></trkpt><trkpt lat="45.81222449442838" lon="4.677844267083132"><ele>339.0</ele><time>2026-04-17T16:21:37.999Z</time></trkpt><trkpt lat="45.81231038102971" lon="4.677834175630088"><ele>338.6666666666667</ele><time>2026-04-17T16:21:38.999Z</time></trkpt><trkpt lat="45.812393973448124" lon="4.677818229446767"><ele>338.33333333333337</ele><time>2026-04-17T16:21:39.999Z</time></trkpt><trkpt lat="45.81248186279333" lon="4.6777989046438195"><ele>338.0</ele><time>2026-04-17T16:21:40.999Z</time></trkpt><trkpt lat="45.81257099316016" lon="4.677764310745705"><ele>337.2</ele><time>2026-04-17T16:21:41.999Z</time></trkpt><trkpt lat="45.81265939534545" lon="4.677721128885224"><ele>336.4</ele><time>2026-04-17T16:21:42.999Z</time></trkpt><trkpt lat="45.81275369936226" lon="4.6776724362072395"><ele>335.59999999999997</ele><time>2026-04-17T16:21:43.999Z</time></trkpt><trkpt lat="45.8128318503847" lon="4.677605002915264"><ele>334.79999999999995</ele><time>2026-04-17T16:21:44.999Z</time></trkpt><trkpt lat="45.8129120569223" lon="4.677542721813549"><ele>334.0</ele><time>2026-04-17T16:21:45.999Z</time></trkpt><trkpt lat="45.81299024434868" lon="4.67748457472299"><ele>334.0</ele><time>2026-04-17T16:21:46.999Z</time></trkpt><trkpt lat="45.8130591400442" lon="4.677433480163127"><ele>334.0</ele><time>2026-04-17T16:21:47.999Z</time></trkpt><trkpt lat="45.8131298888483" lon="4.677380593939737"><ele>334.0</ele><time>2026-04-17T16:21:48.999Z</time></trkpt><trkpt lat="45.81319910183071" lon="4.6773342160022935"><ele>334.0</ele><time>2026-04-17T16:21:49.999Z</time></trkpt><trkpt lat="45.81326456808561" lon="4.677275744794533"><ele>334.0</ele><time>2026-04-17T16:21:50.999Z</time></trkpt><trkpt lat="45.81332114844735" lon="4.677178318823958"><ele>334.0</ele><time>2026-04-17T16:21:51.999Z</time></trkpt><trkpt lat="45.81336822654826" lon="4.677065783271231"><ele>334.0</ele><time>2026-04-17T16:21:52.999Z</time></trkpt><trkpt lat="45.81341218010716" lon="4.676950691729563"><ele>334.0</ele><time>2026-04-17T16:21:53.999Z</time></trkpt><trkpt lat="45.8134535381243" lon="4.676831158264907"><ele>334.0</ele><time>2026-04-17T16:21:54.999Z</time></trkpt><trkpt lat="45.813489864428995" lon="4.676708174013818"><ele>334.0</ele><time>2026-04-17T16:21:55.999Z</time></trkpt><trkpt lat="45.81352259229684" lon="4.676579585044533"><ele>334.0</ele><time>2026-04-17T16:21:56.999Z</time></trkpt><trkpt lat="45.81355712270705" lon="4.676447663242837"><ele>333.0</ele><time>2026-04-17T16:21:57.999Z</time></trkpt><trkpt lat="45.81359297431056" lon="4.676321405170034"><ele>332.0</ele><time>2026-04-17T16:21:58.999Z</time></trkpt><trkpt lat="45.81362482838259" lon="4.6761879847559555"><ele>331.0</ele><time>2026-04-17T16:21:59.999Z</time></trkpt><trkpt lat="45.81365327005103" lon="4.67605805383904"><ele>330.0</ele><time>2026-04-17T16:22:00.999Z</time></trkpt><trkpt lat="45.81368914227558" lon="4.675928963876472"><ele>329.0</ele><time>2026-04-17T16:22:01.999Z</time></trkpt><trkpt lat="45.81372569209385" lon="4.675798532981665"><ele>328.79999999999995</ele><time>2026-04-17T16:22:02.999Z</time></trkpt><trkpt lat="45.81375956696215" lon="4.675664971336275"><ele>328.59999999999997</ele><time>2026-04-17T16:22:03.999Z</time></trkpt><trkpt lat="45.81379743694647" lon="4.675536323693484"><ele>328.4</ele><time>2026-04-17T16:22:04.999Z</time></trkpt><trkpt lat="45.813837112780554" lon="4.6754063108718755"><ele>328.2</ele><time>2026-04-17T16:22:05.999Z</time></trkpt><trkpt lat="45.81387858421465" lon="4.675281982040658"><ele>328.0</ele><time>2026-04-17T16:22:06.999Z</time></trkpt><trkpt lat="45.813927310652566" lon="4.6751555831817875"><ele>328.0</ele><time>2026-04-17T16:22:07.999Z</time></trkpt><trkpt lat="45.81397987495201" lon="4.675034396219308"><ele>328.0</ele><time>2026-04-17T16:22:08.999Z</time></trkpt><trkpt lat="45.81403189604737" lon="4.67491593666972"><ele>328.0</ele><time>2026-04-17T16:22:09.999Z</time></trkpt><trkpt lat="45.81408393491539" lon="4.67479551126015"><ele>328.0</ele><time>2026-04-17T16:22:10.999Z</time></trkpt><trkpt lat="45.81414196288966" lon="4.674679283664176"><ele>328.0</ele><time>2026-04-17T16:22:11.999Z</time></trkpt><trkpt lat="45.81420376603794" lon="4.674562504534928"><ele>328.0</ele><time>2026-04-17T16:22:12.999Z</time></trkpt><trkpt lat="45.81426639820606" lon="4.674443924556219"><ele>328.0</ele><time>2026-04-17T16:22:13.999Z</time></trkpt><trkpt lat="45.81433534376499" lon="4.67433660245671"><ele>328.0</ele><time>2026-04-17T16:22:14.999Z</time></trkpt><trkpt lat="45.81441841746551" lon="4.6742422435114355"><ele>328.0</ele><time>2026-04-17T16:22:15.999Z</time></trkpt><trkpt lat="45.81450628815071" lon="4.674159698925511"><ele>328.0</ele><time>2026-04-17T16:22:16.999Z</time></trkpt><trkpt lat="45.81459433521536" lon="4.674076167397036"><ele>326.79999999999995</ele><time>2026-04-17T16:22:17.999Z</time></trkpt><trkpt lat="45.814681362872705" lon="4.673996734103101"><ele>325.6</ele><time>2026-04-17T16:22:18.999Z</time></trkpt><trkpt lat="45.81476714560096" lon="4.673921845918236"><ele>324.4</ele><time>2026-04-17T16:22:19.999Z</time></trkpt><trkpt lat="45.81485943025972" lon="4.673861802450413"><ele>323.20000000000005</ele><time>2026-04-17T16:22:21Z</time></trkpt><trkpt lat="45.814940995164584" lon="4.673768815631818"><ele>322.0</ele><time>2026-04-17T16:22:22Z</time></trkpt><trkpt lat="45.8150321266514" lon="4.673703004355891"><ele>322.0</ele><time>2026-04-17T16:22:23Z</time></trkpt><trkpt lat="45.81512121572984" lon="4.6736401050683964"><ele>322.0</ele><time>2026-04-17T16:22:24Z</time></trkpt><trkpt lat="45.81521215394546" lon="4.673580375307718"><ele>322.0</ele><time>2026-04-17T16:22:25Z</time></trkpt><trkpt lat="45.81530789170224" lon="4.673517733454542"><ele>322.0</ele><time>2026-04-17T16:22:26Z</time></trkpt><trkpt lat="45.81540047151934" lon="4.67345406582655"><ele>322.0</ele><time>2026-04-17T16:22:27Z</time></trkpt><trkpt lat="45.815493489285394" lon="4.67339512773831"><ele>321.6</ele><time>2026-04-17T16:22:28Z</time></trkpt><trkpt lat="45.815582353195204" lon="4.673340650577295"><ele>321.20000000000005</ele><time>2026-04-17T16:22:29Z</time></trkpt><trkpt lat="45.8156724287832" lon="4.673284497948164"><ele>320.8</ele><time>2026-04-17T16:22:30Z</time></trkpt><trkpt lat="45.81576409184772" lon="4.673239122820071"><ele>320.4</ele><time>2026-04-17T16:22:31Z</time></trkpt><trkpt lat="45.81585387884211" lon="4.673179852627429"><ele>320.0</ele><time>2026-04-17T16:22:32Z</time></trkpt><trkpt lat="45.81593890668588" lon="4.673126534941544"><ele>319.5</ele><time>2026-04-17T16:22:33Z</time></trkpt><trkpt lat="45.816019136140824" lon="4.673077954318182"><ele>319.0</ele><time>2026-04-17T16:22:34Z</time></trkpt><trkpt lat="45.81610082259952" lon="4.673030790694321"><ele>318.5</ele><time>2026-04-17T16:22:35Z</time></trkpt><trkpt lat="45.81617692548524" lon="4.672983191477845"><ele>318.0</ele><time>2026-04-17T16:22:36Z</time></trkpt><trkpt lat="45.81625354447481" lon="4.672932252441679"><ele>317.5</ele><time>2026-04-17T16:22:37Z</time></trkpt><trkpt lat="45.816329458308815" lon="4.672884471802772"><ele>317.0</ele><time>2026-04-17T16:22:38Z</time></trkpt><trkpt lat="45.81640971688573" lon="4.67283879760558"><ele>317.0</ele><time>2026-04-17T16:22:39Z</time></trkpt><trkpt lat="45.816484722951884" lon="4.672795773223518"><ele>317.0</ele><time>2026-04-17T16:22:40Z</time></trkpt><trkpt lat="45.81655248281426" lon="4.672754507270874"><ele>317.0</ele><time>2026-04-17T16:22:41Z</time></trkpt><trkpt lat="45.816616341739525" lon="4.672710422661512"><ele>317.0</ele><time>2026-04-17T16:22:42Z</time></trkpt><trkpt lat="45.816677572112944" lon="4.67266847482268"><ele>317.0</ele><time>2026-04-17T16:22:43Z</time></trkpt><trkpt lat="45.816789684699415" lon="4.672603684404556"><ele>317.0</ele><time>2026-04-17T16:22:45Z</time></trkpt><trkpt lat="45.816901621565734" lon="4.672532847583865"><ele>316.25</ele><time>2026-04-17T16:22:47Z</time></trkpt><trkpt lat="45.81701676934637" lon="4.672514544241282"><ele>315.5</ele><time>2026-04-17T16:22:49Z</time></trkpt><trkpt lat="45.817110141841" lon="4.672603985624795"><ele>314.75</ele><time>2026-04-17T16:22:51Z</time></trkpt><trkpt lat="45.81714367733854" lon="4.672760499030843"><ele>314.0</ele><time>2026-04-17T16:22:53Z</time></trkpt><trkpt lat="45.81715269005487" lon="4.672924399900998"><ele>314.0</ele><time>2026-04-17T16:22:55Z</time></trkpt><trkpt lat="45.817155170498744" lon="4.673090949298255"><ele>314.0</ele><time>2026-04-17T16:22:57Z</time></trkpt><trkpt lat="45.81715956823867" lon="4.673238394189248"><ele>314.0</ele><time>2026-04-17T16:22:59Z</time></trkpt><trkpt lat="45.8171582637372" lon="4.673372192623986"><ele>314.0</ele><time>2026-04-17T16:23:01Z</time></trkpt><trkpt lat="45.81716926854055" lon="4.673510584729236"><ele>314.0</ele><time>2026-04-17T16:23:03Z</time></trkpt><trkpt lat="45.817182555317665" lon="4.67364588824254"><ele>314.0</ele><time>2026-04-17T16:23:05Z</time></trkpt><trkpt lat="45.817197730427296" lon="4.673788274305505"><ele>314.0</ele><time>2026-04-17T16:23:07Z</time></trkpt><trkpt lat="45.81722956286127" lon="4.673933341561338"><ele>314.0</ele><time>2026-04-17T16:23:09Z</time></trkpt><trkpt lat="45.8172595479389" lon="4.674097615625806"><ele>314.0</ele><time>2026-04-17T16:23:11Z</time></trkpt><trkpt lat="45.81730502037712" lon="4.67425860611024"><ele>314.0</ele><time>2026-04-17T16:23:13Z</time></trkpt><trkpt lat="45.81733452073981" lon="4.674416219831278"><ele>314.5</ele><time>2026-04-17T16:23:15Z</time></trkpt><trkpt lat="45.817349162659426" lon="4.674598189379633"><ele>315.0</ele><time>2026-04-17T16:23:17Z</time></trkpt><trkpt lat="45.817360716683" lon="4.67470016288681"><ele>315.5</ele><time>2026-04-17T16:23:18Z</time></trkpt><trkpt lat="45.81737073930409" lon="4.674798356682803"><ele>316.0</ele><time>2026-04-17T16:23:19Z</time></trkpt><trkpt lat="45.81737820739569" lon="4.674890992428786"><ele>316.5</ele><time>2026-04-17T16:23:20Z</time></trkpt><trkpt lat="45.817386284348515" lon="4.674983170190925"><ele>317.0</ele><time>2026-04-17T16:23:21Z</time></trkpt><trkpt lat="45.81740884140426" lon="4.6751633958463445"><ele>317.25</ele><time>2026-04-17T16:23:23Z</time></trkpt><trkpt lat="45.81741911159984" lon="4.675332417506261"><ele>317.5</ele><time>2026-04-17T16:23:25Z</time></trkpt><trkpt lat="45.81743977667424" lon="4.675494928039065"><ele>317.75</ele><time>2026-04-17T16:23:26.999Z</time></trkpt><trkpt lat="45.81745720929416" lon="4.67565521264964"><ele>318.0</ele><time>2026-04-17T16:23:28.999Z</time></trkpt><trkpt lat="45.81750535640323" lon="4.6758108508141785"><ele>318.0</ele><time>2026-04-17T16:23:30.999Z</time></trkpt><trkpt lat="45.81762126909443" lon="4.675974830168579"><ele>318.0</ele><time>2026-04-17T16:23:32.999Z</time></trkpt><trkpt lat="45.8177097710485" lon="4.675804072486937"><ele>318.0</ele><time>2026-04-17T16:23:33.999Z</time></trkpt><trkpt lat="45.81781850365371" lon="4.675834017134466"><ele>318.0</ele><time>2026-04-17T16:23:35.999Z</time></trkpt><trkpt lat="45.81792861826139" lon="4.675870144169967"><ele>318.2</ele><time>2026-04-17T16:23:37.999Z</time></trkpt><trkpt lat="45.818031485247296" lon="4.67593650452865"><ele>318.4</ele><time>2026-04-17T16:23:39.999Z</time></trkpt><trkpt lat="45.81811670192124" lon="4.676049567899526"><ele>318.59999999999997</ele><time>2026-04-17T16:23:41.999Z</time></trkpt><trkpt lat="45.818204315544776" lon="4.6761443084116205"><ele>318.8</ele><time>2026-04-17T16:23:43.999Z</time></trkpt><trkpt lat="45.818286441648866" lon="4.676236460894901"><ele>319.0</ele><time>2026-04-17T16:23:45.999Z</time></trkpt><trkpt lat="45.81837715358649" lon="4.676319922132824"><ele>319.4</ele><time>2026-04-17T16:23:47.999Z</time></trkpt><trkpt lat="45.81845640606115" lon="4.676406019659016"><ele>319.79999999999995</ele><time>2026-04-17T16:23:49.999Z</time></trkpt><trkpt lat="45.818531671391376" lon="4.676509938676891"><ele>320.20000000000005</ele><time>2026-04-17T16:23:51.999Z</time></trkpt><trkpt lat="45.81861943861025" lon="4.676602215873424"><ele>320.6</ele><time>2026-04-17T16:23:53.999Z</time></trkpt><trkpt lat="45.81869870747958" lon="4.676701272139605"><ele>321.0</ele><time>2026-04-17T16:23:55.999Z</time></trkpt><trkpt lat="45.81877479027042" lon="4.676797460518345"><ele>321.0</ele><time>2026-04-17T16:23:57.999Z</time></trkpt><trkpt lat="45.81885336110683" lon="4.676889332245297"><ele>321.0</ele><time>2026-04-17T16:23:59.999Z</time></trkpt><trkpt lat="45.81893161596441" lon="4.676980413236408"><ele>321.0</ele><time>2026-04-17T16:24:01.999Z</time></trkpt><trkpt lat="45.81900683719304" lon="4.677070860036938"><ele>321.0</ele><time>2026-04-17T16:24:03.999Z</time></trkpt><trkpt lat="45.819079736547" lon="4.67715907390598"><ele>321.0</ele><time>2026-04-17T16:24:05.999Z</time></trkpt><trkpt lat="45.81915074605891" lon="4.677237247004939"><ele>321.0</ele><time>2026-04-17T16:24:07.999Z</time></trkpt><trkpt lat="45.81923184647297" lon="4.677311388916894"><ele>321.0</ele><time>2026-04-17T16:24:09.999Z</time></trkpt><trkpt lat="45.819325437138005" lon="4.677401394361035"><ele>321.0</ele><time>2026-04-17T16:24:11.999Z</time></trkpt><trkpt lat="45.81942635824902" lon="4.6774998832183785"><ele>321.0</ele><time>2026-04-17T16:24:13.999Z</time></trkpt><trkpt lat="45.81947915206572" lon="4.677549872140995"><ele>321.0</ele><time>2026-04-17T16:24:14.999Z</time></trkpt><trkpt lat="45.81953026684734" lon="4.677602616471311"><ele>321.25</ele><time>2026-04-17T16:24:15.999Z</time></trkpt><trkpt lat="45.81963121151201" lon="4.677700789333207"><ele>321.5</ele><time>2026-04-17T16:24:17.999Z</time></trkpt><trkpt lat="45.81972403688328" lon="4.677806582273482"><ele>321.75</ele><time>2026-04-17T16:24:19.999Z</time></trkpt><trkpt lat="45.81981793660072" lon="4.677889751813877"><ele>322.0</ele><time>2026-04-17T16:24:21.999Z</time></trkpt><trkpt lat="45.819923378083146" lon="4.677946974726776"><ele>322.0</ele><time>2026-04-17T16:24:23.999Z</time></trkpt><trkpt lat="45.82003056886366" lon="4.678009054092646"><ele>322.0</ele><time>2026-04-17T16:24:25.999Z</time></trkpt><trkpt lat="45.82014082219355" lon="4.678057980935461"><ele>322.0</ele><time>2026-04-17T16:24:28Z</time></trkpt><trkpt lat="45.82025495899641" lon="4.678098548385424"><ele>322.0</ele><time>2026-04-17T16:24:30Z</time></trkpt><trkpt lat="45.82036820508763" lon="4.678138463522658"><ele>322.6</ele><time>2026-04-17T16:24:32Z</time></trkpt><trkpt lat="45.82048405034797" lon="4.678170096013313"><ele>323.20000000000005</ele><time>2026-04-17T16:24:34Z</time></trkpt><trkpt lat="45.820596417835276" lon="4.678221270128721"><ele>323.8</ele><time>2026-04-17T16:24:36Z</time></trkpt><trkpt lat="45.82070188373141" lon="4.678255230802961"><ele>324.4</ele><time>2026-04-17T16:24:38Z</time></trkpt><trkpt lat="45.82080087716862" lon="4.6782831879248565"><ele>325.0</ele><time>2026-04-17T16:24:40Z</time></trkpt><trkpt lat="45.82089859268703" lon="4.678320568953882"><ele>326.0</ele><time>2026-04-17T16:24:42Z</time></trkpt><trkpt lat="45.82099035977761" lon="4.6783453396287795"><ele>327.0</ele><time>2026-04-17T16:24:44Z</time></trkpt><trkpt lat="45.821075390738706" lon="4.678376353609215"><ele>328.0</ele><time>2026-04-17T16:24:46Z</time></trkpt><trkpt lat="45.82117075448771" lon="4.678406049970758"><ele>329.0</ele><time>2026-04-17T16:24:48Z</time></trkpt><trkpt lat="45.82126513852479" lon="4.6784370912418956"><ele>330.0</ele><time>2026-04-17T16:24:50Z</time></trkpt><trkpt lat="45.82136588921673" lon="4.678425403577823"><ele>330.0</ele><time>2026-04-17T16:24:52Z</time></trkpt><trkpt lat="45.82146206449665" lon="4.678401329935987"><ele>330.0</ele><time>2026-04-17T16:24:54Z</time></trkpt><trkpt lat="45.821555149478435" lon="4.678389349228011"><ele>330.0</ele><time>2026-04-17T16:24:56Z</time></trkpt><trkpt lat="45.82163676541322" lon="4.678381680087725"><ele>330.0</ele><time>2026-04-17T16:24:58Z</time></trkpt><trkpt lat="45.82170955139454" lon="4.678377550715379"><ele>330.0</ele><time>2026-04-17T16:25:00Z</time></trkpt><trkpt lat="45.82177483349149" lon="4.678367385822959"><ele>330.0</ele><time>2026-04-17T16:25:02Z</time></trkpt><trkpt lat="45.821841524685745" lon="4.678347962136522"><ele>329.8333333333333</ele><time>2026-04-17T16:25:18Z</time></trkpt><trkpt lat="45.82191023458504" lon="4.678373526378163"><ele>329.6666666666667</ele><time>2026-04-17T16:25:26.999Z</time></trkpt><trkpt lat="45.821984291685546" lon="4.678397052341984"><ele>329.5</ele><time>2026-04-17T16:25:50.999Z</time></trkpt><trkpt lat="45.82205448832941" lon="4.678417208350866"><ele>329.33333333333337</ele><time>2026-04-17T16:25:55.999Z</time></trkpt><trkpt lat="45.82211820126328" lon="4.678435502730314"><ele>329.1666666666667</ele><time>2026-04-17T16:26:02.999Z</time></trkpt><trkpt lat="45.82218942515593" lon="4.678455953759035"><ele>329.0</ele><time>2026-04-17T16:26:08.999Z</time></trkpt><trkpt lat="45.82223477461045" lon="4.678317270162539"><ele>329.0</ele><time>2026-04-17T16:26:10.999Z</time></trkpt><trkpt lat="45.82230129434456" lon="4.678342868420664"><ele>329.0</ele><time>2026-04-17T16:26:16.999Z</time></trkpt><trkpt lat="45.82236696283491" lon="4.678369116434277"><ele>329.0</ele><time>2026-04-17T16:26:21.999Z</time></trkpt><trkpt lat="45.82239774548165" lon="4.678461870667573"><ele>329.0</ele><time>2026-04-17T16:26:28.999Z</time></trkpt><trkpt lat="45.822363510323385" lon="4.678552480944126"><ele>329.0</ele><time>2026-04-17T16:26:35Z</time></trkpt></trkseg></trk></gpx>